[[{"header":{"parameterUnit":"m.s-1","parameterCategory":1,"la1":30.6,"la2":29.2853,"lo1":-89.7004,"lo2":-87.6739,"dy":0.0162,"dx":0.0183,"nx":112,"ny":82,"refTime":"2023-08-16T06:00:00:Z","depth":0,"parameterNumber":2,"parameterNumberName":"U-component_of_WINDS"},"data":[0.0,0.0,0.0,0.0,0.0,0.0,0.0,0.0,0.0,0.0,0.0,0.0,0.0,0.0,0.0,0.0,0.0,0.0,0.0,0.0,0.0,0.0,0.0,0.0,0.0,0.0,0.0,0.0,0.0,0.0,0.0,0.0,0.0,0.0,0.0,0.0,0.0,0.0,0.0,0.0,0.0,0.0,0.0,0.0,0.0,0.0,0.0,0.0,0.0,0.0,0.0,0.0,0.0,0.0,0.0,0.0,0.0,0.0,0.0,0.0,0.0,0.0,0.0,0.0,0.0,0.0,0.0,0.0,0.0,0.0,0.0,0.0,0.0,0.0,0.0,0.0,0.0,0.0,0.0,0.0,0.0,0.0,0.0,0.0,0.0,0.0,0.0,0.0,0.0,0.0,-3.0377,-3.091,-3.0811,-3.0698,-3.066,-3.0318,-3.0088,-3.0049,0.0,0.0,0.0,0.0,0.0,0.0,0.0,0.0,0.0,0.0,0.0,0.0,0.0,0.0,0.0,0.0,0.0,0.0,0.0,0.0,0.0,0.0,0.0,0.0,0.0,0.0,0.0,0.0,0.0,0.0,0.0,0.0,0.0,0.0,0.0,0.0,0.0,0.0,0.0,0.0,0.0,0.0,0.0,0.0,0.0,0.0,0.0,0.0,0.0,0.0,0.0,0.0,0.0,0.0,0.0,0.0,0.0,0.0,0.0,0.0,0.0,0.0,0.0,0.0,0.0,0.0,0.0,0.0,0.0,0.0,0.0,0.0,0.0,0.0,0.0,0.0,0.0,0.0,0.0,0.0,0.0,0.0,0.0,0.0,0.0,0.0,0.0,0.0,0.0,0.0,0.0,0.0,0.0,0.0,0.0,0.0,0.0,0.0,0.0,0.0,0.0,0.0,0.0,0.0,-3.0632,-3.0736,-3.0736,-3.0622,-3.0444,-3.0216,-3.0049,-2.9856,0.0,0.0,0.0,0.0,0.0,0.0,0.0,0.0,0.0,0.0,0.0,0.0,0.0,0.0,0.0,0.0,0.0,0.0,0.0,0.0,0.0,0.0,0.0,0.0,0.0,0.0,0.0,0.0,0.0,0.0,0.0,0.0,0.0,0.0,0.0,0.0,0.0,0.0,0.0,0.0,0.0,0.0,0.0,0.0,0.0,0.0,0.0,0.0,0.0,0.0,0.0,0.0,0.0,0.0,0.0,0.0,0.0,0.0,0.0,0.0,0.0,0.0,0.0,0.0,0.0,0.0,0.0,0.0,0.0,0.0,0.0,0.0,0.0,0.0,0.0,0.0,0.0,0.0,0.0,0.0,0.0,0.0,0.0,0.0,0.0,0.0,0.0,0.0,0.0,0.0,0.0,0.0,0.0,0.0,0.0,0.0,0.0,0.0,0.0,0.0,0.0,0.0,0.0,-3.0742,-3.0849,-3.0849,-3.0773,-3.0622,-3.0406,-3.0216,-3.0011,-2.9804,-2.9553,0.0,0.0,0.0,0.0,0.0,0.0,0.0,0.0,0.0,0.0,0.0,0.0,0.0,0.0,0.0,0.0,0.0,0.0,0.0,0.0,0.0,0.0,0.0,0.0,0.0,0.0,0.0,0.0,0.0,0.0,0.0,0.0,0.0,0.0,0.0,0.0,0.0,0.0,0.0,0.0,0.0,0.0,0.0,0.0,0.0,0.0,0.0,0.0,0.0,0.0,0.0,0.0,0.0,0.0,0.0,0.0,0.0,0.0,0.0,0.0,0.0,0.0,0.0,0.0,0.0,0.0,0.0,0.0,0.0,0.0,0.0,0.0,0.0,0.0,0.0,0.0,0.0,0.0,0.0,0.0,0.0,0.0,0.0,0.0,0.0,0.0,0.0,0.0,0.0,0.0,0.0,0.0,0.0,0.0,0.0,0.0,0.0,0.0,0.0,0.0,0.0,0.0,-3.0999,-3.0936,-3.0861,-3.0773,-3.0622,-3.033,-3.0177,-3.0011,-2.9804,-2.9804,0.0,0.0,0.0,0.0,0.0,0.0,0.0,0.0,0.0,0.0,0.0,0.0,0.0,0.0,0.0,0.0,0.0,0.0,0.0,0.0,0.0,0.0,0.0,0.0,0.0,0.0,0.0,0.0,0.0,0.0,0.0,0.0,0.0,0.0,0.0,0.0,0.0,0.0,0.0,0.0,0.0,0.0,0.0,0.0,0.0,0.0,0.0,0.0,0.0,0.0,0.0,0.0,0.0,0.0,0.0,0.0,0.0,0.0,0.0,0.0,0.0,0.0,0.0,0.0,0.0,0.0,0.0,0.0,0.0,0.0,0.0,0.0,0.0,0.0,0.0,0.0,0.0,0.0,0.0,0.0,0.0,0.0,0.0,0.0,0.0,0.0,0.0,0.0,0.0,0.0,0.0,0.0,0.0,0.0,0.0,0.0,0.0,0.0,0.0,0.0,0.0,0.0,-3.0887,-3.0861,-3.0482,-3.0622,-3.0546,-3.0164,-3.0126,-3.0011,-2.9804,-2.9804,0.0,0.0,0.0,0.0,0.0,0.0,0.0,0.0,0.0,0.0,0.0,0.0,0.0,0.0,0.0,0.0,0.0,0.0,0.0,0.0,0.0,0.0,0.0,0.0,0.0,0.0,0.0,0.0,0.0,0.0,0.0,0.0,0.0,0.0,0.0,0.0,0.0,0.0,0.0,0.0,0.0,0.0,0.0,0.0,0.0,0.0,0.0,0.0,0.0,0.0,0.0,0.0,0.0,0.0,0.0,0.0,0.0,0.0,0.0,0.0,0.0,0.0,0.0,0.0,0.0,0.0,0.0,0.0,0.0,0.0,0.0,0.0,0.0,0.0,0.0,0.0,0.0,0.0,0.0,0.0,0.0,0.0,0.0,0.0,0.0,0.0,0.0,0.0,0.0,0.0,0.0,0.0,0.0,0.0,0.0,0.0,0.0,0.0,0.0,0.0,0.0,0.0,-3.0962,-3.0936,0.0,-3.0482,-3.0037,-2.9535,-2.9081,-2.8885,-2.8988,0.0,0.0,0.0,0.0,0.0,0.0,0.0,0.0,0.0,0.0,0.0,0.0,0.0,0.0,0.0,0.0,0.0,0.0,0.0,0.0,0.0,0.0,0.0,0.0,0.0,0.0,0.0,0.0,0.0,0.0,0.0,0.0,0.0,0.0,0.0,0.0,0.0,0.0,0.0,0.0,0.0,0.0,0.0,0.0,0.0,0.0,0.0,0.0,0.0,0.0,0.0,0.0,0.0,0.0,0.0,0.0,0.0,0.0,0.0,0.0,0.0,0.0,0.0,0.0,0.0,0.0,0.0,0.0,0.0,0.0,0.0,0.0,0.0,0.0,0.0,0.0,0.0,0.0,0.0,0.0,0.0,0.0,0.0,0.0,0.0,0.0,0.0,0.0,0.0,0.0,0.0,0.0,0.0,0.0,0.0,0.0,0.0,0.0,0.0,0.0,0.0,0.0,-3.0887,-3.0596,-3.0419,0.0,-2.9819,-2.9277,-2.8949,-2.8227,-2.7907,-2.8251,0.0,0.0,0.0,0.0,0.0,0.0,0.0,0.0,0.0,0.0,0.0,0.0,0.0,0.0,0.0,0.0,0.0,0.0,0.0,0.0,0.0,0.0,0.0,0.0,0.0,0.0,0.0,0.0,0.0,0.0,0.0,0.0,0.0,0.0,0.0,0.0,0.0,0.0,0.0,0.0,0.0,0.0,0.0,0.0,0.0,0.0,0.0,0.0,0.0,0.0,0.0,0.0,0.0,0.0,0.0,0.0,0.0,0.0,0.0,0.0,0.0,0.0,0.0,0.0,0.0,0.0,0.0,0.0,0.0,0.0,0.0,0.0,0.0,0.0,0.0,0.0,0.0,0.0,0.0,0.0,0.0,0.0,0.0,0.0,0.0,0.0,0.0,0.0,0.0,0.0,0.0,0.0,0.0,0.0,0.0,0.0,0.0,0.0,0.0,0.0,0.0,0.0,-3.0622,-2.9767,-2.916,-2.938,-2.8624,-2.8187,-2.8459,-2.7609,-2.7261,0.0,0.0,0.0,0.0,0.0,0.0,0.0,0.0,0.0,0.0,0.0,0.0,0.0,0.0,0.0,0.0,0.0,0.0,0.0,0.0,0.0,0.0,0.0,0.0,0.0,0.0,0.0,0.0,0.0,0.0,0.0,0.0,0.0,0.0,0.0,0.0,0.0,0.0,0.0,0.0,0.0,0.0,0.0,0.0,0.0,0.0,0.0,0.0,0.0,0.0,0.0,0.0,0.0,0.0,0.0,0.0,0.0,0.0,0.0,0.0,0.0,0.0,0.0,0.0,0.0,0.0,0.0,0.0,0.0,0.0,0.0,0.0,0.0,0.0,0.0,0.0,0.0,0.0,0.0,0.0,0.0,0.0,0.0,0.0,0.0,0.0,0.0,0.0,0.0,0.0,0.0,0.0,0.0,0.0,0.0,0.0,0.0,0.0,0.0,0.0,0.0,0.0,0.0,-2.9574,-2.9277,-2.9121,-2.916,-2.8593,-2.7931,-2.7366,-2.6652,-2.6279,-2.6359,0.0,0.0,0.0,0.0,0.0,0.0,0.0,0.0,0.0,0.0,0.0,0.0,0.0,0.0,0.0,0.0,0.0,0.0,0.0,0.0,0.0,0.0,0.0,0.0,0.0,0.0,0.0,0.0,0.0,0.0,0.0,0.0,0.0,0.0,0.0,0.0,0.0,0.0,0.0,0.0,0.0,0.0,0.0,0.0,0.0,0.0,0.0,0.0,0.0,0.0,0.0,0.0,0.0,0.0,0.0,0.0,0.0,0.0,0.0,0.0,0.0,0.0,0.0,0.0,0.0,0.0,0.0,0.0,0.0,0.0,0.0,0.0,0.0,0.0,0.0,0.0,0.0,0.0,0.0,0.0,0.0,0.0,0.0,0.0,0.0,0.0,0.0,0.0,0.0,0.0,0.0,0.0,0.0,0.0,0.0,0.0,0.0,0.0,0.0,0.0,0.0,0.0,-2.9081,-2.8648,-2.8435,-2.8712,-2.8035,-2.7389,-2.6981,-2.6113,-2.5675,-2.5821,0.0,0.0,0.0,0.0,0.0,0.0,0.0,0.0,0.0,0.0,0.0,0.0,0.0,0.0,0.0,0.0,0.0,0.0,0.0,0.0,0.0,0.0,0.0,0.0,0.0,0.0,0.0,0.0,0.0,0.0,0.0,0.0,0.0,0.0,0.0,0.0,0.0,0.0,0.0,0.0,0.0,0.0,0.0,0.0,0.0,0.0,0.0,0.0,0.0,0.0,0.0,0.0,0.0,0.0,0.0,0.0,0.0,0.0,0.0,0.0,0.0,0.0,0.0,0.0,0.0,0.0,0.0,0.0,0.0,0.0,0.0,0.0,0.0,0.0,0.0,0.0,0.0,0.0,0.0,0.0,0.0,0.0,0.0,0.0,0.0,0.0,0.0,0.0,0.0,0.0,0.0,0.0,0.0,0.0,0.0,0.0,0.0,0.0,0.0,0.0,0.0,0.0,-2.8846,-2.7914,-2.7412,-2.8059,-2.7185,-2.6715,-2.7067,-2.5968,-2.5422,-2.5738,0.0,0.0,0.0,0.0,0.0,0.0,0.0,0.0,0.0,0.0,0.0,0.0,0.0,0.0,0.0,0.0,0.0,0.0,0.0,0.0,0.0,0.0,0.0,0.0,0.0,0.0,0.0,0.0,0.0,0.0,0.0,0.0,0.0,0.0,0.0,0.0,0.0,0.0,0.0,0.0,0.0,0.0,0.0,0.0,0.0,0.0,0.0,0.0,0.0,0.0,0.0,0.0,0.0,0.0,0.0,0.0,0.0,0.0,0.0,0.0,-2.6154,0.0,0.0,0.0,0.0,0.0,0.0,0.0,0.0,0.0,0.0,0.0,0.0,0.0,0.0,0.0,0.0,0.0,0.0,0.0,0.0,0.0,0.0,0.0,0.0,0.0,0.0,0.0,0.0,0.0,0.0,0.0,0.0,0.0,0.0,0.0,0.0,0.0,0.0,0.0,0.0,0.0,-2.7574,-2.7394,-2.7272,-2.7394,-2.7231,-2.6798,-2.624,-2.5948,-2.5464,-2.4828,-2.4636,0.0,0.0,0.0,0.0,0.0,0.0,0.0,0.0,0.0,0.0,0.0,0.0,0.0,0.0,0.0,0.0,0.0,0.0,0.0,0.0,0.0,0.0,0.0,0.0,0.0,0.0,0.0,0.0,0.0,0.0,0.0,0.0,0.0,0.0,0.0,0.0,0.0,0.0,0.0,0.0,0.0,0.0,0.0,0.0,0.0,0.0,0.0,0.0,0.0,0.0,0.0,0.0,0.0,0.0,0.0,0.0,0.0,0.0,0.0,0.0,-2.6189,0.0,0.0,0.0,0.0,0.0,0.0,0.0,0.0,0.0,0.0,0.0,0.0,0.0,0.0,0.0,0.0,0.0,0.0,0.0,0.0,0.0,0.0,0.0,0.0,0.0,0.0,0.0,0.0,0.0,0.0,0.0,0.0,0.0,0.0,0.0,0.0,0.0,0.0,0.0,0.0,-2.719,-2.719,-2.719,-2.719,-2.719,-2.7026,-2.6573,-2.6157,-2.5696,-2.5211,-2.4764,0.0,0.0,0.0,0.0,0.0,0.0,0.0,0.0,0.0,0.0,0.0,0.0,0.0,0.0,0.0,0.0,0.0,0.0,0.0,0.0,0.0,0.0,0.0,0.0,0.0,0.0,0.0,0.0,0.0,0.0,0.0,0.0,0.0,0.0,0.0,0.0,0.0,0.0,0.0,0.0,0.0,0.0,0.0,0.0,0.0,0.0,0.0,0.0,0.0,0.0,0.0,0.0,0.0,-2.719,-2.719,-2.719,-2.719,-2.719,-2.719,-2.719,-2.6962,-2.661,-2.661,0.0,0.0,0.0,0.0,0.0,0.0,0.0,0.0,0.0,0.0,0.0,0.0,0.0,0.0,0.0,0.0,0.0,0.0,0.0,0.0,0.0,0.0,-2.661,-2.661,-2.661,-2.6757,-2.7108,0.0,0.0,0.0,0.0,0.0,0.0,0.0,0.0,0.0,0.0,0.0,-2.719,-2.719,-2.719,-2.719,-2.719,-2.719,-2.7108,-2.6426,-2.5884,-2.5591,-2.4956,-2.4487,0.0,0.0,0.0,0.0,0.0,0.0,0.0,0.0,0.0,0.0,0.0,0.0,0.0,0.0,0.0,0.0,0.0,0.0,0.0,0.0,0.0,0.0,0.0,0.0,0.0,0.0,0.0,0.0,0.0,0.0,0.0,0.0,-2.6109,-2.6565,0.0,0.0,0.0,0.0,0.0,0.0,0.0,0.0,0.0,0.0,0.0,0.0,0.0,-2.7116,-2.7116,-2.7144,-2.719,-2.719,-2.719,-2.719,-2.719,-2.719,-2.719,-2.719,-2.719,0.0,-2.7108,-2.7108,0.0,0.0,0.0,0.0,0.0,0.0,0.0,0.0,0.0,0.0,0.0,0.0,0.0,0.0,0.0,0.0,0.0,0.0,0.0,0.0,0.0,0.0,-2.7108,-2.7108,-2.7108,-2.7149,-2.719,-2.719,-2.719,-2.719,-2.719,0.0,0.0,0.0,0.0,0.0,0.0,0.0,-2.719,-2.719,-2.719,-2.719,-2.719,-2.7044,-2.661,-2.6487,-2.5799,-2.4445,-2.4807,-2.438,-2.2755,-2.3299,0.0,0.0,0.0,0.0,0.0,0.0,0.0,0.0,0.0,0.0,0.0,0.0,0.0,0.0,0.0,0.0,0.0,0.0,0.0,0.0,0.0,0.0,0.0,0.0,0.0,0.0,0.0,0.0,0.0,-2.6525,-2.6657,-2.6864,-2.6887,-2.6978,0.0,0.0,0.0,0.0,0.0,0.0,0.0,0.0,0.0,-2.719,-2.719,-2.719,-2.719,-2.719,-2.719,-2.719,-2.719,-2.719,-2.719,-2.719,-2.719,-2.719,-2.719,-2.719,-2.719,-2.719,-2.719,-2.719,0.0,0.0,0.0,0.0,-2.688,-2.6839,-2.6385,-2.626,-2.626,-2.626,0.0,0.0,0.0,0.0,0.0,0.0,0.0,-2.6921,-2.7149,-2.719,-2.719,-2.719,-2.719,-2.719,-2.719,-2.719,-2.719,0.0,-2.719,-2.719,-2.719,0.0,0.0,0.0,0.0,-2.719,-2.719,-2.719,-2.719,-2.719,-2.719,-2.7108,-2.6921,-2.6426,-2.5695,-2.4553,-2.4337,-2.3691,-2.2448,-2.2711,-2.2711,0.0,0.0,0.0,0.0,0.0,0.0,0.0,0.0,0.0,0.0,0.0,0.0,0.0,0.0,0.0,0.0,0.0,0.0,0.0,0.0,0.0,0.0,0.0,0.0,0.0,0.0,0.0,0.0,-2.719,-2.719,-2.719,-2.719,-2.719,0.0,0.0,0.0,0.0,0.0,0.0,-2.719,-2.719,-2.719,-2.719,-2.719,-2.719,-2.719,-2.719,-2.719,-2.719,-2.719,-2.719,-2.719,-2.719,-2.719,-2.719,-2.719,-2.719,-2.719,-2.719,-2.719,-2.719,-2.719,-2.719,-2.719,-2.719,-2.719,-2.7149,-2.6798,-2.6652,-2.6652,-2.6652,-2.6467,-2.6365,-2.6985,0.0,0.0,0.0,0.0,-2.7149,-2.688,-2.6839,-2.6798,-2.655,-2.6674,-2.6839,-2.6839,-2.7003,-2.719,0.0,-2.719,-2.719,-2.719,0.0,0.0,0.0,0.0,-2.7557,-2.7557,-2.7557,-2.7557,-2.7557,-2.7557,-2.7557,-2.7557,-2.6763,-2.5829,-2.4928,-2.4065,-2.3149,-2.2084,-2.2106,-2.205,-2.1872,0.0,0.0,0.0,0.0,0.0,0.0,0.0,0.0,0.0,0.0,0.0,0.0,0.0,0.0,0.0,0.0,0.0,0.0,0.0,0.0,0.0,0.0,0.0,0.0,0.0,0.0,0.0,0.0,0.0,-2.719,-2.719,0.0,0.0,0.0,0.0,-2.719,-2.719,-2.719,-2.719,-2.719,-2.719,-2.719,-2.719,-2.719,-2.719,-2.719,-2.719,-2.719,-2.719,-2.719,-2.719,-2.719,-2.719,-2.719,-2.719,-2.719,-2.719,-2.719,-2.719,-2.719,-2.719,-2.719,-2.719,-2.719,-2.719,-2.719,-2.719,-2.7149,-2.7149,-2.7149,-2.7149,-2.7149,-2.719,-2.719,0.0,0.0,-2.719,-2.7003,-2.6091,-2.5861,-2.5652,-2.4829,-2.5295,-2.5861,-2.5861,-2.6569,-2.719,0.0,-2.719,-2.719,-2.719,0.0,-2.7943,-2.7943,-2.8333,-2.8632,-2.8632,-2.8632,-2.8632,-2.8632,-2.8632,-2.8632,-2.8632,-2.7699,-2.6576,-2.5189,-2.4401,-2.3062,-2.1072,-2.1301,-2.1132,-2.0428,-2.0428,0.0,0.0,0.0,0.0,0.0,0.0,0.0,0.0,0.0,0.0,0.0,0.0,0.0,0.0,0.0,0.0,0.0,0.0,0.0,0.0,0.0,0.0,0.0,0.0,0.0,0.0,0.0,0.0,-2.719,-2.719,0.0,-2.719,-2.719,-2.719,-2.719,-2.719,-2.719,-2.719,-2.719,-2.719,-2.719,-2.719,-2.719,-2.719,-2.719,-2.719,-2.719,-2.719,-2.719,-2.719,-2.719,-2.719,-2.719,-2.719,-2.719,-2.719,-2.719,-2.719,-2.719,-2.719,-2.719,-2.7149,-2.6528,-2.6652,-2.7108,-2.6528,-2.6299,-2.6216,-2.5653,-2.5485,-2.5485,-2.5485,-2.5485,-2.5485,-2.5485,-2.5841,-2.6216,-2.5861,-2.6257,-2.67,-2.6721,-2.7021,-2.7299,-2.7615,-2.7426,-2.7212,-2.7212,-2.7499,-2.7805,-2.8126,-2.8333,-2.8448,-2.8448,-2.8586,-2.87,-2.87,-2.87,-2.87,-2.87,-2.8115,-2.7722,-2.7722,-2.6528,-2.5381,-2.4467,-2.3871,-2.2917,-2.1548,-2.1597,-2.1433,-2.1011,-2.0788,-2.0668,0.0,0.0,0.0,0.0,0.0,0.0,0.0,0.0,0.0,0.0,0.0,0.0,0.0,0.0,0.0,0.0,0.0,0.0,0.0,0.0,0.0,0.0,0.0,0.0,0.0,0.0,-2.719,-2.719,-2.719,-2.719,-2.719,-2.719,-2.719,-2.719,-2.719,-2.719,-2.719,-2.7392,-2.7483,-2.7483,-2.7603,-2.7713,-2.7713,-2.7713,-2.7713,-2.7713,-2.7713,-2.7713,-2.7713,-2.7713,-2.7713,-2.7713,-2.7713,-2.7713,-2.7713,-2.7713,-2.7713,-2.7649,-2.7328,-2.719,-2.7149,-2.6487,-2.6674,-2.7108,-2.6487,-2.6257,-2.6133,-2.5253,-2.5168,-2.5316,-2.4701,-2.4701,-2.4893,-2.476,-2.5146,-2.5509,-2.5357,-2.5765,-2.6238,-2.6259,-2.6498,-2.6846,-2.7151,-2.6951,-2.6749,-2.6899,-2.7086,-2.7431,-2.807,-2.8031,-2.8143,-2.8866,-2.852,-2.8299,-2.8677,-2.8388,-2.8344,-2.8677,-2.7808,-2.7358,-2.7673,-2.6172,-2.4965,-2.4354,-2.3578,-2.2745,-2.19,-2.1713,-2.1596,-2.1405,-2.1182,-2.1062,-2.1062,0.0,0.0,0.0,0.0,0.0,0.0,0.0,0.0,0.0,0.0,0.0,0.0,0.0,0.0,0.0,0.0,0.0,0.0,0.0,0.0,0.0,0.0,0.0,-2.6944,-2.719,-2.7149,-2.7213,-2.7213,-2.7213,-2.7236,-2.7236,-2.7236,-2.7236,-2.7236,-2.7236,-2.7236,-2.7736,-2.8012,-2.8012,-2.8448,-2.87,-2.87,-2.87,-2.87,-2.87,-2.87,-2.87,-2.87,-2.87,-2.87,-2.87,-2.87,-2.87,-2.87,-2.87,-2.87,-2.8609,-2.7603,-2.7172,-2.7172,-2.7131,-2.709,-2.709,-2.709,-2.709,-2.6926,-2.601,-2.6302,-2.6761,-2.4956,-2.5041,-2.5613,-2.5178,-2.5039,-2.4965,-2.4415,-2.4302,-2.4117,-2.3242,-2.3691,-2.4368,-2.4387,-2.5103,-2.5817,-2.6316,-2.5982,-2.5965,-2.7016,-2.675,-2.7091,-2.9148,-2.8188,0.0,-2.8538,-2.7814,-2.7579,-2.8585,-2.7767,-2.7579,-2.8585,-2.6839,-2.5441,-2.4903,-2.3572,-2.261,-2.207,-2.1645,-2.1439,-2.1422,-2.1422,-2.1422,-2.1405,0.0,0.0,0.0,0.0,0.0,0.0,0.0,0.0,0.0,0.0,0.0,0.0,0.0,0.0,0.0,0.0,0.0,0.0,0.0,0.0,0.0,0.0,-2.6649,-2.7117,-2.661,-2.6579,-2.763,-2.7782,-2.792,-2.8264,-2.8287,-2.8287,-2.8287,-2.8287,-2.8287,-2.8287,-2.8425,-2.8494,-2.8494,-2.8632,-2.87,-2.87,-2.87,-2.87,-2.87,-2.87,-2.87,-2.87,-2.87,-2.87,-2.87,-2.87,-2.87,-2.87,-2.87,-2.87,-2.8591,-2.7607,-2.7037,-2.66,-2.5159,-2.4679,-2.4679,-2.4679,-2.4839,-2.4925,-2.3997,-2.3861,-2.3997,-2.3469,-2.3515,-2.3671,-2.3556,-2.399,-2.4467,-2.4355,-2.4788,-2.5326,-2.5418,-2.5637,-2.5904,-2.6323,-2.6026,-2.5754,-2.5873,-2.5218,-2.5169,-2.69,-2.7051,-2.7202,-2.7764,-2.7495,0.0,-2.7579,-2.7389,-2.7579,-2.8585,-2.7152,-2.6532,-2.7531,-2.5781,-2.448,-2.4134,-2.3746,-2.3295,-2.2748,-2.2644,-2.2304,-2.1833,-2.1833,-2.1696,0.0,0.0,0.0,0.0,0.0,0.0,0.0,0.0,0.0,0.0,0.0,0.0,0.0,0.0,0.0,0.0,0.0,0.0,0.0,0.0,0.0,0.0,-2.5517,-2.5647,-2.6432,-2.6836,-2.733,-2.8199,-2.8287,-2.8402,-2.8677,-2.87,-2.87,-2.87,-2.87,-2.87,-2.87,-2.9114,-2.9343,-2.9343,-2.9757,-2.9963,-2.9963,-2.9986,-2.9986,-2.9986,-2.9986,-2.9986,-2.9986,-2.9986,-2.9986,-2.9986,-2.9963,-2.9963,-2.9963,-2.9285,-2.906,0.0,0.0,0.0,0.0,0.0,-2.4546,-2.4546,-2.4546,-2.468,-2.4742,-2.3812,-2.3765,-2.3951,-2.313,-2.3177,-2.343,-2.3191,-2.356,-2.4003,-2.4193,-2.4658,-2.5122,-2.5425,-2.5484,-2.5563,-2.5895,-2.5489,-2.5069,-2.5069,-2.4578,0.0,-2.5712,-2.5954,-2.6244,-2.7084,-2.6484,-2.6099,-2.6532,-2.6196,-2.6292,-2.72,-2.5877,-2.5294,-2.6147,-2.4756,0.0,0.0,0.0,-2.3256,-2.2854,-2.2837,0.0,0.0,0.0,-2.2156,-2.1884,-2.1884,0.0,0.0,-2.1559,-2.1405,0.0,0.0,0.0,0.0,0.0,0.0,0.0,0.0,0.0,0.0,0.0,0.0,0.0,0.0,0.0,0.0,-2.4225,-2.3805,-2.5478,-2.7325,-2.8534,-2.8619,-2.8706,-2.8815,-2.8861,-2.8861,-2.8884,-2.8953,-2.8953,-2.8976,-2.9045,0.0,0.0,0.0,0.0,-3.1683,-3.1683,-3.1754,-3.1825,-3.1802,-3.1825,-3.1706,-3.1611,-3.1611,-3.1563,-3.1419,-3.1349,-3.1349,-3.1326,-2.9947,-2.9367,-2.9332,-2.8589,-2.7657,-2.6681,-2.5719,-2.5401,-2.5442,-2.5442,0.0,0.0,-2.4578,-2.4855,-2.5203,-2.3542,-2.3636,-2.4209,-2.3703,-2.3553,-2.3694,-2.411,-2.4202,-2.4202,-2.4202,-2.4202,-2.4202,-2.4202,-2.4202,-2.4202,-2.4202,-2.4202,-2.4202,-2.4202,-2.4202,-2.4824,-2.6559,-2.5343,-2.4548,-2.5411,-2.4726,-2.448,-2.5246,0.0,0.0,-2.4903,-2.3985,-2.3306,-2.3005,-2.2937,-2.2854,-2.2603,-2.2603,-2.2603,-2.2603,-2.2603,-2.2603,-2.2603,-2.2603,-2.2603,-2.2585,-2.185,-2.1542,0.0,0.0,0.0,0.0,0.0,0.0,0.0,0.0,0.0,0.0,0.0,0.0,0.0,0.0,0.0,-2.4579,-2.487,-2.5305,-2.5622,-2.6742,-2.7622,-2.8074,-2.8878,-2.9504,-2.9894,-2.9917,-3.0101,-3.0537,-3.056,-3.0744,-3.1204,-3.1364,-3.1503,-3.1503,-3.1639,-3.1754,-3.1754,-3.1802,-3.1754,-3.1731,0.0,0.0,-3.0436,-3.0436,-2.9949,-2.9063,-2.9042,-2.9063,-2.9042,-2.876,-2.8619,-2.8445,-2.6533,-2.5137,-2.4174,-2.3617,-2.3645,-2.3927,-2.3927,-2.4152,-2.4433,-2.4305,-2.4335,-2.4433,-2.4061,-2.4061,0.0,-2.4104,-2.4091,-2.411,-2.4183,-2.4202,-2.4202,-2.4202,-2.4202,-2.4202,-2.4202,-2.4202,-2.4202,-2.4202,-2.4202,-2.4202,-2.4202,-2.4202,-2.435,-2.4726,-2.443,-2.4251,-2.4498,-2.4301,-2.4597,-2.5489,-2.4529,-2.4183,-2.5148,-2.4084,-2.3306,-2.3005,-2.2804,-2.2653,-2.2603,-2.2603,-2.2603,-2.2603,-2.2603,-2.2603,-2.2603,-2.2603,-2.2603,-2.2585,-2.2448,-2.2379,0.0,0.0,0.0,0.0,0.0,0.0,0.0,0.0,0.0,0.0,0.0,-2.4706,0.0,0.0,-2.4775,-2.4301,-2.4646,-2.4971,-2.4971,-2.6006,-2.6982,-2.7518,-2.82,-2.8973,-2.9753,-3.0045,-3.0503,-3.1317,-3.1387,-3.1502,-3.1802,-3.2055,-3.2121,-3.2121,-3.1792,-3.195,-3.2512,-3.1999,-3.195,-3.2512,-3.195,-3.1384,-3.0865,-3.0242,-2.9686,-2.9147,-2.9147,-2.9147,-2.9075,-2.834,-2.7558,-2.6812,-2.5672,-2.5225,-2.5069,-2.4202,-2.3987,-2.4134,-2.3914,-2.3987,-2.4202,-2.4202,-2.4202,-2.4202,-2.4202,-2.4202,-2.4202,-2.4202,-2.4202,-2.4202,-2.4202,-2.4202,-2.4202,-2.4202,-2.4202,-2.4202,-2.4202,-2.4202,-2.4202,-2.4202,-2.4367,-2.4514,-2.4514,-2.4679,-2.4679,-2.4257,-2.4202,-2.4202,-2.4202,-2.4202,-2.435,-2.4726,-2.4035,-2.3737,-2.4115,-2.3438,-2.2955,-2.2804,-2.2703,-2.2603,-2.2603,-2.2603,-2.2603,-2.2603,-2.2603,-2.2603,-2.2603,-2.2603,-2.2603,-2.2603,-2.2603,-2.2603,0.0,0.0,0.0,0.0,0.0,0.0,0.0,0.0,-2.4202,-2.4202,-2.4257,-2.433,-2.433,-2.4385,-2.444,-2.444,-2.444,-2.444,-2.444,-2.5402,-2.6328,-2.6786,-2.7682,-2.8612,-2.9528,-3.0119,-3.0745,-3.1556,-3.1604,-3.1649,-3.174,-3.1909,-3.1964,-3.1964,-3.1519,-3.1688,-3.2645,-3.1739,-3.1739,-3.2645,-3.1688,-3.1154,-3.0897,-2.9964,-2.944,-2.925,-2.925,-2.925,-2.9157,-2.7924,-2.6721,-2.5601,-2.5601,-2.6106,-2.6685,-2.541,-2.4904,-2.4849,-2.4551,-2.444,-2.444,-2.444,-2.4385,-2.433,-2.433,-2.4257,-2.4202,-2.4202,-2.4202,-2.4202,-2.4202,-2.4257,-2.433,-2.433,-2.4385,-2.444,-2.444,-2.444,-2.444,-2.444,-2.4716,-2.4904,-2.4904,-2.5109,-2.5091,-2.4532,-2.444,-2.444,-2.444,-2.444,-2.434,-2.4021,-2.377,-2.3467,-2.3181,-2.2927,-2.2826,-2.2808,-2.2808,-2.2808,-2.2808,-2.2808,-2.2808,-2.2826,-2.2808,-2.2808,-2.2826,-2.2826,-2.2826,-2.2808,-2.2808,-2.274,-2.9389,-2.9711,-2.9534,-2.7551,-2.6981,-2.669,0.0,0.0,-2.4202,-2.4202,-2.4496,-2.4721,-2.4721,-2.4996,-2.5286,-2.5286,-2.5286,-2.5286,-2.5286,-2.5374,-2.553,-2.5596,-2.8093,-2.9911,-3.0008,-3.0967,-3.1434,-3.0954,-3.0899,-3.1124,-3.1614,-3.0687,-3.0213,-3.0213,-3.0151,-3.012,-3.0297,-3.012,-3.012,-3.0297,-3.012,-2.9545,-2.8595,-2.8436,-2.7868,-2.6954,-2.6954,-2.6954,-2.6954,-2.6808,-2.659,-2.6444,-2.6444,-2.6499,-2.6515,-2.5635,-2.5307,-2.5341,-2.5304,-2.5286,-2.5286,-2.5286,-2.4996,-2.4721,-2.4721,-2.4496,-2.4202,-2.4202,-2.4202,-2.4202,-2.4202,-2.4477,-2.4721,-2.4721,-2.5029,-2.5286,-2.5286,-2.5286,-2.5286,-2.5286,-2.5271,-2.5307,-2.5307,-2.5118,-2.5013,-2.5252,-2.5286,-2.5286,-2.5286,-2.5286,-2.513,-2.4801,-2.4541,-2.4175,-2.3668,-2.358,-2.3562,-2.3598,-2.3598,-2.3598,-2.3598,-2.3598,-2.3598,-2.358,-2.3598,-2.3598,-2.358,-2.358,-2.3562,-2.3598,-2.3598,-2.3238,-2.9848,-2.9602,-2.9002,0.0,-2.6954,-2.6398,-2.54,-2.5038,-2.4918,-2.4918,-2.5047,-2.5124,-2.5124,-2.5304,-2.5414,0.0,-2.5414,-2.5414,-2.5414,-2.5617,-2.5974,-2.6636,-2.8058,-2.8922,-2.8676,-2.9289,-2.9875,-3.024,-3.0261,-3.0397,-3.0587,-3.0172,-2.9932,-2.9932,-2.923,-2.923,-2.9859,-2.923,-2.923,-2.9859,-2.923,-2.8648,-2.8169,-2.7565,-2.6989,-2.6591,-2.6591,-2.6591,-2.6591,-2.6591,-2.6591,-2.6591,-2.6591,-2.6591,-2.6518,-2.5984,-2.5764,-2.5727,-2.5506,-2.5414,-2.5414,-2.5414,-2.5304,-2.5124,-2.5124,-2.5047,-2.4918,-2.4918,-2.4918,-2.4918,-2.4918,-2.5047,-2.5124,-2.5124,-2.5304,-2.5414,-2.5414,-2.5414,-2.5362,-2.5154,-2.5283,-2.5412,-2.5253,-2.5308,-2.5416,-2.5523,-2.5181,-2.4875,-2.4875,-2.4875,-2.477,-2.4456,-2.4351,-2.4088,-2.3735,-2.3682,-2.3682,-2.3718,-2.3718,-2.3718,-2.3718,-2.3718,-2.3682,-2.3699,-2.3699,-2.3682,-2.3682,-2.3682,-2.3682,-2.3718,-2.3718,-2.3546,-3.017,-2.9872,0.0,-2.8473,-2.7814,-2.7182,-2.6473,-2.6047,-2.5863,-2.5863,-2.5696,-2.558,-2.558,-2.5672,-2.5711,-2.5711,-2.5711,-2.5711,-2.5711,-2.6002,-2.6435,-2.7213,-2.7588,-2.7645,-2.7357,-2.8153,-2.886,-2.9387,-2.944,-2.944,-2.944,-2.9144,-2.8986,-2.8986,-2.8189,-2.8194,-2.9166,-2.8364,-2.8369,-2.9293,-2.8369,-2.7933,-2.7879,-2.6991,-2.6591,-2.6591,-2.6591,-2.6591,-2.6591,-2.6591,-2.6591,-2.6591,-2.6591,-2.6591,-2.6554,-2.6243,-2.6186,-2.6149,-2.5803,-2.5711,-2.5711,-2.5711,-2.5672,-2.558,-2.558,-2.5506,-2.5414,-2.5414,-2.5414,-2.5414,-2.5414,-2.5506,-2.558,-2.558,-2.5567,-2.5587,-2.5587,-2.5534,-2.5429,-2.5146,-2.5344,-2.5487,-2.5271,-2.5447,-2.5569,-2.5569,-2.4984,-2.4615,-2.4828,-2.4774,-2.4615,-2.4401,-2.4348,-2.4205,-2.4027,-2.3973,-2.3973,-2.3973,-2.3973,-2.3973,-2.3973,-2.3973,-2.399,-2.4008,-2.4008,-2.4008,-2.3973,-2.3973,-2.3973,-2.3973,-2.3973,-2.3973,-3.0354,0.0,-3.1546,-3.1018,-3.0488,-3.0095,-3.0046,-2.8445,-2.6934,-2.6934,-2.6423,-2.6002,-2.6002,-2.6279,-2.6554,-2.6554,-2.6554,-2.6554,-2.6554,-2.6554,-2.6573,-2.6627,-2.6627,-2.6627,0.0,-2.8562,-2.9387,-2.8329,-2.8223,-2.8223,-2.8223,-2.726,-2.67,-2.67,-2.67,-2.6829,-2.7271,-2.7271,-2.7455,-2.7842,-2.7455,-2.7215,-2.7197,-2.6756,-2.6591,-2.6591,-2.6591,-2.6591,-2.6591,-2.6591,-2.6591,-2.6591,-2.6591,-2.6591,-2.6591,-2.6573,-2.6573,-2.6573,-2.6554,-2.6554,-2.6554,-2.6554,-2.6279,-2.6002,-2.6002,-2.5727,-2.5414,-2.5414,-2.5414,-2.5414,-2.5414,-2.5708,-2.6002,-2.6002,-2.6027,-2.6082,-2.6082,-2.5863,-2.5698,-2.5698,-2.5716,-2.5661,-2.5661,-2.5441,-2.5221,-2.5221,-2.4944,-2.5,-2.5588,-2.5368,-2.5186,-2.5186,-2.4927,-2.4778,-2.4795,-2.4795,-2.4795,-2.4795,-2.4795,-2.4795,-2.4795,-2.4795,-2.4795,-2.4795,-2.4795,-2.4795,-2.4795,-2.4795,-2.4795,-2.4795,-2.4795,-2.4795,-3.1295,0.0,-3.0678,-3.05,-3.003,-2.9404,-2.8645,-2.8097,-2.7583,-2.688,-2.653,-2.6371,-2.6371,-2.6499,-2.6591,-2.6591,-2.6591,-2.6591,-2.6591,-2.6591,-2.6591,-2.6591,-2.6591,0.0,0.0,0.0,0.0,-2.7152,-2.7152,-2.7152,-2.7152,-2.7049,-2.6976,-2.6976,-2.7289,-2.7435,-2.762,-2.762,-2.7693,-2.7822,-2.7693,-2.762,-2.7601,-2.716,-2.6976,-2.6958,-2.6701,-2.6591,-2.6591,-2.6591,-2.6591,-2.6591,-2.6591,-2.6591,-2.6591,-2.6591,-2.6591,-2.6591,-2.6591,-2.6591,-2.6591,-2.6591,-2.6499,-2.6371,-2.6371,-2.6279,-2.6188,-2.6188,-2.6188,-2.6188,-2.6188,-2.6099,-2.6082,-2.6082,-2.5973,-2.5844,-2.5844,-2.5734,-2.5624,-2.5404,-2.5386,-2.5293,-2.5145,-2.5034,-2.4923,-2.4923,-2.4868,-2.4868,-2.509,-2.4979,-2.4923,-2.4923,-2.4868,-2.4812,-2.4812,-2.4812,-2.4812,-2.4812,-2.4812,-2.4812,-2.4812,-2.4812,-2.4812,-2.4812,-2.4812,-2.4812,-2.4812,-2.4812,-2.4812,-2.4812,-2.4812,-2.4812,-3.1871,-3.1573,-3.1238,-3.106,-3.0556,-2.9917,-2.9219,-2.8608,-2.8009,-2.7295,-2.6845,-2.6591,-2.6591,-2.6591,-2.6591,-2.6591,-2.6591,-2.6591,-2.6591,-2.6591,-2.6591,-2.6591,-2.6591,-2.6591,0.0,0.0,0.0,-2.6591,-2.6719,-2.6793,-2.6793,-2.7178,-2.738,-2.738,-2.7693,-2.7895,-2.7985,-2.7985,-2.7985,-2.7985,-2.7985,-2.7911,-2.7803,-2.7508,-2.738,-2.7361,-2.6976,-2.6793,-2.6793,-2.6646,-2.6591,-2.6591,-2.6591,-2.6591,-2.6591,-2.6591,-2.6591,-2.6591,-2.6591,-2.6591,-2.6591,-2.6591,-2.6591,-2.6591,-2.6591,-2.6591,-2.6591,-2.6482,-2.6409,-2.6409,-2.63,-2.6136,-2.5953,-2.5953,-2.5734,-2.5514,-2.5514,-2.5459,-2.5293,-2.5072,-2.5072,-2.5017,-2.4812,-2.4812,-2.4812,-2.4812,-2.4812,-2.4812,-2.4812,-2.4812,-2.4812,-2.4812,-2.4812,-2.4812,-2.4812,-2.4812,-2.4812,-2.4812,-2.4812,-2.4812,-2.4812,-2.4812,-2.4812,-2.4812,-2.4812,-2.4812,-2.4812,-2.4812,-2.4812,-2.4812,-2.4812,-2.4812,-3.2009,-3.2558,-3.3155,-3.265,-3.2062,-3.1586,-3.1534,-2.9786,-2.8169,-2.8116,-2.7295,-2.6591,0.0,0.0,-2.6591,-2.6591,-2.6591,-2.6591,-2.6591,-2.6591,-2.6591,0.0,0.0,0.0,0.0,0.0,0.0,-2.6628,0.0,-2.7196,-2.7196,-2.7581,-2.7858,-2.7858,-2.7877,-2.8022,-2.8425,-2.8425,-2.8425,-2.8425,-2.8425,-2.8223,-2.7877,-2.7858,-2.7858,-2.784,-2.7436,-2.7215,-2.7178,-2.6774,-2.6628,-2.6609,-2.6591,-2.6591,-2.6591,-2.6591,-2.6591,-2.6591,-2.6591,-2.6591,-2.6591,-2.6591,-2.6591,-2.6591,-2.6591,-2.6591,-2.6537,-2.619,-2.6063,-2.6008,-2.5789,-2.5679,-2.5679,-2.5679,-2.5404,-2.5165,-2.5165,-2.4979,-2.4812,-2.4812,-2.4812,-2.4812,-2.4812,-2.4812,-2.4812,-2.4812,-2.4812,-2.4812,-2.4812,-2.4812,-2.4812,-2.4812,-2.4812,-2.4812,-2.4812,-2.4812,-2.4812,-2.4812,-2.4812,-2.4812,-2.4812,-2.4812,-2.4812,-2.4812,-2.4812,-2.4812,-2.4812,-2.4812,-2.4812,-2.4812,-2.4812,-2.4812,-3.2925,-3.3086,-3.3247,-3.3109,-3.2331,-3.1359,-3.0535,-2.923,-2.7975,-2.7152,-2.6791,-2.6591,0.0,0.0,0.0,-2.6591,-2.6591,0.0,-2.6591,-2.6591,0.0,-2.6591,0.0,-2.6591,-2.6591,-2.6848,0.0,0.0,-2.7123,-2.7306,-2.7656,-2.8003,-2.8242,-2.8242,-2.8517,-2.8718,-2.8828,-2.8828,-2.8828,-2.8828,-2.8828,-2.8773,-2.8663,-2.837,-2.8242,-2.8205,-2.7801,-2.7675,-2.7638,-2.7196,-2.7031,-2.6995,-2.6701,-2.6591,-2.6591,-2.6591,-2.6591,-2.6591,-2.6591,-2.6591,-2.6591,-2.6591,-2.6591,-2.6591,-2.6591,-2.6409,-2.619,-2.6118,-2.5953,-2.5789,-2.5734,-2.5514,-2.5331,-2.5331,-2.5128,-2.4923,-2.4923,-2.4868,-2.4812,-2.4812,-2.4812,-2.4812,-2.4812,-2.4812,-2.4812,-2.4812,-2.4812,-2.4812,-2.4812,-2.4812,-2.4812,-2.4812,-2.4812,-2.4812,-2.4812,-2.4812,-2.4812,-2.4812,-2.4812,-2.4812,-2.4812,-2.4812,-2.4812,-2.4812,-2.4812,-2.4812,-2.4812,-2.4812,-2.4812,-2.4812,-2.4812,-2.4812,-3.2544,-3.2919,-3.3069,-3.2066,-3.133,-3.0535,-2.9387,-2.8295,-2.7314,-2.6736,-2.6591,0.0,-2.6591,-2.6591,0.0,0.0,0.0,0.0,-2.6591,-2.6591,-2.6591,0.0,-2.6591,0.0,-2.6591,-2.694,-2.7251,0.0,-2.76,-2.7801,-2.8022,-2.8425,-2.8645,-2.8645,-2.8865,-2.8975,-2.8975,-2.8975,-2.8975,-2.8975,-2.8975,-2.8975,-2.8975,-2.8755,-2.8645,-2.8627,-2.8223,-2.804,-2.8003,-2.76,-2.7325,-2.716,-2.694,-2.6738,-2.6591,-2.6591,-2.6591,-2.6591,-2.6591,-2.6482,-2.6409,-2.6537,-2.6482,-2.6354,-2.6354,-2.619,-2.5898,-2.5734,-2.5624,-2.5459,-2.5366,-2.52,-2.5017,-2.5017,-2.4923,-2.4812,-2.4812,-2.4812,-2.4812,-2.4812,-2.4812,-2.4812,-2.4812,-2.4812,-2.4812,-2.4812,-2.4812,-2.4812,-2.4812,-2.4812,-2.4812,-2.4812,-2.4812,-2.4812,-2.4812,-2.4812,-2.4812,-2.4812,-2.4812,-2.4812,-2.4812,-2.4812,-2.4812,-2.4812,-2.4812,-2.4812,-2.4812,-2.4812,-2.4812,-2.483,-2.4984,-2.5052,-3.1381,-3.2117,-3.2392,-3.0401,-2.9775,-2.9387,-2.8436,-2.7349,-2.6591,-2.6591,0.0,-2.6591,-2.6591,-2.6591,-2.6591,-2.6591,0.0,-2.6591,-2.6591,-2.6591,-2.6591,-2.6591,-2.6591,-2.6609,-2.6664,-2.7013,-2.7416,-2.7877,-2.8242,-2.848,-2.848,-2.8792,-2.8975,-2.8975,-2.8975,-2.8975,-2.8975,-2.8975,-2.8975,-2.8975,-2.8975,-2.8975,-2.8975,-2.8975,-2.8975,-2.8957,-2.8627,-2.848,-2.8443,-2.8022,-2.7636,-2.7325,-2.727,-2.705,-2.6738,-2.6683,-2.6664,-2.6664,-2.6609,-2.6354,-2.6136,-2.6409,-2.63,-2.6081,-2.6081,-2.5844,-2.5569,-2.5276,-2.5165,-2.5072,-2.4868,-2.4812,-2.4812,-2.4812,-2.4812,-2.4812,-2.4812,-2.4812,-2.4812,-2.4812,-2.4812,-2.4812,-2.4812,-2.4812,-2.4812,-2.4812,-2.4812,-2.4812,-2.4812,-2.4812,-2.4812,-2.4812,-2.4812,-2.4812,-2.4812,-2.4812,-2.4812,-2.4812,-2.4812,-2.4812,-2.4812,-2.4812,-2.4847,-2.4898,-2.4898,-2.4915,-2.4967,-2.4967,-2.4967,-2.4984,-2.5292,-2.5446,-3.0172,-3.0328,-3.0401,-2.9984,-2.9177,-2.8436,-2.8223,-2.7349,0.0,0.0,-2.6591,-2.6591,-2.6591,-2.6591,-2.6591,-2.6591,-2.6591,-2.6591,-2.6591,-2.6591,-2.6591,0.0,-2.6591,-2.6719,-2.705,-2.7435,0.0,0.0,-2.8663,-2.8883,-2.8883,-2.8938,-2.8975,-2.8975,-2.8975,-2.8975,-2.8975,-2.8975,-2.8975,-2.8975,-2.8975,-2.8975,-2.8975,-2.8975,-2.8975,-2.8975,-2.8902,0.0,-2.8847,-2.8443,-2.8242,-2.815,-2.7858,-2.7675,-2.7583,-2.7196,-2.7068,-2.7031,-2.6701,-2.6354,-2.6136,-2.619,-2.6026,-2.5789,-2.5789,-2.5569,-2.5276,-2.5221,-2.5017,-2.4868,-2.4812,-2.4812,-2.4812,-2.4812,-2.4812,-2.4812,-2.4812,-2.4812,-2.4812,-2.4812,-2.4812,-2.4812,-2.4812,-2.4812,-2.4812,-2.4812,-2.4812,-2.4812,-2.4812,-2.4812,-2.4812,-2.4812,-2.4812,-2.4812,-2.4812,-2.4812,-2.4812,-2.4812,-2.4812,-2.4812,-2.4812,-2.4812,-2.4967,-2.5275,-2.5275,-2.5429,-2.568,-2.568,-2.568,-2.568,-2.5806,-2.584,-2.9019,-2.944,-2.9618,-2.8475,-2.8189,-2.8062,-2.7511,0.0,0.0,0.0,-2.6591,-2.6591,-2.6591,-2.6591,0.0,-2.6591,-2.6591,-2.6591,-2.6591,-2.6591,0.0,-2.6591,-2.6591,-2.6738,0.0,-2.7526,-2.8005,-2.837,-2.8755,-2.8975,-2.8975,-2.8975,-2.8975,-2.8975,-2.8975,-2.8975,-2.8975,-2.8975,-2.8975,-2.8975,-2.8975,-2.8975,-2.8975,-2.8975,-2.8975,-2.8975,-2.8975,-2.8975,-2.8975,-2.8773,-2.8513,-2.8137,-2.7919,-2.7604,-2.729,-2.7035,-2.6963,-2.6945,-2.6765,-2.6524,-2.6225,-2.6225,-2.5904,-2.5459,-2.5459,-2.5238,-2.4962,-2.4962,-2.4923,-2.4812,-2.4812,-2.4812,-2.4812,-2.4812,-2.4812,-2.4812,-2.4812,-2.4812,-2.4812,-2.4812,-2.4812,-2.4812,-2.4812,-2.4812,-2.4812,-2.4812,-2.4812,-2.4812,-2.4812,-2.4984,-2.5035,-2.4847,-2.4812,-2.4812,-2.4812,-2.5001,-2.5104,-2.5104,-2.5292,-2.5338,-2.5338,-2.5338,-2.548,-2.5669,-2.5669,-2.5754,-2.5885,-2.5885,-2.5885,-2.5885,-2.6131,-2.6217,-2.7868,-2.8509,-2.8774,-2.7008,-2.726,-2.7672,-2.6791,-2.6591,0.0,0.0,-2.6591,-2.6591,-2.6591,-2.6591,-2.6591,0.0,-2.6591,-2.6591,-2.6591,-2.6591,-2.6591,0.0,0.0,0.0,-2.7251,-2.7581,0.0,-2.848,-2.881,-2.8975,-2.8975,-2.8975,-2.8975,-2.8975,-2.8975,-2.8975,-2.8975,-2.8975,-2.8975,-2.8975,-2.8975,-2.8975,-2.8975,-2.8975,-2.8975,-2.8975,-2.8975,-2.8975,-2.8856,-2.8856,-2.8496,-2.7912,-2.7912,-2.7539,-2.7022,-2.6951,-2.6916,-2.6898,-2.6809,-2.6619,-2.6388,-2.6388,-2.5861,-2.5232,-2.5232,-2.503,-2.4812,-2.4812,-2.4812,-2.4812,-2.4812,-2.4812,-2.4812,-2.4812,-2.4812,-2.4812,-2.4812,-2.4812,-2.4812,-2.4812,-2.4812,-2.4812,-2.4812,-2.4812,-2.4847,-2.4932,-2.4932,-2.4967,-2.5052,-2.5082,-2.4963,-2.4637,-2.4884,-2.5052,-2.5052,-2.5326,-2.5497,-2.5497,-2.5771,-2.5885,-2.5885,-2.5885,-2.5802,-2.5578,-2.5578,-2.5495,-2.5284,-2.5284,-2.5284,-2.5284,-2.5625,-2.5758,-2.6736,-2.6791,-2.6845,-2.6646,-2.67,-2.6755,-2.6646,0.0,0.0,-2.6591,-2.6591,-2.6591,-2.6591,-2.6591,-2.6591,-2.6591,0.0,-2.6591,-2.6591,-2.6591,-2.6591,0.0,0.0,0.0,-2.7693,-2.7803,-2.8152,-2.8865,-2.8957,-2.8975,-2.8975,-2.8975,-2.8975,-2.8975,-2.8975,-2.8975,-2.8975,-2.8975,-2.8975,-2.8975,-2.8975,-2.8975,-2.8975,-2.8975,-2.8975,-2.8975,-2.8975,-2.8815,0.0,-2.8576,-2.8301,-2.7966,-2.7966,-2.7949,-2.7878,-2.7464,-2.734,-2.7287,-2.6916,-2.6619,-2.6388,-2.6406,-2.5955,-2.5366,-2.5366,-2.5086,-2.4812,-2.4812,-2.4812,-2.4812,-2.4812,-2.4812,-2.4812,-2.4812,-2.4812,-2.4812,-2.4812,-2.4812,-2.4812,-2.4812,-2.4812,-2.4812,-2.4812,-2.4812,-2.4932,-2.5275,-2.5326,-2.5446,-2.5731,-2.4795,-2.4018,-2.3986,-2.5053,-2.5782,-2.5782,-2.5816,-2.5833,-2.5833,-2.5867,-2.5885,-2.5885,-2.5885,-2.5495,-2.4663,-2.4603,-2.4219,-2.336,-2.336,-2.336,-2.336,-2.339,-2.3405,-2.6591,-2.6591,-2.6591,-2.6591,-2.6591,-2.6591,-2.6591,0.0,-2.6591,-2.6591,-2.6591,-2.6591,-2.6591,-2.6591,-2.6591,0.0,0.0,0.0,-2.6591,0.0,-2.6591,-2.6591,-2.6591,0.0,0.0,0.0,-2.8095,-2.892,-2.8975,-2.8975,-2.8975,-2.8975,-2.8975,-2.8975,-2.8975,-2.8975,-2.8975,-2.8975,-2.8975,-2.8975,-2.8975,-2.8975,-2.8975,-2.8815,-2.8696,-2.8696,-2.8498,-2.8319,0.0,-2.8199,-2.802,-2.7702,-2.7702,-2.7599,-2.7418,-2.7262,-2.721,-2.7193,-2.7019,-2.6908,-2.6789,-2.6806,-2.6489,-2.5994,-2.5771,-2.5617,-2.544,-2.544,-2.544,-2.5446,-2.5206,-2.4984,-2.4812,-2.4812,-2.4812,-2.4812,-2.4812,-2.4812,-2.459,-2.3848,-2.3844,-2.3707,-2.2949,-2.2948,-2.3119,-2.3259,-2.3274,-2.3321,-2.3461,-2.323,-2.3052,-2.3052,-2.3303,-2.3476,-2.3476,-2.3722,-2.3847,-2.3847,-2.411,-2.4219,-2.4219,-2.4219,-2.4038,-2.3672,-2.3672,-2.3501,-2.3076,-2.3076,-2.3076,-2.3076,-2.3076,-2.3076,-2.6591,-2.6591,-2.6591,-2.6591,-2.6591,-2.6591,0.0,0.0,-2.6591,-2.6591,-2.6591,-2.6591,-2.6591,-2.6591,-2.6591,0.0,0.0,-2.6591,-2.6591,-2.6591,-2.6591,0.0,0.0,-2.7031,0.0,-2.8042,-2.837,-2.8938,-2.8975,-2.8975,-2.8975,-2.8975,-2.8975,-2.8975,-2.8975,-2.8975,-2.8975,-2.8975,-2.8934,-2.8874,-2.8874,-2.8815,-2.8677,-2.8457,-2.8337,-2.8337,-2.808,-2.796,0.0,-2.784,-2.7659,-2.7401,-2.7401,-2.7237,-2.7073,-2.7073,-2.683,-2.651,-2.651,-2.6266,-2.5945,-2.5945,-2.5704,-2.5441,-2.5136,-2.5453,-2.5693,-2.4919,-2.4743,-2.4678,-2.4433,-2.4473,-2.4461,-2.4048,-2.4275,-2.4461,-2.4048,-2.3934,-2.3691,-2.2819,-2.2833,-2.2653,-2.1774,-2.1772,-2.196,-2.2047,-2.2062,-2.2105,-2.2253,-2.2151,-2.211,-2.211,-2.1497,-2.1371,-2.2207,-2.2532,-2.2664,-2.2664,-2.2945,-2.3076,-2.3076,-2.3076,-2.2889,-2.2514,-2.2514,-2.2327,-2.195,-2.195,-2.195,-2.195,-2.195,-2.195,-2.6591,-2.6591,-2.6591,-2.6591,-2.6591,-2.6591,0.0,0.0,-2.6591,-2.6591,-2.6591,-2.6591,-2.6591,-2.6591,-2.6591,-2.6591,0.0,0.0,-2.6591,-2.6591,-2.6591,0.0,0.0,-2.7325,-2.7785,-2.8498,-2.8975,-2.8975,-2.8975,0.0,-2.8975,-2.8975,-2.8975,-2.8975,-2.8975,-2.8975,-2.8975,-2.8975,-2.8815,-2.8517,-2.8517,-2.8337,-2.802,-2.802,-2.802,-2.802,-2.802,-2.784,0.0,-2.7521,-2.7358,-2.7073,-2.7073,-2.7073,-2.7073,-2.7073,-2.6266,-2.5133,-2.5133,-2.4255,-2.3139,-2.3139,-2.3139,-2.3124,-2.3124,-2.4458,-2.5344,-2.2706,-2.1931,-2.1931,-2.1917,-2.2928,-2.3595,-2.2275,-2.2928,-2.3535,-2.2215,-2.1917,-2.1917,-2.1917,-2.1917,-2.1917,-2.1931,-2.1931,-2.2033,-2.2399,-2.2503,-2.2635,-2.3018,-2.195,-2.1132,-2.1132,-1.9941,-2.0195,-2.2875,-2.3062,-2.3076,-2.3076,-2.3076,-2.3076,-2.3076,-2.3076,-2.2452,-2.1145,-2.1145,-2.0449,-1.9136,-1.9136,-1.9136,-1.9136,-1.9136,-1.9136,-2.6591,-2.6591,-2.6591,-2.6591,-2.6591,-2.6591,-2.6591,-2.6591,-2.6591,-2.6591,-2.6591,-2.6591,-2.6591,-2.6591,-2.6591,-2.6591,-2.6591,0.0,0.0,0.0,0.0,-2.6591,-2.7178,-2.7746,0.0,0.0,-2.8934,-2.8696,-2.8636,-2.8576,-2.8319,-2.8319,-2.8439,-2.8636,-2.8636,-2.8576,-2.8319,-2.8319,-2.8259,-2.814,-2.814,-2.808,-2.802,-2.7762,-2.7642,-2.7642,-2.7478,-2.7315,-2.7254,-2.7254,-2.6631,-2.5762,-2.5762,-2.5194,-2.4379,-2.4379,-2.407,-2.376,-2.376,-2.345,-2.3076,-2.3076,-2.3076,-2.2952,-2.2013,-2.2806,-2.381,-2.2953,-2.2547,-2.2297,-2.2297,-2.2452,-2.2409,-2.1991,-2.223,-2.2409,-2.1991,-2.1931,-2.1692,-2.0851,-2.0835,-2.0665,-1.983,-1.9874,-2.0028,-2.0181,-2.0194,-2.0219,-2.0373,-2.0017,-1.9699,-1.9699,-1.9328,-1.9456,-2.0259,-2.0386,-2.0386,-2.0386,-2.0386,-2.0386,-2.0386,-2.0386,-2.0144,-1.9763,-1.9699,-1.9507,-1.9072,-1.9072,-1.9072,-1.9072,-1.9072,-1.9072,0.0,-2.6537,-2.6409,-2.6591,-2.6482,-2.6409,-2.6591,-2.6591,-2.6591,-2.6591,-2.6591,-2.6537,-2.6409,-2.6409,-2.6409,-2.6409,-2.6409,-2.6409,0.0,0.0,0.0,-2.6662,0.0,0.0,0.0,-2.8473,-2.8558,-2.8337,-2.8337,-2.8199,-2.802,-2.802,-2.802,-2.814,-2.8277,-2.8217,-2.802,-2.802,-2.796,-2.784,-2.784,-2.7779,-2.7659,-2.7418,-2.7358,-2.7358,-2.7194,-2.7073,0.0,-2.6571,-2.5823,-2.5071,-2.4564,-2.3822,-2.3076,-2.3076,-2.2764,-2.2327,-2.2327,-2.2013,-2.1573,-2.1573,-2.1573,-2.1447,-2.0576,-2.0956,-2.1699,-2.2201,-2.1811,-2.1224,-2.1224,-2.1396,-2.1502,-2.0951,-2.1257,-2.1441,-2.0951,-2.0828,-2.0644,-1.9856,-1.9874,-1.9751,-1.8957,-1.8963,-1.9072,-1.9072,-1.9072,-1.9072,-1.9072,-1.9072,-1.9072,-1.9072,-1.9072,-1.9072,-1.9072,-1.9072,-1.9072,-1.9072,-1.9072,-1.9072,-1.9072,-1.9072,-1.9072,-1.9072,-1.9072,-1.9072,-1.9072,-1.9072,-1.9072,-1.9072,-1.9072,-1.9072,0.0,-2.63,0.0,-2.6482,-2.63,-2.6136,-2.6482,-2.6537,0.0,-2.6591,-2.6591,-2.6482,-2.619,-2.6118,-2.6063,-2.6063,-2.6063,-2.6063,0.0,-2.6063,0.0,0.0,-2.6924,0.0,-2.7949,-2.802,-2.802,-2.796,-2.796,-2.796,-2.796,-2.796,-2.7779,-2.7461,-2.7779,-2.796,-2.796,-2.796,-2.7779,-2.7461,-2.7461,-2.7297,-2.6952,-2.6952,-2.6891,0.0,-2.683,-2.683,-2.6692,-2.5439,-2.4887,-2.4702,-2.345,-2.2889,-2.2827,-2.2827,-2.2013,-2.0956,-2.0956,-2.0144,-1.9072,-1.9072,-1.9072,-1.9072,-1.9072,-1.9072,-1.9392,-2.0639,-2.0081,-1.9072,-1.9072,-2.0017,-2.0639,-1.9392,-2.0081,-2.0639,-1.9392,-1.9072,-1.9072,-1.9072,-1.9072,-1.9072,-1.9072,-1.9072,-1.9072,-1.9072,-1.9072,-1.9072,-1.9072,-1.9072,-1.9072,-1.9072,-1.9072,-1.9072,-1.9072,-1.9072,-1.9072,-1.9072,-1.9072,-1.9072,-1.9072,-1.9072,-1.9072,-1.9072,-1.9072,-1.9072,-1.9072,-1.9072,-1.9072,-1.9072,-1.9072,-1.9072,-2.5789,0.0,-2.5844,-2.6136,-2.6008,-2.5789,0.0,-2.6081,-2.6245,-2.6245,-2.6409,-2.6482,-2.619,-2.6118,-2.6008,-2.5844,-2.5789,-2.5789,-2.5789,-2.5789,0.0,-2.6818,-2.6924,-2.7168,-2.7949,-2.802,-2.79,-2.7642,-2.7642,-2.7539,-2.7315,-2.7315,-2.7254,-2.7194,-2.7254,-2.7315,-2.7315,-2.7315,-2.7254,-2.7194,-2.7194,-2.6631,-2.5578,-2.5578,-2.501,-2.407,-2.407,-2.407,-2.4008,-2.3698,-2.2952,-2.2013,-2.1699,-2.0956,-2.0017,-2.0017,-1.9826,-1.9571,-1.9571,-1.9392,-1.9072,-1.9072,-1.9072,-1.9072,-1.9072,-1.9072,-1.92,-1.9456,-1.9328,-1.9072,-1.9072,-1.9328,-1.9507,-1.92,-1.9328,-1.9456,-1.92,-1.9072,-1.9072,-1.9072,-1.9072,-1.9072,-1.9072,-1.9072,-1.9072,-1.9072,-1.9072,-1.9072,-1.9072,-1.9072,-1.9072,-1.9072,-1.9072,-1.9072,-1.9072,-1.9072,-1.9072,-1.9072,-1.9072,-1.9072,-1.9072,-1.9072,-1.9072,-1.9072,-1.9072,-1.9072,-1.9072,-1.9072,-1.9072,-1.9072,-1.9072,-1.9072,-2.5238,-2.5459,-2.5569,-2.5844,-2.5679,-2.5514,-2.5679,-2.5789,-2.5898,-2.5898,0.0,-2.6081,-2.5734,-2.5679,-2.5624,-2.5514,-2.5459,-2.5459,0.0,0.0,-2.5782,-2.6394,-2.6603,-2.6953,0.0,-2.7599,-2.7478,-2.7358,-2.6736,-2.6614,-2.7073,-2.651,-2.6449,-2.7073,-2.7073,-2.7073,-2.7073,-2.7073,-2.6753,-2.6205,-2.6205,-2.5517,-2.4193,-2.4193,-2.376,-2.3076,-2.3076,-2.3076,-2.3076,-2.2452,-2.1762,-2.1019,-2.0386,-1.9763,-1.9072,-1.9072,-1.9072,-1.9072,-1.9072,-1.9072,-1.9072,-1.9072,-1.9072,-1.9072,-1.9072,-1.9072,-1.9072,-1.9072,-1.9072,-1.9072,-1.9072,-1.9072,-1.9072,-1.9072,-1.9072,-1.9072,-1.9072,-1.9072,-1.9072,-1.9072,-1.9072,-1.9072,-1.9072,-1.9072,-1.9072,-1.9072,-1.9072,-1.9072,-1.9072,-1.9072,-1.9072,-1.9072,-1.9072,-1.9072,-1.9072,-1.9072,-1.9072,-1.9072,-1.9072,-1.9072,-1.9072,-1.9072,-1.9072,-1.9072,-1.9072,-1.9072,-1.9072,-1.9072,-1.9072,-1.9072,-1.9072,-1.9072,-2.4261,-2.4595,-2.4761,-2.5459,-2.5404,-2.5238,-2.5514,0.0,0.0,0.0,0.0,0.0,0.0,-2.5221,0.0,0.0,0.0,0.0,-2.5128,-2.5289,-2.5515,-2.5833,-2.6268,0.0,-2.6779,-2.6753,-2.6692,-2.651,-2.5456,-2.5317,-2.6449,-2.5378,-2.5317,-2.6449,-2.651,-2.651,-2.651,-2.6692,-2.6128,-2.4826,-2.4826,-2.407,-2.2764,-2.2764,-2.2702,-2.2514,0.0,0.0,-2.2389,-2.1258,-2.0766,-2.0703,-1.9507,-1.9072,-1.9072,-1.9072,-1.9072,-1.9072,-1.9072,-1.9072,-1.9072,-1.9072,-1.9072,-1.9072,-1.9072,-1.9072,-1.9072,-1.9072,-1.9072,-1.9072,-1.9072,-1.9072,-1.9072,-1.9072,-1.9072,-1.9072,-1.9072,-1.9072,-1.9072,-1.9072,-1.9072,-1.9072,-1.9072,-1.9072,-1.9072,-1.9072,-1.9072,-1.9072,-1.9072,-1.9072,-1.9072,-1.9072,-1.9072,-1.9072,-1.9072,-1.9072,-1.9072,-1.9072,-1.9072,-1.9072,-1.9072,-1.9072,-1.9072,-1.9072,-1.9072,-1.9072,-1.9072,-1.9072,-1.9072,-1.9072,-1.9072,-1.9072,-2.1699,-2.1756,-2.2322,-2.465,-2.5072,-2.4868,-2.4923,-2.5128,0.0,0.0,0.0,0.0,0.0,-2.5221,-2.5128,0.0,0.0,-2.4868,0.0,0.0,-2.5515,-2.5833,0.0,-2.621,-2.5468,-2.5378,-2.4949,-2.3822,-2.3512,-2.3512,-2.3698,-2.3512,-2.3512,-2.3698,-2.3698,-2.3698,-2.3698,-2.4826,-2.4764,-2.3387,-2.3387,-2.2702,-2.1384,-2.1384,-2.0766,-1.9699,0.0,-1.9699,-1.9699,-1.9507,-1.9392,-1.9392,-1.92,-1.9072,-1.9072,-1.9072,-1.9072,-1.9072,-1.9072,-1.9072,-1.9072,-1.9072,-1.9072,-1.9072,-1.9072,-1.9072,-1.9072,-1.9072,-1.9072,-1.9072,-1.9072,-1.9072,-1.9072,-1.9072,-1.9072,-1.9072,-1.9072,-1.9072,-1.9072,-1.9072,-1.9072,-1.9072,-1.9072,-1.9072,-1.9072,-1.9072,-1.9072,-1.9072,-1.9072,-1.9072,-1.9072,-1.9072,-1.9072,-1.9072,-1.9072,-1.9072,-1.9072,-1.9072,-1.9072,-1.9072,-1.9072,-1.9072,-1.9072,-1.9072,-1.9072,-1.9072,-1.9072,-1.9072,-1.9072,-1.9072,-1.9072,-1.9072,-2.0902,-2.113,-2.1415,-2.2661,-2.3424,-2.3664,-2.2974,-2.3424,-2.3815,0.0,0.0,0.0,0.0,0.0,-2.2942,-2.2789,0.0,-2.3617,-2.3073,-2.3389,-2.372,0.0,0.0,-2.4515,-2.4054,-2.4008,-2.376,-2.3139,-2.2452,-2.2327,-2.3076,-2.2389,-2.2327,-2.3076,-2.3076,-2.2764,-2.2013,-2.264,-2.264,-2.2013,-2.2013,-2.1321,-2.0017,-2.0017,-1.9699,-1.9072,0.0,-1.9072,-1.9072,-1.9072,-1.9072,-1.9072,-1.9072,-1.9072,-1.9072,-1.9072,-1.9072,-1.9072,-1.9072,-1.9072,-1.9072,-1.9072,-1.9072,-1.9072,-1.9072,-1.9072,-1.9072,-1.9072,-1.9072,-1.9072,-1.9072,-1.9072,-1.9072,-1.9072,-1.9072,-1.9072,-1.9072,-1.9072,-1.9072,-1.9072,-1.9072,-1.9072,-1.9072,-1.9072,-1.9072,-1.9072,-1.9072,-1.9072,-1.9072,-1.9072,-1.9072,-1.9072,-1.9072,-1.9072,-1.9072,-1.9072,-1.9072,-1.9072,-1.9072,-1.9072,-1.9072,-1.9072,-1.9072,-1.9072,-1.9072,-1.9072,-1.9072,-1.9072,-1.9072,-1.9072,-1.9072,-1.9072,-1.9998,-2.0272,-2.0272,-2.0272,-2.1415,-2.2281,-2.1301,-2.187,-2.2281,0.0,0.0,0.0,0.0,-2.113,0.0,-2.113,-2.1941,-2.2291,-2.1584,-2.1846,-2.2213,-2.2474,-2.2871,-2.2952,-2.264,-2.264,-2.2514,-2.2201,-2.1209,-2.1082,-2.2139,-2.1195,-2.1082,-2.2139,-2.2139,-2.1699,-2.0639,-2.0639,-2.0639,-2.0639,-2.0639,-2.0081,-1.9072,-1.9072,-1.9072,-1.9072,-1.9072,-1.9072,-1.9072,-1.9072,-1.9072,-1.9072,-1.9072,-1.9072,-1.9072,-1.9072,-1.9072,-1.9072,-1.9072,-1.9072,-1.9072,-1.9072,-1.9072,-1.9072,-1.9072,-1.9072,-1.9072,-1.9072,-1.9072,-1.9072,-1.9072,-1.9072,-1.9072,-1.9072,-1.9072,-1.9072,-1.9072,-1.9072,-1.9072,-1.9072,-1.9072,-1.9072,-1.9072,-1.9072,-1.9072,-1.9072,-1.9072,-1.9072,-1.9072,-1.9072,-1.9072,-1.9072,-1.9072,-1.9072,-1.9072,-1.9072,-1.9072,-1.9072,-1.9072,-1.9072,-1.9072,-1.9072,-1.9072,-1.9072,-1.9072,-1.9072,-1.9072,-1.9072,-1.9072,-1.9072,-1.9072,-1.9108,-1.7713,-1.7772,-1.7772,-1.7772,-1.9537,-2.1187,-2.113,-2.1187,-2.1187,-2.113,0.0,0.0,0.0,-2.113,-2.113,-2.113,-2.1187,-2.1305,-2.1467,0.0,-2.2213,-2.2474,-2.2871,-2.264,-2.1384,-2.1258,-2.0703,-1.9456,-1.9328,-1.9264,-1.9392,-1.9328,-1.9264,-1.9392,-1.9392,-1.9328,-1.9264,-1.9264,-1.9264,-1.9264,-1.9264,-1.92,-1.9072,-1.9072,-1.9072,-1.9072,-1.9072,-1.9072,-1.9072,-1.9072,-1.9072,-1.9072,-1.9072,-1.9072,-1.9072,-1.9072,-1.9072,-1.9072,-1.9072,-1.9072,-1.9072,-1.9072,-1.9072,-1.9072,-1.9072,-1.9072,-1.9072,-1.9072,-1.9072,-1.9072,-1.9072,-1.9072,-1.9072,-1.9072,-1.9072,-1.9072,-1.9072,-1.9072,-1.9072,-1.9072,-1.9072,-1.9072,-1.9072,-1.9072,-1.9072,-1.9072,-1.9072,-1.9072,-1.9072,-1.9072,-1.9072,-1.9072,-1.9072,-1.9072,-1.9072,-1.9072,-1.9072,-1.9072,-1.9072,-1.9072,-1.9072,-1.9072,-1.9072,-1.9072,-1.9072,-1.9072,-1.9072,-1.9072,-1.9072,-1.9072,-1.9072,-1.9205,-1.7479,-1.7479,-1.7479,-1.7479,-1.8169,-1.8855,-1.8855,-1.9421,-1.9768,-1.9029,-1.8855,0.0,0.0,0.0,-1.971,-1.8971,-1.9641,-2.0047,-1.958,-1.9807,-2.0094,-2.038,-2.0511,-2.0386,-1.989,-1.989,-1.9635,-1.9136,-1.9072,-1.9072,-1.9072,-1.9072,-1.9072,-1.9072,-1.9072,-1.9072,-1.9072,-1.9072,-1.9072,-1.9072,-1.9072,-1.9072,-1.9072,-1.9072,-1.9072,-1.9072,-1.9072,-1.9072,-1.9072,-1.9072,-1.9072,-1.9072,-1.9072,-1.9072,-1.9072,-1.9072,-1.9072,-1.9072,-1.9072,-1.9072,-1.9072,-1.9072,-1.9072,-1.9072,-1.9072,-1.9072,-1.9072,-1.9072,-1.9072,-1.9072,-1.9072,-1.9072,-1.9072,-1.9072,-1.9072,-1.9072,-1.9072,-1.9072,-1.9072,-1.9072,-1.9072,-1.9072,-1.9072,-1.9072,-1.9072,-1.9072,-1.9072,-1.9072,-1.9072,-1.9072,-1.9072,-1.9072,-1.9072,-1.9072,-1.9072,-1.9072,-1.9072,-1.9072,-1.9072,-1.9072,-1.9072,-1.9072,-1.9072,-1.9072,-1.9072,-1.9072,-1.9072,-1.9072,-1.9157,-1.9326,-1.9326,-1.947,-1.7479,-1.7479,-1.7479,-1.7479,-1.7479,-1.7479,-1.7479,-1.811,-1.8519,-1.7655,-1.7479,-1.7479,-1.7479,0.0,0.0,0.0,-1.8407,-1.8924,-1.8374,-1.8517,-1.8782,-1.9048,-1.9072,-1.9072,-1.9072,-1.9072,-1.9072,-1.9072,-1.9072,-1.9072,-1.9072,-1.9072,-1.9072,-1.9072,-1.9072,-1.9072,-1.9072,-1.9072,-1.9072,-1.9072,-1.9072,-1.9072,-1.9072,-1.9072,-1.9072,-1.9072,-1.9072,-1.9072,-1.9072,-1.9072,-1.9072,-1.9072,-1.9072,-1.9072,-1.9072,-1.9072,-1.9072,-1.9072,-1.9072,-1.9072,-1.9072,-1.9072,-1.9072,-1.9072,-1.9072,-1.9072,-1.9072,-1.9072,-1.9072,-1.9072,-1.9072,-1.9072,-1.9072,-1.9072,-1.9072,-1.9072,-1.9072,-1.9072,-1.9072,-1.9072,-1.9072,-1.9072,-1.9072,-1.9072,-1.9072,-1.9072,-1.9072,-1.9072,-1.9072,-1.9072,-1.9072,-1.9072,-1.9072,-1.9072,-1.9072,-1.9072,-1.9072,-1.9072,-1.9072,-1.9072,-1.9072,-1.9072,-1.9072,-1.9072,-1.9072,-1.912,-1.9205,-1.9205,-1.9338,-1.9603,-1.9603,-1.9748,-1.7479,-1.7479,-1.7479,-1.7479,-1.7479,-1.7479,-1.7479,-1.7479,-1.7479,-1.7479,-1.7479,-1.7479,-1.7479,-1.7479,0.0,-1.7491,-1.7708,-1.7974,-1.8263,-1.8517,-1.8782,-1.9048,-1.9072,-1.9072,-1.9072,-1.9072,-1.9072,-1.9072,-1.9072,-1.9072,-1.9072,-1.9072,-1.9072,-1.9072,-1.9072,-1.9072,-1.9072,-1.9072,-1.9072,-1.9072,-1.9072,-1.9072,-1.9072,-1.9072,-1.9072,-1.9072,-1.9072,-1.9072,-1.9072,-1.9072,-1.9072,-1.9072,-1.9072,-1.9072,-1.9072,-1.9072,-1.9072,-1.9072,-1.9072,-1.9072,-1.9072,-1.9072,-1.9072,-1.9072,-1.9072,-1.9072,-1.9072,-1.9072,-1.9072,-1.9072,-1.9072,-1.9072,-1.9072,-1.9072,-1.9072,-1.9072,-1.9072,-1.9072,-1.9072,-1.9072,-1.9072,-1.9072,-1.9072,-1.9072,-1.9072,-1.9072,-1.9072,-1.9072,-1.9072,-1.9072,-1.9072,-1.9072,-1.9072,-1.9072,-1.9072,-1.9072,-1.9072,-1.9072,-1.9084,-1.9084,-1.9072,-1.9084,-1.9084,-1.9084,-1.9084,-1.9217,-1.947,-1.947,-1.9615,-1.9893,-1.9893,-2.0026,-1.7479,-1.7479,-1.7479,-1.7479,-1.7479,-1.7479,0.0,-1.7479,0.0,0.0,-1.7479,-1.7479,-1.7479,-1.7479,0.0,-1.7732,-1.7986,-1.8263,-1.8529,-1.8794,-1.8988,-1.906,-1.9072,-1.9072,-1.9072,-1.9072,-1.9072,-1.9072,-1.9072,-1.9072,-1.9072,-1.9072,-1.9072,-1.9072,-1.9072,-1.9072,-1.9072,-1.9072,-1.9072,-1.9072,-1.9072,-1.9072,-1.9072,-1.9072,-1.9072,-1.9072,-1.9072,-1.9072,-1.9072,-1.9072,-1.9072,-1.9072,-1.9072,-1.9072,-1.9072,-1.9072,-1.9072,-1.9072,-1.9072,-1.9072,-1.9072,-1.9072,-1.9072,-1.9072,-1.9072,-1.9072,-1.9072,-1.9072,-1.9072,-1.9072,-1.9072,-1.9072,-1.9072,-1.9072,-1.9072,-1.9072,-1.9072,-1.9072,-1.9072,-1.9072,-1.9072,-1.9072,-1.9072,-1.9072,-1.9072,-1.9072,-1.9072,-1.9072,-1.9072,-1.9072,-1.9072,-1.9072,-1.9072,-1.9072,-1.9072,-1.9072,-1.9072,-1.9072,-1.9253,-1.9265,-1.9084,-1.9253,-1.935,-1.935,-1.9543,-1.9688,-1.976,-1.976,-1.9905,-2.0158,-2.0158,-2.0303,-1.7479,-1.7479,-1.7479,-1.7479,-1.7479,-1.7479,-1.7479,0.0,0.0,0.0,-1.7479,-1.7479,-1.7479,-1.7479,0.0,-1.7829,-1.8106,-1.8384,-1.865,-1.8915,-1.9072,-1.9072,-1.9072,-1.9072,-1.9072,-1.9072,-1.9072,-1.9072,-1.9072,-1.9072,-1.9072,-1.9072,-1.9072,-1.9072,-1.9072,-1.9072,-1.9072,-1.9072,-1.9072,-1.9072,-1.9072,-1.9072,-1.9072,-1.9072,-1.9072,-1.9072,-1.9072,-1.9072,-1.9072,-1.9072,-1.9072,-1.9072,-1.9072,-1.9072,-1.9072,-1.9072,-1.9072,-1.9072,-1.9072,-1.9072,-1.9072,-1.9072,-1.9072,-1.9072,-1.9072,-1.9072,-1.9072,-1.9072,-1.9072,-1.9072,-1.9072,-1.9072,-1.9072,-1.9072,-1.9072,-1.9072,-1.9072,-1.9072,-1.9072,-1.9072,-1.9072,-1.9072,-1.9072,-1.9072,-1.9072,-1.9072,-1.9072,-1.9072,-1.9072,-1.9072,-1.912,-1.9217,-1.9229,-1.9277,-1.9386,-1.9398,-1.9398,-1.9398,-1.9543,-1.9567,-1.9398,-1.9555,-1.9639,-1.9639,-1.9796,-1.9941,-2.0038,-2.0038,-2.0183,-2.0436,-2.0436,-2.0521,-1.7479,-1.7479,-1.7479,-1.7479,-1.7479,-1.7479,-1.7479,-1.7479,-1.7479,-1.7479,0.0,-1.7479,-1.7479,-1.7503,-1.7599,-1.7865,-1.8143,-1.842,-1.8686,-1.8927,-1.9072,-1.9072,-1.9072,-1.9072,-1.9072,-1.9072,-1.9072,-1.9072,-1.9072,-1.9072,-1.9072,-1.9072,-1.9072,-1.9072,-1.9072,-1.9072,-1.9072,-1.9072,-1.9072,-1.9072,-1.9072,-1.9072,-1.9072,-1.9072,-1.9072,-1.9072,-1.9072,-1.9072,-1.9072,-1.9072,-1.9072,-1.9072,-1.9072,-1.9072,-1.9072,-1.9072,-1.9072,-1.9072,-1.9072,-1.9072,-1.9072,-1.9072,-1.9072,-1.9072,-1.9072,-1.9072,-1.9072,-1.9072,-1.9072,-1.9072,-1.9072,-1.9072,-1.9072,-1.9072,-1.9072,-1.9072,-1.9072,-1.9072,-1.9072,-1.9072,-1.9072,-1.9072,-1.9072,-1.9096,-1.912,-1.9145,-1.9145,-1.9145,-1.9145,-1.9145,-1.9241,-1.9483,-1.9572,-1.9603,-1.9869,-1.9881,-1.9881,-1.9881,-1.9905,-1.9917,-1.9917,-1.9917,-1.9917,-1.9917,-1.9941,-2.0074,-2.0315,-2.0315,-2.0436,-2.0665,-2.0665,-2.0665,-1.7479,-1.7479,-1.7479,-1.7479,-1.7479,-1.7479,-1.7479,-1.7479,-1.7479,-1.7479,-1.7479,-1.7479,-1.7479,-1.7648,-1.7877,-1.8155,-1.8432,-1.8686,-1.8951,-1.9036,-1.9072,-1.9072,-1.9072,-1.9072,-1.9072,-1.9072,-1.9072,-1.9072,-1.9072,-1.9072,-1.9072,-1.9072,-1.9072,-1.9072,-1.9072,-1.9072,-1.9072,-1.9072,-1.9072,-1.9072,-1.9072,-1.9072,-1.9072,-1.9072,-1.9072,-1.9072,-1.9072,-1.9072,-1.9072,-1.9072,-1.9072,-1.9072,-1.9072,-1.9072,-1.9072,-1.9072,-1.9072,-1.9072,-1.9072,-1.9072,-1.9072,-1.9072,-1.9072,-1.9072,-1.9072,-1.9072,-1.9072,-1.9072,-1.9072,-1.9072,-1.9072,-1.9072,-1.9072,-1.9072,-1.9072,-1.9072,-1.9072,-1.9072,-1.9072,-1.9072,-1.9072,-1.9072,-1.9072,-1.9241,-1.9524,-1.9676,-1.9712,-1.9712,-1.9712,-1.9712,-1.9736,-1.9784,-1.9796,-1.982,-1.9881,-1.9881,-1.9881,-1.9881,-2.0074,-2.0195,-2.0195,-2.0195,-2.0195,-2.0195,-2.04,-2.0533,-2.0581,-2.0581,-2.0617,-2.0665,-2.0665,-2.0665,-1.7479,-1.7479,-1.7479,-1.7479,0.0,-1.7479,-1.7479,-1.7479,-1.7479,-1.7479,-1.7479,-1.7479,-1.7479,-1.7696,-1.7962,-1.8251,-1.8517,-1.877,-1.9036,-1.9072,-1.9072,-1.9072,-1.9072,-1.9072,-1.9072,-1.9072,-1.9072,-1.9072,-1.9072,-1.9072,-1.9072,-1.9072,-1.9072,-1.9072,-1.9072,-1.9072,-1.9072,-1.9072,-1.9072,-1.9072,-1.9072,-1.9072,-1.9072,-1.9072,-1.9072,-1.9072,-1.9072,-1.9072,-1.9072,-1.9072,-1.9072,-1.9072,-1.9072,-1.9072,-1.9072,-1.9072,-1.9072,-1.9072,-1.9072,-1.9072,-1.9072,-1.9072,-1.9072,-1.9072,-1.9072,-1.9072,-1.9072,-1.9072,-1.9072,-1.9072,-1.9072,-1.9169,-1.9265,-1.9265,-1.9169,-1.9072,-1.9072,-1.9169,-1.9265,-1.9265,-1.9374,-1.9458,-1.9458,-1.9579,-1.9724,-1.9869,-1.9881,-1.9881,-1.9881,-1.9881,-1.9941,-2.0062,-2.0074,-2.0122,-2.0255,-2.0255,-2.0255,-2.0255,-2.0388,-2.046,-2.046,-2.046,-2.046,-2.046,-2.0605,-2.0665,-2.0665,-2.0665,-2.0665,-2.0665,-2.0665,-2.0665,-1.7479,-1.7479,-1.7479,-1.7479,-1.7479,0.0,-1.7479,-1.7479,-1.7479,-1.7479,-1.7479,-1.7479,-1.7479,-1.7732,-1.8022,-1.8251,-1.8553,-1.8831,-1.9048,-1.9072,-1.9072,-1.9072,-1.9072,-1.9072,-1.9072,-1.9072,-1.9072,-1.9072,-1.9072,-1.9072,-1.9072,-1.9072,-1.9072,-1.9072,-1.9072,-1.9072,-1.9072,-1.9072,-1.9072,-1.9072,-1.9072,-1.9072,-1.9072,-1.9072,-1.9072,-1.9072,-1.9072,-1.9072,-1.9072,-1.9072,-1.9072,-1.9072,-1.9072,-1.9072,-1.9072,-1.9072,-1.9072,-1.9072,-1.9072,-1.9072,-1.9072,-1.9072,-1.9072,-1.9072,-1.9072,-1.9072,-1.9084,-1.9132,-1.9145,-1.9157,-1.9205,-1.9374,-1.9543,-1.9543,-1.9374,-1.9217,-1.9217,-1.9386,-1.9543,-1.9543,-1.9724,-1.9905,-1.9941,-1.9953,-1.9965,-2.0014,-2.0026,-2.0026,-2.0026,-2.0026,-2.011,-2.0327,-2.0352,-2.0436,-2.0653,-2.0665,-2.0665,-2.0665,-2.0665,-2.0665,-2.0665,-2.0665,-2.0665,-2.0665,-2.0665,-2.0665,-2.0665,-2.0665,-2.0665,-2.0665,-2.0665,-2.0665,-1.7479,0.0,-1.7479,0.0,-1.7479,-1.7479,0.0,0.0,-1.7479,0.0,-1.7479,-1.7479,-1.7479,-1.7889,-1.8251,-1.8287,-1.871,-1.9036,-1.9072,-1.9072,-1.9072,-1.9072,-1.9072,-1.9072,-1.9072,-1.9072,-1.9072,-1.9072,-1.9072,-1.9072,-1.9072,-1.9072,-1.9072,-1.9072,-1.9072,-1.9072,-1.9072,-1.9072,-1.9072,-1.9072,-1.9072,-1.9072,-1.9072,-1.9072,-1.9072,-1.9072,-1.9072,-1.9072,-1.9072,-1.9072,-1.9072,-1.9072,-1.9072,-1.9072,-1.9072,-1.9072,-1.9072,-1.9072,-1.9072,-1.9072,-1.9072,-1.9072,-1.9072,-1.9072,-1.9072,-1.9072,-1.912,-1.935,-1.9475,-1.947,-1.9712,-1.9808,-1.9833,-1.9833,-1.9808,-1.9784,-1.9784,-1.9808,-1.9833,-1.9833,-1.9857,-1.9953,-2.0183,-2.0231,-2.0303,-2.0533,-2.0569,-2.0569,-2.0569,-2.0569,-2.0581,-2.0617,-2.0617,-2.0629,-2.0735,-2.0665,-2.0665,-2.0665,-2.0665,-2.0665,-2.0665,-2.0665,-2.0665,-2.0665,-2.0665,-2.0665,-2.0665,-2.0665,-2.0665,-2.0665,-2.0665,-2.0665,-1.7479,-1.7479,-1.7479,0.0,-1.7479,-1.7479,-1.7479,-1.7479,-1.7479,-1.7479,-1.7479,-1.7527,-1.7672,-1.8022,-1.8348,-1.8493,-1.8831,-1.9072,-1.9072,-1.9072,-1.9072,-1.9072,-1.9072,-1.9072,-1.9072,-1.9072,-1.9072,-1.9072,-1.9072,-1.9072,-1.9072,-1.9072,-1.9072,-1.9072,-1.9072,-1.9072,-1.9072,-1.9072,-1.9072,-1.9072,-1.9072,-1.9072,-1.9072,-1.9072,-1.9072,-1.9072,-1.9072,-1.9072,-1.9072,-1.9072,-1.9072,-1.9072,-1.9072,-1.9072,-1.9072,-1.9072,-1.9072,-1.9072,-1.9072,-1.9072,-1.9096,-1.9253,-1.9289,-1.9326,-1.9483,-1.9531,-1.9555,-1.9664,-1.97,-1.9736,-1.9857,-1.9989,-2.011,-2.011,-2.0219,-2.0327,-2.0327,-2.0207,-2.0146,-2.0291,-2.0327,-2.0364,-2.0472,-2.0496,-2.0533,-2.0653,-2.0665,-2.0665,-2.0665,-2.0665,-2.0665,-2.0665,-2.0665,-2.0665,-2.0665,-2.0665,-2.0665,-2.0665,-2.0665,-2.0665,-2.0665,-2.0665,-2.0665,-2.0665,-2.0665,-2.0665,-2.0665,-2.0665,-2.0665,-2.0665,-2.0665,-2.0665,-1.7479,0.0,-1.7479,-1.7479,-1.7479,-1.7479,0.0,0.0,-1.7479,0.0,-1.7539,-1.766,-1.7925,-1.8155,-1.8384,-1.8638,-1.8903,-1.9072,-1.9072,-1.9072,-1.9072,-1.9072,-1.9072,-1.9072,-1.9072,-1.9072,-1.9072,-1.9072,-1.9072,-1.9072,-1.9072,-1.9072,-1.9072,-1.9072,-1.9072,-1.9072,-1.9072,-1.9072,-1.9072,-1.9072,-1.9072,-1.9072,-1.9072,-1.9072,-1.9072,-1.9072,-1.9072,-1.9072,-1.9072,-1.9072,-1.9072,-1.9072,-1.9072,-1.9072,-1.9072,-1.9072,-1.912,-1.9169,-1.9169,-1.9217,-1.9314,-1.9507,-1.9567,-1.9615,-1.982,-1.9881,-1.9905,-1.9965,-1.9989,-2.0002,-2.0074,-2.0231,-2.0376,-2.0376,-2.0521,-2.0665,-2.0665,-2.0521,-2.0436,-2.0629,-2.0665,-2.0665,-2.0665,-2.0665,-2.0665,-2.0665,-2.0665,-2.0665,-2.0665,-2.0665,-2.0665,-2.0665,-2.0665,-2.0665,-2.0665,-2.0665,-2.0665,-2.0665,-2.0665,-2.0665,-2.0665,-2.0665,-2.0665,-2.0665,-2.0665,-2.0665,-2.0665,-2.0665,-2.0665,-2.0665,-2.0665,-2.0665,0.0,-1.7479,0.0,-1.7479,-1.7479,-1.7479,0.0,0.0,-1.7479,-1.7479,-1.7684,-1.7937,-1.8215,-1.8287,-1.8384,-1.8638,-1.8903,-1.9072,-1.9072,-1.9072,-1.9072,-1.9072,-1.9072,-1.9072,-1.9072,-1.9072,-1.9072,-1.9072,-1.9072,-1.9072,-1.9072,-1.9072,-1.9072,-1.9072,-1.9072,-1.9072,-1.9072,-1.9072,-1.9072,-1.9072,-1.9072,-1.9072,-1.9072,-1.9072,-1.9072,-1.9072,-1.9072,-1.9072,-1.9072,-1.9072,-1.9072,-1.9072,-1.9072,-1.9072,-1.9072,-1.9072,-1.9229,-1.9512,-1.9512,-1.9627,-1.9845,-1.9857,-1.9869,-1.9869,-1.9881,-1.9881,-1.9941,-2.0183,-2.0255,-2.0315,-2.0569,-2.0641,-2.0653,-2.0653,-2.0653,-2.0665,-2.0665,-2.0653,-2.0653,-2.0735,-2.0665,-2.0665,-2.0665,-2.0665,-2.0665,-2.0665,-2.0665,-2.0665,-2.0665,-2.0665,-2.0665,-2.0665,-2.0665,-2.0665,-2.0665,-2.0665,-2.0665,-2.0665,-2.0665,-2.0665,-2.0665,-2.0665,-2.0665,-2.0665,-2.0665,-2.0665,-2.0665,-2.0665,-2.0665,-2.0665,-2.0665,-2.0665,0.0,0.0,0.0,-1.7479,-1.7479,-1.7479,-1.7479,-1.7479,-1.7527,-1.7696,-1.7805,-1.801,-1.8456,-1.8541,-1.8625,-1.8891,-1.9012,-1.9072,-1.9072,-1.9072,-1.9072,-1.9072,-1.9072,-1.9072,-1.9072,-1.9072,-1.9072,-1.9072,-1.9072,-1.9072,-1.9072,-1.9072,-1.9072,-1.9072,-1.9072,-1.9072,-1.9072,-1.9072,-1.9072,-1.9072,-1.9072,-1.9072,-1.9072,-1.9072,-1.9072,-1.9072,-1.9072,-1.9072,-1.9072,-1.9072,-1.9072,-1.9072,-1.9072,-1.9181,-1.939,-1.939,-1.9507,-1.9736,-1.9736,-1.9808,-1.9917,-2.0086,-2.0134,-2.0171,-2.034,-2.0388,-2.0412,-2.0496,-2.0533,-2.0557,-2.0641,-2.0665,-2.0457,-1.9471,-1.9181,-1.9181,-1.9181,-2.0028,-2.0665,-2.0665,-2.0665,-2.0665,-2.0665,-2.0665,-2.0665,-2.0665,-2.0665,-2.0665,-2.0665,-2.0665,-2.0665,-2.0665,-2.0665,-2.0665,-2.0665,-2.0665,-2.0665,-2.0665,-2.0665,-2.0665,-2.0665,-1.975,-1.9181,-1.9181,-1.8261,-1.8751,-2.0665,-2.0665,-2.0665,-2.0665,-2.0665,-2.0665,-1.6585,0.0,0.0,0.0,-1.7315,-1.7373,-1.7479,-1.7551,-1.766,-1.7841,-1.8022,-1.8251,-1.8613,-1.8758,-1.8879,-1.9048,-1.9072,-1.9072,-1.9072,-1.9072,-1.9072,-1.9072,-1.9072,-1.9072,-1.9072,-1.9072,-1.9072,-1.9072,-1.9072,-1.9072,-1.9072,-1.9072,-1.9072,-1.9072,-1.9072,-1.9072,-1.9072,-1.9072,-1.9072,-1.9072,-1.9072,-1.9072,-1.9072,-1.9072,-1.9072,-1.9072,-1.8612,-1.8676,-1.9072,-1.8612,-1.8401,-1.8418,-1.7953,-1.7904,-1.8061,-1.8061,-1.8618,-1.925,-1.925,-1.9657,-2.0183,-2.0352,-2.0412,-2.0436,-2.0617,-2.0665,-2.0665,-2.0665,-2.0318,-1.9959,-1.9959,-1.9529,-1.889,-1.79,-1.763,-1.763,-1.763,-1.8401,-1.932,-1.982,-1.9529,-1.932,-1.982,-1.9959,-1.9959,-1.9959,-1.9959,-1.9959,-1.9959,-1.9959,-2.0098,-2.0665,-2.0665,-2.0665,-2.0665,-2.0665,-2.0457,-1.9959,-1.9971,-1.9795,-1.9304,-1.8312,-1.7785,-1.7785,-1.6777,-1.7277,-1.9286,-1.9279,-1.9234,-1.9234,-1.9323,-1.9286,0.0,0.0,0.0,0.0,0.0,0.0,-1.7303,0.0,-1.7865,-1.7877,-1.83,-1.8674,-1.8698,-1.8903,-1.9072,-1.9072,-1.9072,-1.9072,-1.9072,-1.9072,-1.9072,-1.9072,-1.9072,-1.9008,-1.9008,-1.9008,-1.9008,-1.9008,-1.9008,-1.9008,-1.9008,-1.9072,-1.9072,-1.9008,-1.9008,-1.9008,-1.9008,-1.9008,-1.9008,-1.9008,-1.9008,-1.9008,-1.9008,-1.9008,-1.9008,-1.888,-1.7507,-1.77,-1.8892,-1.7507,-1.6989,-1.7005,-1.5614,-1.5203,-1.5323,-1.5323,-1.6411,-1.7977,-1.7977,-1.9106,-2.0596,-2.0596,-2.0596,-2.0596,-2.0596,-2.0596,-2.0596,-2.0596,-1.9541,-1.8331,-1.8331,-1.7198,-1.6061,-1.6061,-1.6061,-1.6061,-1.6061,-1.599,-1.6413,-1.8051,-1.7127,-1.6554,-1.8051,-1.8331,-1.8331,-1.8331,-1.8331,-1.8331,-1.8331,-1.8331,-1.8901,-2.0388,-2.0608,-2.0539,-2.0539,-2.0608,-1.9912,-1.8433,-1.8485,-1.7888,-1.6462,-1.6515,-1.6544,-1.6544,-1.648,-1.6471,-1.6471,-1.6421,-1.639,-1.6399,-1.6524,-1.6554,-1.3278,0.0,0.0,0.0,0.0,0.0,0.0,0.0,-1.716,-1.6841,-1.7661,-1.8517,-1.8891,-1.9024,-1.9072,-1.9072,-1.9072,-1.9072,-1.9072,-1.9072,-1.9072,-1.9072,-1.8215,-1.756,-1.756,-1.756,-1.7173,0.0,-1.699,-1.756,-1.756,-1.8547,-1.8162,-1.6148,-1.7044,-1.756,-1.756,-1.6592,-1.6592,-1.7571,-1.6537,-1.6084,-1.6084,-1.6084,-1.6084,-1.6019,-1.5619,-1.5773,-1.6176,-1.5781,-1.5678,-1.5614,-1.5375,-1.5419,-1.5606,-1.5606,-1.6005,-1.6607,-1.6607,-1.6927,-1.7409,-1.7409,-1.7409,-1.7549,-1.8692,-1.8261,-1.7619,-1.8692,-1.791,-1.6766,-1.6766,-1.6413,-1.5849,-1.4796,-1.4512,-1.4512,-1.4512,-1.3595,-1.3595,-1.6202,-1.6413,-1.6272,-1.6625,-1.6766,-1.6766,-1.6766,-1.6766,-1.6766,-1.6766,-1.6766,-1.6906,-1.7338,-1.748,-1.7582,-1.7582,-1.7662,-1.7536,-1.7102,-1.716,-1.6971,-1.6533,-1.5488,-1.4925,-1.4925,-1.3897,-1.3312,-1.3312,-1.5462,-1.6533,-1.6543,-1.6599,-1.603,0.0,0.0,0.0,0.0,0.0,0.0,-1.3337,-1.4942,-1.6525,-1.6469,-1.7644,-1.8521,-1.8297,-1.8226,-1.8022,-1.7442,-1.7378,-1.7776,-1.8944,-1.9072,-1.9072,-1.9072,-1.7829,-1.698,-1.698,-1.6462,-1.5749,-1.4977,-1.5684,-1.6138,-1.6138,-1.6926,-1.6602,-1.4977,-1.5684,-1.6138,-1.6138,-1.5294,-1.5294,-1.6138,-1.5294,-1.4912,-1.4912,-1.4912,-1.495,-1.4969,-1.4376,-1.4219,-1.4338,-1.3806,-1.3908,-1.4393,-1.3898,-1.3772,-1.4007,-1.4007,-1.4489,-1.515,-1.515,-1.5566,-1.6131,-1.6131,-1.6131,-1.6272,-1.7198,-1.6846,-1.6272,-1.7198,-1.6352,-1.5008,-1.4369,-1.4227,-1.4022,-1.3174,-1.296,-1.296,-1.296,-1.2259,-1.2323,-1.4725,-1.4654,-1.4441,-1.5079,-1.515,-1.515,-1.515,-1.5221,-1.5274,-1.5274,-1.5336,-1.5606,-1.6252,-1.6437,-1.6512,-1.6512,-1.6552,-1.6324,-1.5662,-1.5667,-1.5414,-1.4828,-1.4002,-1.3582,-1.3582,-1.2691,-1.2244,-1.2244,-1.3971,-1.4861,-1.486,-1.486,-1.441,0.0,0.0,0.0,0.0,0.0,0.0,-1.269,-1.4213,-1.5608,-1.5939,-1.7307,-1.8116,-1.684,-1.6646,-1.6258,-1.5033,-1.4838,-1.5749,-1.8291,-1.8623,-1.8623,-1.8623,-1.7378,-1.6517,-1.6517,-1.5424,-1.4586,-1.4455,-1.4586,-1.4586,-1.4455,-1.4716,-1.4782,-1.4455,-1.4586,-1.4651,-1.4651,-1.452,-1.452,-1.4651,-1.452,-1.4455,-1.4455,-1.4473,-1.4517,-1.4539,-1.3361,-1.2934,-1.298,-1.1888,-1.2156,-1.313,-1.1896,-1.1497,-1.1619,-1.1619,-1.2466,-1.3674,-1.3674,-1.4512,-1.5566,-1.5566,-1.5566,-1.5637,-1.5778,-1.5707,-1.5566,-1.5566,-1.4654,-1.3317,-1.1972,-1.1619,-1.1619,-1.1619,-1.1633,-1.164,-1.164,-1.1653,-1.2093,-1.3443,-1.2575,-1.2072,-1.3412,-1.3714,-1.373,-1.373,-1.3794,-1.3897,-1.3897,-1.3951,-1.4555,-1.5956,-1.6131,-1.614,-1.614,-1.6158,-1.5585,-1.4175,-1.4243,-1.3657,-1.2388,-1.2433,-1.2501,-1.2501,-1.2501,-1.2501,-1.2501,-1.2372,-1.2379,-1.2501,-1.2501,-1.2501,0.0,0.0,0.0,0.0,0.0,0.0,-0.9565,-1.134,-1.2942,-1.2594,-1.3576,-1.4483,-1.4456,-1.4418,-1.4418,-1.4493,-1.4493,-1.4763,-1.5619,-1.5694,-1.5694,-1.5694,-1.4511,-1.3595,-1.3595,-1.3341,-1.275,-1.1571,-1.2553,-1.275,-1.1571,-1.3669,-1.3866,-1.1571,-1.2618,-1.321,-1.321,-1.2099,-1.2099,-1.321,-1.2033,-1.1505,-1.1512,-1.1643,-1.1723,-1.1692,-1.161,-1.1614,-1.1769,-1.1516,-1.153,-1.1825,-1.1596,-1.1592,-1.1619,-1.1619,-1.1763,-1.2043,-1.2043,-1.2259,-1.2466,-1.2466,-1.2466,-1.2681,-1.3951,-1.346,-1.2466,-1.2466,-1.2259,-1.1972,-1.1691,-1.1619,-1.1619,-1.1619,-1.1708,-1.1789,-1.1789,-1.1891,-1.212,-1.2416,-1.2091,-1.1862,-1.2147,-1.2325,-1.2416,-1.2416,-1.2437,-1.2459,-1.2459,-1.2487,-1.265,-1.2947,-1.3064,-1.3144,-1.3144,-1.3253,-1.3173,-1.2867,-1.2895,-1.2762,-1.2461,-1.2488,-1.2501,-1.2501,-1.2501,-1.2501,-1.2501,-1.2474,-1.2474,-1.2501,-1.2501,-1.2501,0.0,0.0,0.0,-0.8051,0.0,0.0,0.0,-1.0249,-1.1703,-1.1633,-1.2653,-1.3457,-1.2833,-1.2718,-1.2594,-1.2142,-1.2215,-1.2347,-1.2553,-1.3923,-1.4912,-1.4912,-1.3669,-1.2816,-1.2816,-1.2165,-1.1439,-1.0717,-1.1372,-1.1439,-1.0717,-1.2033,-1.2165,-1.0717,-1.1372,-1.1769,-1.1769,-1.1049,-1.1049,-1.1769,-1.1049,-1.0758,-1.0766,-1.0847,-1.0961,-1.1172,-1.1246,-1.1362,-1.1504,-1.1504,-1.1504,-1.1511,-1.1592,-1.1619,-1.1619,-1.1619,-1.1619,-1.1619,-1.1619,-1.1619,-1.1619,-1.1619,-1.1619,-1.1763,-1.2538,-1.2187,-1.1619,-1.1619,-1.1674,-1.1728,-1.1728,-1.1782,-1.1843,-1.1843,-1.1891,-1.1945,-1.1945,-1.2006,-1.2135,-1.2135,-1.206,-1.2033,-1.1959,-1.2013,-1.2135,-1.2135,-1.2128,-1.2176,-1.2176,-1.2237,-1.2284,-1.2284,-1.2352,-1.2393,-1.2393,-1.2461,-1.2501,-1.2501,-1.2501,-1.2501,-1.2501,-1.2501,-1.2501,-1.2501,-1.2501,-1.2501,-1.2501,-1.2501,-1.2501,-1.2501,-1.2501,-1.2501,0.0,0.0,0.0,0.0,0.0,-0.8328,0.0,0.0,0.0,-1.0986,-1.2003,-1.2455,0.0,0.0,0.0,-0.9691,0.0,0.0,0.0,-1.2332,0.0,-1.4054,-1.3079,-1.2421,-1.2421,-1.1372,-1.0717,-1.0717,-1.0717,-1.0717,-1.0717,-1.0717,-1.0717,-1.0717,-1.0717,-1.0717,-1.0717,-1.0717,-1.0717,-1.0717,-1.0751,-1.0826,-1.088,-1.0941,-1.1165,-1.1396,-1.1423,-1.1504,-1.1619,-1.1619,-1.1619,-1.1619,-1.1619,-1.1619,-1.1619,-1.1619,-1.1619,-1.1619,-1.1619,-1.1619,-1.1619,-1.1619,-1.1619,-1.1626,-1.1653,-1.166,-1.1667,-1.1694,-1.1789,-1.1877,-1.1877,-1.1965,-1.2135,-1.2135,-1.2088,-1.2108,-1.2108,-1.2128,-1.2149,-1.2149,-1.2244,-1.2284,-1.2135,-1.2128,-1.2149,-1.2149,-1.225,-1.2332,-1.2332,-1.2433,-1.2501,-1.2501,-1.2501,-1.2501,-1.2501,-1.2501,-1.2501,-1.2501,-1.2501,-1.2501,-1.2501,-1.2501,-1.2501,-1.2501,-1.2501,-1.2501,-1.2501,-1.2501,-1.2501,-1.2501,-1.2501,-1.2501,0.0,0.0,0.0,0.0,-0.8172,0.0,0.0,0.0,-0.8776,-0.8895,0.0,0.0,0.0,0.0,0.0,0.0,0.0,0.0,-0.9561,-1.0241,-1.085,-1.1115,-1.1049,-1.0916,-1.0916,-1.0784,-1.0717,-1.0717,-1.0717,-1.0717,-1.0717,-1.0717,-1.0717,-1.0717,-1.0717,-1.0717,-1.0717,-1.0717,-1.0717,-1.0724,-1.0793,-1.086,-1.0887,-1.1219,-1.1362,-1.1396,-1.1538,-1.1606,-1.1619,-1.1619,-1.1619,-1.1619,-1.1619,-1.1619,-1.1619,-1.1619,-1.1619,-1.1619,-1.1619,-1.1619,-1.1619,-1.1619,-1.1619,-1.164,-1.1769,-1.1809,-1.1837,-1.1972,-1.202,-1.2033,-1.2033,-1.2047,-1.2135,-1.2135,-1.2169,-1.2264,-1.2264,-1.2366,-1.2454,-1.2454,-1.2467,-1.2433,-1.2291,-1.2366,-1.2454,-1.2454,-1.2467,-1.2474,-1.2474,-1.2488,-1.2501,-1.2501,-1.2501,-1.2501,-1.2501,-1.2501,-1.2501,-1.2501,-1.2501,-1.2501,-1.2501,-1.2501,-1.2501,-1.2501,-1.2501,-1.2501,-1.2501,-1.2501,-1.2501,-1.2501,-1.2501,-1.2501,0.0,0.0,0.0,0.0,0.0,0.0,-0.8569,0.0,-0.853,0.0,0.0,0.0,0.0,0.0,0.0,0.0,-0.895,0.0,0.0,0.0,-1.006,0.0,0.0,0.0,-1.0717,-1.0717,-1.0717,-1.0717,-1.0717,-1.0717,-1.0717,-1.0717,-1.0717,-1.0717,-1.0717,-1.0717,-1.0717,-1.0717,-1.0765,-1.0786,-1.0853,-1.0968,-1.1206,-1.1335,-1.1443,-1.1525,-1.1592,-1.1619,-1.1619,-1.1619,-1.1619,-1.1619,-1.1619,-1.1619,-1.1619,-1.1619,-1.1619,-1.1619,-1.1619,-1.1619,-1.1633,-1.1714,-1.1742,-1.1769,-1.1918,-1.1965,-1.1979,-1.2047,-1.2128,-1.2196,-1.2196,-1.2257,-1.2318,-1.2318,-1.2366,-1.2413,-1.2413,-1.2461,-1.2501,-1.2501,-1.2501,-1.2481,-1.242,-1.2461,-1.2501,-1.2501,-1.2501,-1.2501,-1.2501,-1.2501,-1.2501,-1.2501,-1.2501,-1.2501,-1.2501,-1.2501,-1.2501,-1.2501,-1.2501,-1.2501,-1.2501,-1.2501,-1.2501,-1.2501,-1.2501,-1.2501,-1.2501,-1.2501,-1.2501,-1.2501,-1.2501,-1.2501,-0.8717,0.0,0.0,0.0,0.0,0.0,0.0,0.0,0.0,0.0,0.0,0.0,0.0,0.0,0.0,0.0,0.0,-0.8972,0.0,-0.9299,0.0,0.0,0.0,0.0,0.0,-1.0717,-1.0717,-1.0717,-1.0717,-1.0717,-1.0717,-1.0717,-1.0717,-1.0717,-1.0717,-1.0717,-1.0717,-1.0765,-1.0772,-1.088,-1.0961,-1.1179,-1.1396,-1.1436,-1.1511,-1.1619,-1.1619,-1.1619,-1.1619,-1.1619,-1.1619,-1.1619,-1.1619,-1.1619,-1.1619,-1.1619,-1.1619,-1.1619,-1.1619,-1.1647,-1.1701,-1.185,-1.1898,-1.1925,-1.2074,-1.2128,-1.2135,-1.2169,-1.2264,-1.2345,-1.2345,-1.2427,-1.2501,-1.2501,-1.2501,-1.2501,-1.2501,-1.2501,-1.2501,-1.2501,-1.2501,-1.2501,-1.2501,-1.2501,-1.2501,-1.2501,-1.2501,-1.2501,-1.2501,-1.2501,-1.2501,-1.2501,-1.2501,-1.2501,-1.2501,-1.2501,-1.2501,-1.2501,-1.2501,-1.2501,-1.2501,-1.2501,-1.2501,-1.2501,-1.2501,-1.2522,-1.2562,-1.2562,-1.2583,-1.2623,-1.2542,-1.2501,0.0,0.0,0.0,-0.8651,0.0,0.0,0.0,0.0,-0.859,0.0,0.0,0.0,0.0,0.0,0.0,0.0,0.0,0.0,0.0,0.0,0.0,0.0,0.0,0.0,0.0,-1.0717,-1.0717,-1.0717,-1.0717,-1.0717,-1.0717,-1.0717,-1.0717,-1.0717,-1.0717,-1.0717,-1.0717,-1.0799,-1.0873,-1.0887,-1.124,-1.1382,-1.1396,-1.1545,-1.1613,-1.1619,-1.1619,-1.1619,-1.1619,-1.1619,-1.1619,-1.1619,-1.1619,-1.1619,-1.1619,-1.1619,-1.1619,-1.1619,-1.1619,-1.1708,-1.185,-1.2006,-1.2054,-1.2081,-1.2237,-1.2284,-1.2311,-1.2447,-1.2488,-1.2494,-1.2494,-1.2501,-1.2501,-1.2501,-1.2501,-1.2501,-1.2501,-1.2501,-1.2501,-1.2501,-1.2501,-1.2501,-1.2501,-1.2501,-1.2501,-1.2501,-1.2501,-1.2501,-1.2501,-1.2501,-1.2501,-1.2501,-1.2501,-1.2501,-1.2501,-1.2501,-1.2501,-1.2501,-1.2501,-1.2501,-1.2501,-1.2501,-1.2501,-1.2501,-1.2501,-1.2576,-1.2725,-1.2725,-1.28,-1.2942,-1.2644,-1.2501,0.0,0.0,-0.905,-0.8651,0.0,0.0,0.0,0.0,0.0,0.0,0.0,0.0,0.0,0.0,0.0,0.0,0.0,0.0,0.0,0.0,0.0,0.0,0.0,0.0,0.0,0.0,-1.0717,-1.0717,-1.0717,-1.0717,-1.0717,-1.0717,-1.0717,-1.0717,-1.0717,-1.0717,-1.0717,-1.0806,-1.0995,-1.109,-1.1294,-1.1443,-1.1545,-1.1599,-1.1619,-1.1619,-1.1619,-1.1619,-1.1619,-1.1619,-1.1619,-1.1619,-1.1619,-1.1681,-1.1748,-1.1653,-1.1681,-1.1775,-1.1877,-1.1945,-1.2006,-1.2162,-1.221,-1.2237,-1.2386,-1.2427,-1.244,-1.2488,-1.2501,-1.2501,-1.2501,-1.2501,-1.2501,-1.2501,-1.2501,-1.2501,-1.2501,-1.2501,-1.2501,-1.2501,-1.2501,-1.2501,-1.2501,-1.2501,-1.2501,-1.2501,-1.2501,-1.2501,-1.2501,-1.2501,-1.2501,-1.2501,-1.2501,-1.2501,-1.2501,-1.2501,-1.2501,-1.2501,-1.2596,-1.2651,-1.2651,-1.2752,-1.2807,-1.2807,-1.2807,-1.2834,-1.2881,-1.2881,-1.2908,-1.3043,-1.2854,-1.2807,-0.8784,-0.8917,0.0,-0.8651,-0.8784,0.0,-0.8656,0.0,-0.859,0.0,0.0,0.0,0.0,0.0,0.0,0.0,0.0,0.0,0.0,-0.8784,0.0,0.0,0.0,0.0,0.0,-1.0326,-1.0525,-1.0525,-1.0525,-1.0591,0.0,-1.0717,-1.0717,-1.0717,-1.0717,-1.0744,-1.0799,-1.0948,-1.1097,-1.1246,-1.1402,-1.1525,-1.1619,-1.1619,-1.1619,-1.1619,-1.1619,-1.1619,-1.1619,-1.1619,-1.1619,-1.1626,-1.1674,-1.1748,-1.1823,-1.1728,-1.1789,-1.1938,-1.2088,-1.2142,-1.2169,-1.2318,-1.2366,-1.2379,-1.2474,-1.2501,-1.2501,-1.2501,-1.2501,-1.2501,-1.2501,-1.2501,-1.2501,-1.2501,-1.2501,-1.2501,-1.2501,-1.2501,-1.2501,-1.2501,-1.2501,-1.2501,-1.2501,-1.2501,-1.2501,-1.2501,-1.2501,-1.2501,-1.2501,-1.2501,-1.2501,-1.2501,-1.2501,-1.2522,-1.2576,-1.2583,-1.2603,-1.2664,-1.2759,-1.2813,-1.2813,-1.2908,-1.2963,-1.2963,-1.2963,-1.2983,-1.3037,-1.3037,-1.3064,-1.3119,-1.3119,-1.3119]},{"header":{"parameterUnit":"m.s-1","parameterCategory":1,"la1":30.6,"la2":29.2853,"lo1":-89.7004,"lo2":-87.6739,"dy":0.0162,"dx":0.0183,"nx":112,"ny":82,"refTime":"2023-08-16T06:00:00:Z","depth":0,"parameterNumber":3,"parameterNumberName":"V-component_of_WINDS"},"data":[0.0,0.0,0.0,0.0,0.0,0.0,0.0,0.0,0.0,0.0,0.0,0.0,0.0,0.0,0.0,0.0,0.0,0.0,0.0,0.0,0.0,0.0,0.0,0.0,0.0,0.0,0.0,0.0,0.0,0.0,0.0,0.0,0.0,0.0,0.0,0.0,0.0,0.0,0.0,0.0,0.0,0.0,0.0,0.0,0.0,0.0,0.0,0.0,0.0,0.0,0.0,0.0,0.0,0.0,0.0,0.0,0.0,0.0,0.0,0.0,0.0,0.0,0.0,0.0,0.0,0.0,0.0,0.0,0.0,0.0,0.0,0.0,0.0,0.0,0.0,0.0,0.0,0.0,0.0,0.0,0.0,0.0,0.0,0.0,0.0,0.0,0.0,0.0,0.0,0.0,3.3885,3.4404,3.4597,3.4698,3.4731,3.503,3.5228,3.5261,0.0,0.0,0.0,0.0,0.0,0.0,0.0,0.0,0.0,0.0,0.0,0.0,0.0,0.0,0.0,0.0,0.0,0.0,0.0,0.0,0.0,0.0,0.0,0.0,0.0,0.0,0.0,0.0,0.0,0.0,0.0,0.0,0.0,0.0,0.0,0.0,0.0,0.0,0.0,0.0,0.0,0.0,0.0,0.0,0.0,0.0,0.0,0.0,0.0,0.0,0.0,0.0,0.0,0.0,0.0,0.0,0.0,0.0,0.0,0.0,0.0,0.0,0.0,0.0,0.0,0.0,0.0,0.0,0.0,0.0,0.0,0.0,0.0,0.0,0.0,0.0,0.0,0.0,0.0,0.0,0.0,0.0,0.0,0.0,0.0,0.0,0.0,0.0,0.0,0.0,0.0,0.0,0.0,0.0,0.0,0.0,0.0,0.0,0.0,0.0,0.0,0.0,0.0,0.0,3.4547,3.4664,3.4664,3.4765,3.4868,3.5067,3.5261,3.5424,0.0,0.0,0.0,0.0,0.0,0.0,0.0,0.0,0.0,0.0,0.0,0.0,0.0,0.0,0.0,0.0,0.0,0.0,0.0,0.0,0.0,0.0,0.0,0.0,0.0,0.0,0.0,0.0,0.0,0.0,0.0,0.0,0.0,0.0,0.0,0.0,0.0,0.0,0.0,0.0,0.0,0.0,0.0,0.0,0.0,0.0,0.0,0.0,0.0,0.0,0.0,0.0,0.0,0.0,0.0,0.0,0.0,0.0,0.0,0.0,0.0,0.0,0.0,0.0,0.0,0.0,0.0,0.0,0.0,0.0,0.0,0.0,0.0,0.0,0.0,0.0,0.0,0.0,0.0,0.0,0.0,0.0,0.0,0.0,0.0,0.0,0.0,0.0,0.0,0.0,0.0,0.0,0.0,0.0,0.0,0.0,0.0,0.0,0.0,0.0,0.0,0.0,0.0,3.4292,3.4563,3.4563,3.4631,3.4765,3.4902,3.5067,3.5294,3.5519,3.522,0.0,0.0,0.0,0.0,0.0,0.0,0.0,0.0,0.0,0.0,0.0,0.0,0.0,0.0,0.0,0.0,0.0,0.0,0.0,0.0,0.0,0.0,0.0,0.0,0.0,0.0,0.0,0.0,0.0,0.0,0.0,0.0,0.0,0.0,0.0,0.0,0.0,0.0,0.0,0.0,0.0,0.0,0.0,0.0,0.0,0.0,0.0,0.0,0.0,0.0,0.0,0.0,0.0,0.0,0.0,0.0,0.0,0.0,0.0,0.0,0.0,0.0,0.0,0.0,0.0,0.0,0.0,0.0,0.0,0.0,0.0,0.0,0.0,0.0,0.0,0.0,0.0,0.0,0.0,0.0,0.0,0.0,0.0,0.0,0.0,0.0,0.0,0.0,0.0,0.0,0.0,0.0,0.0,0.0,0.0,0.0,0.0,0.0,0.0,0.0,0.0,0.0,3.4428,3.4433,3.4501,3.4631,3.4765,3.4968,3.51,3.5294,3.5519,3.5519,0.0,0.0,0.0,0.0,0.0,0.0,0.0,0.0,0.0,0.0,0.0,0.0,0.0,0.0,0.0,0.0,0.0,0.0,0.0,0.0,0.0,0.0,0.0,0.0,0.0,0.0,0.0,0.0,0.0,0.0,0.0,0.0,0.0,0.0,0.0,0.0,0.0,0.0,0.0,0.0,0.0,0.0,0.0,0.0,0.0,0.0,0.0,0.0,0.0,0.0,0.0,0.0,0.0,0.0,0.0,0.0,0.0,0.0,0.0,0.0,0.0,0.0,0.0,0.0,0.0,0.0,0.0,0.0,0.0,0.0,0.0,0.0,0.0,0.0,0.0,0.0,0.0,0.0,0.0,0.0,0.0,0.0,0.0,0.0,0.0,0.0,0.0,0.0,0.0,0.0,0.0,0.0,0.0,0.0,0.0,0.0,0.0,0.0,0.0,0.0,0.0,0.0,3.453,3.4501,3.4835,3.4765,3.4831,3.5162,3.5195,3.5294,3.5519,3.5519,0.0,0.0,0.0,0.0,0.0,0.0,0.0,0.0,0.0,0.0,0.0,0.0,0.0,0.0,0.0,0.0,0.0,0.0,0.0,0.0,0.0,0.0,0.0,0.0,0.0,0.0,0.0,0.0,0.0,0.0,0.0,0.0,0.0,0.0,0.0,0.0,0.0,0.0,0.0,0.0,0.0,0.0,0.0,0.0,0.0,0.0,0.0,0.0,0.0,0.0,0.0,0.0,0.0,0.0,0.0,0.0,0.0,0.0,0.0,0.0,0.0,0.0,0.0,0.0,0.0,0.0,0.0,0.0,0.0,0.0,0.0,0.0,0.0,0.0,0.0,0.0,0.0,0.0,0.0,0.0,0.0,0.0,0.0,0.0,0.0,0.0,0.0,0.0,0.0,0.0,0.0,0.0,0.0,0.0,0.0,0.0,0.0,0.0,0.0,0.0,0.0,0.0,3.4462,3.4433,0.0,3.4835,3.5169,3.5591,3.5913,3.6071,3.6038,0.0,0.0,0.0,0.0,0.0,0.0,0.0,0.0,0.0,0.0,0.0,0.0,0.0,0.0,0.0,0.0,0.0,0.0,0.0,0.0,0.0,0.0,0.0,0.0,0.0,0.0,0.0,0.0,0.0,0.0,0.0,0.0,0.0,0.0,0.0,0.0,0.0,0.0,0.0,0.0,0.0,0.0,0.0,0.0,0.0,0.0,0.0,0.0,0.0,0.0,0.0,0.0,0.0,0.0,0.0,0.0,0.0,0.0,0.0,0.0,0.0,0.0,0.0,0.0,0.0,0.0,0.0,0.0,0.0,0.0,0.0,0.0,0.0,0.0,0.0,0.0,0.0,0.0,0.0,0.0,0.0,0.0,0.0,0.0,0.0,0.0,0.0,0.0,0.0,0.0,0.0,0.0,0.0,0.0,0.0,0.0,0.0,0.0,0.0,0.0,0.0,0.0,3.453,3.4735,3.4839,0.0,3.5302,3.5753,3.607,3.6538,3.6783,3.6569,0.0,0.0,0.0,0.0,0.0,0.0,0.0,0.0,0.0,0.0,0.0,0.0,0.0,0.0,0.0,0.0,0.0,0.0,0.0,0.0,0.0,0.0,0.0,0.0,0.0,0.0,0.0,0.0,0.0,0.0,0.0,0.0,0.0,0.0,0.0,0.0,0.0,0.0,0.0,0.0,0.0,0.0,0.0,0.0,0.0,0.0,0.0,0.0,0.0,0.0,0.0,0.0,0.0,0.0,0.0,0.0,0.0,0.0,0.0,0.0,0.0,0.0,0.0,0.0,0.0,0.0,0.0,0.0,0.0,0.0,0.0,0.0,0.0,0.0,0.0,0.0,0.0,0.0,0.0,0.0,0.0,0.0,0.0,0.0,0.0,0.0,0.0,0.0,0.0,0.0,0.0,0.0,0.0,0.0,0.0,0.0,0.0,0.0,0.0,0.0,0.0,0.0,3.4765,3.5397,3.5849,3.572,3.6228,3.6569,3.6507,3.7057,3.7265,0.0,0.0,0.0,0.0,0.0,0.0,0.0,0.0,0.0,0.0,0.0,0.0,0.0,0.0,0.0,0.0,0.0,0.0,0.0,0.0,0.0,0.0,0.0,0.0,0.0,0.0,0.0,0.0,0.0,0.0,0.0,0.0,0.0,0.0,0.0,0.0,0.0,0.0,0.0,0.0,0.0,0.0,0.0,0.0,0.0,0.0,0.0,0.0,0.0,0.0,0.0,0.0,0.0,0.0,0.0,0.0,0.0,0.0,0.0,0.0,0.0,0.0,0.0,0.0,0.0,0.0,0.0,0.0,0.0,0.0,0.0,0.0,0.0,0.0,0.0,0.0,0.0,0.0,0.0,0.0,0.0,0.0,0.0,0.0,0.0,0.0,0.0,0.0,0.0,0.0,0.0,0.0,0.0,0.0,0.0,0.0,0.0,0.0,0.0,0.0,0.0,0.0,0.0,3.5559,3.5753,3.5881,3.5849,3.6352,3.6814,3.7237,3.7799,3.8059,3.7908,0.0,0.0,0.0,0.0,0.0,0.0,0.0,0.0,0.0,0.0,0.0,0.0,0.0,0.0,0.0,0.0,0.0,0.0,0.0,0.0,0.0,0.0,0.0,0.0,0.0,0.0,0.0,0.0,0.0,0.0,0.0,0.0,0.0,0.0,0.0,0.0,0.0,0.0,0.0,0.0,0.0,0.0,0.0,0.0,0.0,0.0,0.0,0.0,0.0,0.0,0.0,0.0,0.0,0.0,0.0,0.0,0.0,0.0,0.0,0.0,0.0,0.0,0.0,0.0,0.0,0.0,0.0,0.0,0.0,0.0,0.0,0.0,0.0,0.0,0.0,0.0,0.0,0.0,0.0,0.0,0.0,0.0,0.0,0.0,0.0,0.0,0.0,0.0,0.0,0.0,0.0,0.0,0.0,0.0,0.0,0.0,0.0,0.0,0.0,0.0,0.0,0.0,3.5913,3.6259,3.6476,3.6258,3.6784,3.7268,3.7565,3.8173,3.8516,3.8371,0.0,0.0,0.0,0.0,0.0,0.0,0.0,0.0,0.0,0.0,0.0,0.0,0.0,0.0,0.0,0.0,0.0,0.0,0.0,0.0,0.0,0.0,0.0,0.0,0.0,0.0,0.0,0.0,0.0,0.0,0.0,0.0,0.0,0.0,0.0,0.0,0.0,0.0,0.0,0.0,0.0,0.0,0.0,0.0,0.0,0.0,0.0,0.0,0.0,0.0,0.0,0.0,0.0,0.0,0.0,0.0,0.0,0.0,0.0,0.0,0.0,0.0,0.0,0.0,0.0,0.0,0.0,0.0,0.0,0.0,0.0,0.0,0.0,0.0,0.0,0.0,0.0,0.0,0.0,0.0,0.0,0.0,0.0,0.0,0.0,0.0,0.0,0.0,0.0,0.0,0.0,0.0,0.0,0.0,0.0,0.0,0.0,0.0,0.0,0.0,0.0,0.0,3.6102,3.6876,3.73,3.6816,3.7417,3.7801,3.7599,3.8319,3.8683,3.852,0.0,0.0,0.0,0.0,0.0,0.0,0.0,0.0,0.0,0.0,0.0,0.0,0.0,0.0,0.0,0.0,0.0,0.0,0.0,0.0,0.0,0.0,0.0,0.0,0.0,0.0,0.0,0.0,0.0,0.0,0.0,0.0,0.0,0.0,0.0,0.0,0.0,0.0,0.0,0.0,0.0,0.0,0.0,0.0,0.0,0.0,0.0,0.0,0.0,0.0,0.0,0.0,0.0,0.0,0.0,0.0,0.0,0.0,0.0,0.0,3.5751,0.0,0.0,0.0,0.0,0.0,0.0,0.0,0.0,0.0,0.0,0.0,0.0,0.0,0.0,0.0,0.0,0.0,0.0,0.0,0.0,0.0,0.0,0.0,0.0,0.0,0.0,0.0,0.0,0.0,0.0,0.0,0.0,0.0,0.0,0.0,0.0,0.0,0.0,0.0,0.0,0.0,3.718,3.7361,3.745,3.7361,3.748,3.7743,3.818,3.8379,3.8655,3.9067,3.9235,0.0,0.0,0.0,0.0,0.0,0.0,0.0,0.0,0.0,0.0,0.0,0.0,0.0,0.0,0.0,0.0,0.0,0.0,0.0,0.0,0.0,0.0,0.0,0.0,0.0,0.0,0.0,0.0,0.0,0.0,0.0,0.0,0.0,0.0,0.0,0.0,0.0,0.0,0.0,0.0,0.0,0.0,0.0,0.0,0.0,0.0,0.0,0.0,0.0,0.0,0.0,0.0,0.0,0.0,0.0,0.0,0.0,0.0,0.0,0.0,3.6546,0.0,0.0,0.0,0.0,0.0,0.0,0.0,0.0,0.0,0.0,0.0,0.0,0.0,0.0,0.0,0.0,0.0,0.0,0.0,0.0,0.0,0.0,0.0,0.0,0.0,0.0,0.0,0.0,0.0,0.0,0.0,0.0,0.0,0.0,0.0,0.0,0.0,0.0,0.0,0.0,3.751,3.751,3.751,3.751,3.751,3.7628,3.795,3.8237,3.8548,3.8821,3.9154,0.0,0.0,0.0,0.0,0.0,0.0,0.0,0.0,0.0,0.0,0.0,0.0,0.0,0.0,0.0,0.0,0.0,0.0,0.0,0.0,0.0,0.0,0.0,0.0,0.0,0.0,0.0,0.0,0.0,0.0,0.0,0.0,0.0,0.0,0.0,0.0,0.0,0.0,0.0,0.0,0.0,0.0,0.0,0.0,0.0,0.0,0.0,0.0,0.0,0.0,0.0,0.0,0.0,3.751,3.751,3.751,3.751,3.751,3.751,3.751,3.7626,3.7828,3.7828,0.0,0.0,0.0,0.0,0.0,0.0,0.0,0.0,0.0,0.0,0.0,0.0,0.0,0.0,0.0,0.0,0.0,0.0,0.0,0.0,0.0,0.0,3.7828,3.7828,3.7828,3.7772,3.7569,0.0,0.0,0.0,0.0,0.0,0.0,0.0,0.0,0.0,0.0,0.0,3.751,3.751,3.751,3.751,3.751,3.751,3.7569,3.8004,3.8375,3.8572,3.8985,3.9282,0.0,0.0,0.0,0.0,0.0,0.0,0.0,0.0,0.0,0.0,0.0,0.0,0.0,0.0,0.0,0.0,0.0,0.0,0.0,0.0,0.0,0.0,0.0,0.0,0.0,0.0,0.0,0.0,0.0,0.0,0.0,0.0,3.5446,3.5983,0.0,0.0,0.0,0.0,0.0,0.0,0.0,0.0,0.0,0.0,0.0,0.0,0.0,3.7322,3.7322,3.7447,3.751,3.751,3.751,3.751,3.751,3.751,3.751,3.751,3.751,0.0,3.7569,3.7569,0.0,0.0,0.0,0.0,0.0,0.0,0.0,0.0,0.0,0.0,0.0,0.0,0.0,0.0,0.0,0.0,0.0,0.0,0.0,0.0,0.0,0.0,3.7569,3.7569,3.7569,3.7539,3.751,3.751,3.751,3.751,3.751,0.0,0.0,0.0,0.0,0.0,0.0,0.0,3.751,3.751,3.751,3.751,3.751,3.7567,3.7828,3.7915,3.8339,3.9216,3.9034,3.9302,4.022,3.9952,0.0,0.0,0.0,0.0,0.0,0.0,0.0,0.0,0.0,0.0,0.0,0.0,0.0,0.0,0.0,0.0,0.0,0.0,0.0,0.0,0.0,0.0,0.0,0.0,0.0,0.0,0.0,0.0,0.0,3.6593,3.669,3.6975,3.7006,3.7133,0.0,0.0,0.0,0.0,0.0,0.0,0.0,0.0,0.0,3.751,3.751,3.751,3.751,3.751,3.751,3.751,3.751,3.751,3.751,3.751,3.751,3.751,3.751,3.751,3.751,3.751,3.751,3.751,0.0,0.0,0.0,0.0,3.7685,3.7714,3.8033,3.8119,3.8119,3.8119,0.0,0.0,0.0,0.0,0.0,0.0,0.0,3.7655,3.7539,3.751,3.751,3.751,3.751,3.751,3.751,3.751,3.751,0.0,3.751,3.751,3.751,0.0,0.0,0.0,0.0,3.751,3.751,3.751,3.751,3.751,3.751,3.7569,3.7655,3.8004,3.8455,3.9102,3.9329,3.9722,4.0392,4.0245,4.0245,0.0,0.0,0.0,0.0,0.0,0.0,0.0,0.0,0.0,0.0,0.0,0.0,0.0,0.0,0.0,0.0,0.0,0.0,0.0,0.0,0.0,0.0,0.0,0.0,0.0,0.0,0.0,0.0,3.751,3.751,3.751,3.751,3.751,0.0,0.0,0.0,0.0,0.0,0.0,3.751,3.751,3.751,3.751,3.751,3.751,3.751,3.751,3.751,3.751,3.751,3.751,3.751,3.751,3.751,3.751,3.751,3.751,3.751,3.751,3.751,3.751,3.751,3.751,3.751,3.751,3.751,3.7539,3.7743,3.7799,3.7799,3.7799,3.7976,3.8094,3.7658,0.0,0.0,0.0,0.0,3.7539,3.7685,3.7714,3.7743,3.7918,3.7831,3.7714,3.7714,3.7596,3.751,0.0,3.751,3.751,3.751,0.0,0.0,0.0,0.0,3.8016,3.8016,3.8016,3.8016,3.8016,3.8016,3.8016,3.8016,3.8579,3.9117,3.9605,3.9953,4.04,4.0992,4.0714,4.0611,4.0707,0.0,0.0,0.0,0.0,0.0,0.0,0.0,0.0,0.0,0.0,0.0,0.0,0.0,0.0,0.0,0.0,0.0,0.0,0.0,0.0,0.0,0.0,0.0,0.0,0.0,0.0,0.0,0.0,0.0,3.751,3.751,0.0,0.0,0.0,0.0,3.751,3.751,3.751,3.751,3.751,3.751,3.751,3.751,3.751,3.751,3.751,3.751,3.751,3.751,3.751,3.751,3.751,3.751,3.751,3.751,3.751,3.751,3.751,3.751,3.751,3.751,3.751,3.751,3.751,3.751,3.751,3.751,3.7539,3.7539,3.7539,3.7539,3.7539,3.751,3.751,0.0,0.0,3.751,3.7596,3.8141,3.825,3.839,3.8974,3.8673,3.825,3.825,3.7857,3.751,0.0,3.751,3.751,3.751,0.0,3.846,3.846,3.8997,3.9408,3.9408,3.9408,3.9408,3.9408,3.9408,3.9408,3.9408,4.0021,4.0729,4.151,4.1117,4.1392,4.2613,4.158,4.114,4.1538,4.1538,0.0,0.0,0.0,0.0,0.0,0.0,0.0,0.0,0.0,0.0,0.0,0.0,0.0,0.0,0.0,0.0,0.0,0.0,0.0,0.0,0.0,0.0,0.0,0.0,0.0,0.0,0.0,0.0,3.751,3.751,0.0,3.751,3.751,3.751,3.751,3.751,3.751,3.751,3.751,3.751,3.751,3.751,3.751,3.751,3.751,3.751,3.751,3.751,3.751,3.751,3.751,3.751,3.751,3.751,3.751,3.751,3.751,3.751,3.751,3.751,3.751,3.7539,3.7886,3.7799,3.7569,3.7886,3.7998,3.8055,3.8483,3.8595,3.8595,3.8595,3.8595,3.8595,3.8595,3.8311,3.8055,3.825,3.8026,3.7956,3.8608,3.859,3.8537,3.8984,3.926,3.9409,3.9409,3.873,3.827,3.8713,3.8997,3.9155,3.9155,3.9345,3.9503,3.9503,3.9503,3.9503,3.9503,3.9874,4.0148,4.0148,4.0947,4.1622,4.2165,4.2192,4.254,4.3337,4.2963,4.287,4.3079,4.2622,4.2377,0.0,0.0,0.0,0.0,0.0,0.0,0.0,0.0,0.0,0.0,0.0,0.0,0.0,0.0,0.0,0.0,0.0,0.0,0.0,0.0,0.0,0.0,0.0,0.0,0.0,0.0,3.751,3.751,3.751,3.751,3.751,3.751,3.751,3.751,3.751,3.751,3.751,3.7701,3.7828,3.7828,3.8079,3.8144,3.8144,3.8144,3.8144,3.8144,3.8144,3.8144,3.8144,3.8144,3.8144,3.8144,3.8144,3.8144,3.8144,3.8144,3.8144,3.8142,3.77,3.751,3.7539,3.7915,3.7831,3.7569,3.7915,3.8026,3.8112,3.8701,3.8756,3.8706,3.9055,3.9055,3.898,3.9433,3.9281,3.9093,3.9517,3.9392,3.9267,3.9956,3.9939,3.9894,4.0348,4.0622,4.0896,4.1125,4.0251,3.9542,3.981,4.0219,4.0379,3.9913,4.0448,4.0793,4.0577,4.0732,4.0762,4.0577,4.113,4.1431,4.1221,4.219,4.2915,4.3265,4.3426,4.3692,4.4165,4.3909,4.3793,4.3886,4.343,4.3184,4.3184,0.0,0.0,0.0,0.0,0.0,0.0,0.0,0.0,0.0,0.0,0.0,0.0,0.0,0.0,0.0,0.0,0.0,0.0,0.0,0.0,0.0,0.0,0.0,3.7687,3.751,3.7539,3.7541,3.7541,3.7541,3.7573,3.7573,3.7573,3.7573,3.7573,3.7573,3.7573,3.8175,3.8555,3.8555,3.9155,3.9503,3.9503,3.9503,3.9503,3.9503,3.9503,3.9503,3.9503,3.9503,3.9503,3.9503,3.9503,3.9503,3.9503,3.9503,3.9503,3.9376,3.8079,3.7571,3.7571,3.7601,3.763,3.763,3.763,3.763,3.7748,3.829,3.8091,3.7865,3.8985,3.8931,3.8697,4.0001,4.0364,4.064,4.197,4.2306,4.2411,4.303,4.274,4.2313,4.2347,4.1881,4.172,4.2422,4.1986,4.1352,4.072,4.1687,4.2118,4.0865,4.2286,0.0,4.271,4.3139,4.329,4.2679,4.3169,4.329,4.2679,4.3798,4.4625,4.4927,4.4802,4.4858,4.5126,4.4378,4.3957,4.3921,4.3921,4.3921,4.3886,0.0,0.0,0.0,0.0,0.0,0.0,0.0,0.0,0.0,0.0,0.0,0.0,0.0,0.0,0.0,0.0,0.0,0.0,0.0,0.0,0.0,0.0,3.9509,3.7755,3.7828,3.8136,3.8204,3.8239,3.8428,3.8902,3.8934,3.8934,3.8934,3.8934,3.8934,3.8934,3.9123,3.9218,3.9218,3.9408,3.9503,3.9503,3.9503,3.9503,3.9503,3.9503,3.9503,3.9503,3.9503,3.9503,3.9503,3.9503,3.9503,3.9503,3.9503,3.9503,3.9534,3.961,3.9339,3.8976,3.9875,4.0174,4.0174,4.0174,4.0534,4.1076,4.167,4.1748,4.167,4.2014,4.1989,4.1946,4.2279,4.2079,4.1849,4.2185,4.1977,4.1838,4.2512,4.2562,4.2584,4.306,4.3422,4.3721,4.3923,4.4122,4.3925,4.2841,4.2977,4.3112,4.2752,4.3158,0.0,4.329,4.341,4.329,4.2679,4.3558,4.3939,4.332,4.4429,4.5203,4.5389,4.5373,4.5474,4.575,4.554,4.5229,4.4764,4.4764,4.4483,0.0,0.0,0.0,0.0,0.0,0.0,0.0,0.0,0.0,0.0,0.0,0.0,0.0,0.0,0.0,0.0,0.0,0.0,0.0,0.0,0.0,0.0,4.1538,4.1044,3.9372,3.8956,3.885,3.8901,3.8934,3.9092,3.9471,3.9503,3.9503,3.9503,3.9503,3.9503,3.9503,4.0072,4.0388,4.0388,4.0956,4.1241,4.1241,4.1272,4.1272,4.1272,4.1272,4.1272,4.1272,4.1272,4.1272,4.1272,4.1241,4.1241,4.1241,4.1247,4.1215,0.0,0.0,0.0,0.0,0.0,4.1258,4.1258,4.1258,4.1587,4.2004,4.2628,4.2654,4.255,4.3047,4.3021,4.2929,4.3501,4.3391,4.3192,4.3534,4.3362,4.3185,4.3597,4.3698,4.3833,4.4181,4.4597,4.4879,4.4879,4.515,0.0,4.4423,4.4282,4.4112,4.3555,4.3968,4.4197,4.3939,4.414,4.4083,4.3529,4.4373,4.4708,4.4169,4.5008,0.0,0.0,0.0,4.5889,4.609,4.6055,0.0,0.0,0.0,4.5302,4.4869,4.4869,0.0,0.0,4.4202,4.3886,0.0,0.0,0.0,0.0,0.0,0.0,0.0,0.0,0.0,0.0,0.0,0.0,0.0,0.0,0.0,0.0,4.2709,4.2945,4.1883,4.0702,3.9911,3.9754,3.9692,3.9661,3.9724,3.9724,3.9756,3.985,3.985,3.9882,3.9977,0.0,0.0,0.0,0.0,4.3709,4.3709,4.3706,4.3703,4.3671,4.3703,4.374,4.3809,4.3809,4.3844,4.3947,4.3949,4.3949,4.3918,4.388,4.3847,4.3589,4.0925,4.0335,4.0987,4.146,4.1655,4.1722,4.1722,0.0,0.0,4.2462,4.2301,4.2049,4.3134,4.3083,4.2898,4.4113,4.4414,4.4561,4.5225,4.5397,4.5397,4.5397,4.5397,4.5397,4.5397,4.5397,4.5397,4.5397,4.5397,4.5397,4.5397,4.5397,4.5015,4.3877,4.468,4.5211,4.4686,4.5069,4.5203,4.4735,0.0,0.0,4.4927,4.5468,4.5863,4.6015,4.6005,4.609,4.6214,4.6214,4.6214,4.6214,4.6214,4.6214,4.6214,4.6214,4.6214,4.6179,4.4799,4.4167,0.0,0.0,0.0,0.0,0.0,0.0,0.0,0.0,0.0,0.0,0.0,0.0,0.0,0.0,0.0,4.457,4.4409,4.4162,4.3934,4.3215,4.2332,4.1233,4.0673,4.0609,4.1146,4.1178,4.143,4.2031,4.2062,4.2315,4.285,4.3169,4.3261,4.3261,4.3548,4.3706,4.3706,4.3671,4.3706,4.3674,0.0,0.0,4.4492,4.4492,4.4821,4.5401,4.5368,4.5401,4.5368,4.5362,4.5359,4.5191,4.3298,4.2996,4.35,4.3049,4.3211,4.3725,4.3725,4.4137,4.4651,4.4765,4.4704,4.4651,4.4897,4.4897,0.0,4.5095,4.519,4.5225,4.5363,4.5397,4.5397,4.5397,4.5397,4.5397,4.5397,4.5397,4.5397,4.5397,4.5397,4.5397,4.5397,4.5397,4.5318,4.5069,4.523,4.5371,4.5238,4.5344,4.5184,4.4597,4.5177,4.5363,4.479,4.5415,4.5863,4.6015,4.6115,4.6189,4.6214,4.6214,4.6214,4.6214,4.6214,4.6214,4.6214,4.6214,4.6214,4.6179,4.5898,4.5758,0.0,0.0,0.0,0.0,0.0,0.0,0.0,0.0,0.0,0.0,0.0,4.4456,0.0,0.0,4.5042,4.5344,4.5157,4.4934,4.4934,4.4705,4.4031,4.2679,4.2606,4.2653,4.259,4.2909,4.3161,4.3203,4.32,4.3358,4.3671,4.4018,4.4211,4.4211,4.4881,4.5104,4.4749,4.5069,4.5104,4.4749,4.5104,4.5452,4.5759,4.6126,4.6486,4.6872,4.6872,4.6872,4.687,4.6817,4.6784,4.6675,4.584,4.5507,4.546,4.5042,4.5113,4.5389,4.4975,4.5113,4.5397,4.5397,4.5397,4.5397,4.5397,4.5397,4.5397,4.5397,4.5397,4.5397,4.5397,4.5397,4.5397,4.5397,4.5397,4.5397,4.5397,4.5397,4.5397,4.5397,4.5707,4.5983,4.5983,4.6293,4.6293,4.55,4.5397,4.5397,4.5397,4.5397,4.5318,4.5069,4.5441,4.5598,4.5354,4.5752,4.604,4.6115,4.6165,4.6214,4.6214,4.6214,4.6214,4.6214,4.6214,4.6214,4.6214,4.6214,4.6214,4.6214,4.6214,4.6214,0.0,0.0,0.0,0.0,0.0,0.0,0.0,0.0,4.5397,4.5397,4.55,4.5638,4.5638,4.5742,4.5845,4.5845,4.5845,4.5845,4.5845,4.5945,4.5602,4.447,4.4517,4.4483,4.388,4.4235,4.4422,4.4138,4.4103,4.4167,4.4294,4.4941,4.5333,4.5333,4.6401,4.6759,4.6191,4.6724,4.6724,4.6191,4.6759,4.7069,4.7238,4.7836,4.816,4.8321,4.8321,4.8321,4.8286,4.8244,4.8206,4.8148,4.8148,4.7832,4.7287,4.6921,4.6837,4.6734,4.6052,4.5845,4.5845,4.5845,4.5742,4.5638,4.5638,4.55,4.5397,4.5397,4.5397,4.5397,4.5397,4.55,4.5638,4.5638,4.5742,4.5845,4.5845,4.5845,4.5845,4.5845,4.6362,4.6837,4.6837,4.7348,4.7313,4.6017,4.5845,4.5845,4.5845,4.5845,4.5898,4.6022,4.6152,4.6307,4.6495,4.662,4.667,4.6635,4.6635,4.6635,4.6635,4.6635,4.6635,4.667,4.6635,4.6635,4.667,4.667,4.667,4.6635,4.6635,4.6495,4.0451,4.0893,4.1693,4.2936,4.3389,4.366,0.0,0.0,4.5397,4.5397,4.5949,4.6493,4.6493,4.701,4.7431,4.7431,4.7431,4.7431,4.7431,4.7472,4.7389,4.7264,4.5732,4.4659,4.4593,4.4124,4.4273,4.5462,4.5594,4.5819,4.6431,4.7142,4.754,4.754,4.7671,4.7737,4.7671,4.7737,4.7737,4.7671,4.7737,4.8095,4.8666,4.8759,4.9131,4.9772,4.9772,4.9772,4.9772,4.9762,4.9746,4.9735,4.9735,4.9706,4.9476,4.8086,4.7596,4.7534,4.7465,4.7431,4.7431,4.7431,4.701,4.6493,4.6493,4.5949,4.5397,4.5397,4.5397,4.5397,4.5397,4.5914,4.6493,4.6493,4.6948,4.7431,4.7431,4.7431,4.7431,4.7431,4.7527,4.7596,4.7596,4.7741,4.7796,4.7493,4.7431,4.7431,4.7431,4.7431,4.7513,4.7642,4.7777,4.7963,4.8259,4.8345,4.831,4.8249,4.8249,4.8249,4.8249,4.8249,4.8249,4.8345,4.8249,4.8249,4.8345,4.8345,4.831,4.8249,4.8249,4.7512,4.1083,4.1693,4.2396,0.0,4.4094,4.4928,4.5589,4.6234,4.6741,4.6741,4.6983,4.7251,4.7251,4.7465,4.7672,0.0,4.7672,4.7672,4.7672,4.8051,4.8214,4.7807,4.7396,4.6965,4.6566,4.6645,4.6782,4.7013,4.7046,4.7144,4.7439,4.7704,4.7901,4.7901,4.8288,4.8288,4.7901,4.8288,4.8288,4.7901,4.8288,4.8635,4.8914,4.9346,4.9708,5.0011,5.0011,5.0011,5.0011,5.0011,5.0011,5.0011,5.0011,5.0011,4.9873,4.8741,4.8327,4.8258,4.7844,4.7672,4.7672,4.7672,4.7465,4.7251,4.7251,4.6983,4.6741,4.6741,4.6741,4.6741,4.6741,4.6983,4.7251,4.7251,4.7465,4.7672,4.7672,4.7672,4.77,4.781,4.8183,4.8557,4.864,4.9007,4.9347,4.9292,4.8501,4.7912,4.7912,4.7912,4.7966,4.8127,4.818,4.8312,4.853,4.8556,4.8556,4.8495,4.8495,4.8495,4.8495,4.8495,4.8556,4.8591,4.8591,4.8556,4.8556,4.8556,4.8556,4.8495,4.8495,4.8144,4.1525,4.2267,0.0,4.3222,4.4296,4.5462,4.5969,4.6749,4.7386,4.7386,4.7698,4.7982,4.7982,4.8155,4.8355,4.8355,4.8355,4.8355,4.8355,4.8775,4.8942,4.8469,4.8886,4.8988,4.8477,4.8517,4.8509,4.8192,4.816,4.816,4.816,4.8385,4.848,4.848,4.8948,4.908,4.8782,4.9252,4.9385,4.9115,4.9385,4.9498,4.9528,4.984,5.0011,5.0011,5.0011,5.0011,5.0011,5.0011,5.0011,5.0011,5.0011,5.0011,4.9942,4.9355,4.912,4.9051,4.8528,4.8355,4.8355,4.8355,4.8155,4.7982,4.7982,4.7844,4.7672,4.7672,4.7672,4.7672,4.7672,4.7844,4.7982,4.7982,4.8211,4.8377,4.8377,4.8404,4.846,4.8563,4.9077,4.9486,4.9597,5.0077,5.0453,5.0453,4.9567,4.8835,4.8727,4.8754,4.8835,4.8942,4.8968,4.9083,4.9127,4.9153,4.9153,4.9153,4.9153,4.9153,4.9153,4.9153,4.9188,4.9223,4.9223,4.9223,4.9153,4.9153,4.9153,4.9153,4.9153,4.9153,4.1778,0.0,4.3519,4.2889,4.3744,4.4723,4.4756,4.5744,4.665,4.665,4.7791,4.8775,4.8775,4.9424,4.9942,4.9942,4.9942,4.9942,4.9942,4.9942,4.9976,4.9947,4.9947,4.9947,0.0,4.8731,4.8192,4.8821,4.8883,4.8883,4.8883,4.956,4.9952,4.9952,4.9952,5.0326,5.102,5.102,5.1365,5.2088,5.1365,5.105,5.1016,5.0321,5.0011,5.0011,5.0011,5.0011,5.0011,5.0011,5.0011,5.0011,5.0011,5.0011,5.0011,4.9976,4.9976,4.9976,4.9942,4.9942,4.9942,4.9942,4.9424,4.8775,4.8775,4.8258,4.7672,4.7672,4.7672,4.7672,4.7672,4.8224,4.8775,4.8775,4.9469,5.0102,5.0102,5.0215,5.03,5.03,5.0335,5.0363,5.0363,5.0474,5.0585,5.0585,5.0721,5.0694,5.0356,5.0467,5.0515,5.0515,5.0686,5.0803,5.0838,5.0838,5.0838,5.0838,5.0838,5.0838,5.0838,5.0838,5.0838,5.0838,5.0838,5.0838,5.0838,5.0838,5.0838,5.0838,5.0838,5.0838,4.3074,0.0,4.4325,4.4068,4.5049,4.6156,4.6631,4.7463,4.826,4.8744,4.9246,4.9597,4.9597,4.9838,5.0011,5.0011,5.0011,5.0011,5.0011,5.0011,5.0011,5.0011,5.0011,0.0,0.0,0.0,0.0,4.9619,4.9619,4.9619,4.9619,5.0341,5.0735,5.0735,5.1188,5.1597,5.1808,5.1808,5.1946,5.2188,5.1946,5.1808,5.1774,5.108,5.0735,5.07,5.0218,5.0011,5.0011,5.0011,5.0011,5.0011,5.0011,5.0011,5.0011,5.0011,5.0011,5.0011,5.0011,5.0011,5.0011,5.0011,4.9838,4.9597,4.9597,4.9424,4.9252,4.9252,4.9252,4.9252,4.9252,4.9475,4.9705,4.9705,5.0027,5.0313,5.0313,5.0369,5.0425,5.0537,5.0502,5.0592,5.071,5.0764,5.0819,5.0819,5.0846,5.0846,5.0737,5.0792,5.0819,5.0819,5.0846,5.0873,5.0873,5.0873,5.0873,5.0873,5.0873,5.0873,5.0873,5.0873,5.0873,5.0873,5.0873,5.0873,5.0873,5.0873,5.0873,5.0873,5.0873,5.0873,4.3766,4.4365,4.503,4.4773,4.5731,4.6848,4.7333,4.8205,4.9006,4.9496,4.983,5.0011,5.0011,5.0011,5.0011,5.0011,5.0011,5.0011,5.0011,5.0011,5.0011,5.0011,5.0011,5.0011,0.0,0.0,0.0,5.0011,5.0252,5.039,5.039,5.1114,5.1494,5.1494,5.1946,5.2326,5.2632,5.2632,5.2632,5.2632,5.2632,5.2494,5.2153,5.1735,5.1494,5.1459,5.0735,5.039,5.039,5.0114,5.0011,5.0011,5.0011,5.0011,5.0011,5.0011,5.0011,5.0011,5.0011,5.0011,5.0011,5.0011,5.0011,5.0011,5.0011,5.0011,5.0011,5.0068,5.0063,5.0063,5.012,5.0206,5.0257,5.0257,5.0369,5.0481,5.0481,5.0509,5.0592,5.0702,5.0702,5.0729,5.0873,5.0873,5.0873,5.0873,5.0873,5.0873,5.0873,5.0873,5.0873,5.0873,5.0873,5.0873,5.0873,5.0873,5.0873,5.0873,5.0873,5.0873,5.0873,5.0873,5.0873,5.0873,5.0873,5.0873,5.0873,5.0873,5.0873,5.0873,5.0873,5.0873,4.3955,4.4812,4.5634,4.4938,4.5789,4.6828,4.6862,4.79,4.8914,4.8944,4.9496,5.0011,0.0,0.0,5.0011,5.0011,5.0011,5.0011,5.0011,5.0011,5.0011,0.0,0.0,0.0,0.0,0.0,0.0,5.008,0.0,5.1149,5.1149,5.1873,5.2257,5.2257,5.2291,5.2701,5.346,5.346,5.346,5.346,5.346,5.308,5.2291,5.2257,5.2257,5.2222,5.1464,5.1183,5.1114,5.0355,5.008,5.0045,5.0011,5.0011,5.0011,5.0011,5.0011,5.0011,5.0011,5.0011,5.0011,5.0011,5.0011,5.0011,5.0011,5.0011,5.004,5.0178,5.02,5.0228,5.0341,5.0397,5.0397,5.0397,5.0537,5.0612,5.0612,5.0792,5.0873,5.0873,5.0873,5.0873,5.0873,5.0873,5.0873,5.0873,5.0873,5.0873,5.0873,5.0873,5.0873,5.0873,5.0873,5.0873,5.0873,5.0873,5.0873,5.0873,5.0873,5.0873,5.0873,5.0873,5.0873,5.0873,5.0873,5.0873,5.0873,5.0873,5.0873,5.0873,5.0873,5.0873,4.5317,4.5539,4.576,4.557,4.6173,4.6932,4.7473,4.8288,4.907,4.9619,4.986,5.0011,0.0,0.0,0.0,5.0011,5.0011,0.0,5.0011,5.0011,0.0,5.0011,0.0,5.0011,5.0011,5.0493,0.0,0.0,5.1011,5.1356,5.1877,5.2666,5.3115,5.3115,5.3632,5.4011,5.4218,5.4218,5.4218,5.4218,5.4218,5.4115,5.3908,5.3356,5.3115,5.3046,5.2287,5.1912,5.1843,5.1149,5.0838,5.0769,5.0218,5.0011,5.0011,5.0011,5.0011,5.0011,5.0011,5.0011,5.0011,5.0011,5.0011,5.0011,5.0011,5.0063,5.0178,5.0171,5.0257,5.0341,5.0369,5.0481,5.053,5.053,5.0675,5.0819,5.0819,5.0846,5.0873,5.0873,5.0873,5.0873,5.0873,5.0873,5.0873,5.0873,5.0873,5.0873,5.0873,5.0873,5.0873,5.0873,5.0873,5.0873,5.0873,5.0873,5.0873,5.0873,5.0873,5.0873,5.0873,5.0873,5.0873,5.0873,5.0873,5.0873,5.0873,5.0873,5.0873,5.0873,5.0873,5.0873,4.6262,4.6044,4.5936,4.6547,4.6999,4.7473,4.8192,4.8886,4.953,4.9889,5.0011,0.0,5.0011,5.0011,0.0,0.0,0.0,0.0,5.0011,5.0011,5.0011,0.0,5.0011,0.0,5.0011,5.0666,5.1252,0.0,5.1908,5.2287,5.2701,5.346,5.3873,5.3873,5.4287,5.4494,5.4494,5.4494,5.4494,5.4494,5.4494,5.4494,5.4494,5.408,5.3873,5.3839,5.308,5.2735,5.2666,5.1908,5.139,5.108,5.0666,5.0287,5.0011,5.0011,5.0011,5.0011,5.0011,5.0068,5.0063,5.004,5.0068,5.0092,5.0092,5.0178,5.0285,5.0369,5.0425,5.0509,5.0599,5.0682,5.0729,5.0729,5.0819,5.0873,5.0873,5.0873,5.0873,5.0873,5.0873,5.0873,5.0873,5.0873,5.0873,5.0873,5.0873,5.0873,5.0873,5.0873,5.0873,5.0873,5.0873,5.0873,5.0873,5.0873,5.0873,5.0873,5.0873,5.0873,5.0873,5.0873,5.0873,5.0873,5.0873,5.0873,5.0873,5.0873,5.0873,5.0908,5.1224,5.1365,4.6965,4.6512,4.6369,4.7605,4.7999,4.8192,4.8759,4.9466,5.0011,5.0011,0.0,5.0011,5.0011,5.0011,5.0011,5.0011,0.0,5.0011,5.0011,5.0011,5.0011,5.0011,5.0011,5.0045,5.0149,5.0804,5.1563,5.2291,5.3115,5.3563,5.3563,5.4149,5.4494,5.4494,5.4494,5.4494,5.4494,5.4494,5.4494,5.4494,5.4494,5.4494,5.4494,5.4494,5.4494,5.446,5.3839,5.3563,5.3494,5.2701,5.1977,5.139,5.1287,5.0873,5.0287,5.0183,5.0149,5.0149,5.0045,5.0092,5.0206,5.0063,5.012,5.0235,5.0235,5.0313,5.0453,5.0557,5.0612,5.0702,5.0846,5.0873,5.0873,5.0873,5.0873,5.0873,5.0873,5.0873,5.0873,5.0873,5.0873,5.0873,5.0873,5.0873,5.0873,5.0873,5.0873,5.0873,5.0873,5.0873,5.0873,5.0873,5.0873,5.0873,5.0873,5.0873,5.0873,5.0873,5.0873,5.0873,5.0873,5.0873,5.0943,5.1049,5.1049,5.1084,5.1189,5.1189,5.1189,5.1224,5.1856,5.2172,4.7704,4.7605,4.7605,4.7869,4.8319,4.8759,4.8883,4.9466,0.0,0.0,5.0011,5.0011,5.0011,5.0011,5.0011,5.0011,5.0011,5.0011,5.0011,5.0011,5.0011,0.0,5.0011,5.0252,5.0873,5.1597,0.0,0.0,5.3908,5.4322,5.4322,5.4425,5.4494,5.4494,5.4494,5.4494,5.4494,5.4494,5.4494,5.4494,5.4494,5.4494,5.4494,5.4494,5.4494,5.4494,5.4356,0.0,5.4253,5.3494,5.3115,5.2942,5.2257,5.1912,5.174,5.1149,5.0907,5.0838,5.0218,5.0092,5.0206,5.0178,5.0263,5.0341,5.0341,5.0453,5.0557,5.0585,5.0729,5.0846,5.0873,5.0873,5.0873,5.0873,5.0873,5.0873,5.0873,5.0873,5.0873,5.0873,5.0873,5.0873,5.0873,5.0873,5.0873,5.0873,5.0873,5.0873,5.0873,5.0873,5.0873,5.0873,5.0873,5.0873,5.0873,5.0873,5.0873,5.0873,5.0873,5.0873,5.0873,5.0873,5.1189,5.1821,5.1821,5.2137,5.2797,5.2797,5.2797,5.2797,5.2909,5.298,4.8415,4.816,4.8096,4.8827,4.8948,4.8975,4.9376,0.0,0.0,0.0,5.0011,5.0011,5.0011,5.0011,0.0,5.0011,5.0011,5.0011,5.0011,5.0011,0.0,5.0011,5.0011,5.0287,0.0,5.177,5.2532,5.3356,5.408,5.4494,5.4494,5.4494,5.4494,5.4494,5.4494,5.4494,5.4494,5.4494,5.4494,5.4494,5.4494,5.4494,5.4494,5.4494,5.4494,5.4494,5.4494,5.4494,5.4494,5.4115,5.3767,5.3479,5.3065,5.2745,5.2424,5.2072,5.1933,5.1899,5.1552,5.15,5.1609,5.1609,5.1115,5.0509,5.0509,5.062,5.0757,5.0757,5.0819,5.0873,5.0873,5.0873,5.0873,5.0873,5.0873,5.0873,5.0873,5.0873,5.0873,5.0873,5.0873,5.0873,5.0873,5.0873,5.0873,5.0873,5.0873,5.0873,5.0873,5.1224,5.1329,5.0943,5.0873,5.0873,5.0873,5.1259,5.147,5.147,5.1856,5.2094,5.2094,5.2094,5.2242,5.2628,5.2628,5.2804,5.3218,5.3218,5.3218,5.3218,5.3576,5.3752,4.9131,4.8762,4.8606,4.9742,4.956,4.9286,4.986,5.0011,0.0,0.0,5.0011,5.0011,5.0011,5.0011,5.0011,0.0,5.0011,5.0011,5.0011,5.0011,5.0011,0.0,0.0,0.0,5.1252,5.1873,0.0,5.3563,5.4184,5.4494,5.4494,5.4494,5.4494,5.4494,5.4494,5.4494,5.4494,5.4494,5.4494,5.4494,5.4494,5.4494,5.4494,5.4494,5.4494,5.4494,5.4494,5.4494,5.4557,5.4557,5.4306,5.3905,5.3905,5.3614,5.3177,5.3037,5.2968,5.2933,5.2759,5.2811,5.2927,5.2927,5.2011,5.0885,5.0885,5.0897,5.0873,5.0873,5.0873,5.0873,5.0873,5.0873,5.0873,5.0873,5.0873,5.0873,5.0873,5.0873,5.0873,5.0873,5.0873,5.0873,5.0873,5.0873,5.0943,5.1119,5.1119,5.1189,5.1365,5.2001,5.2189,5.1652,5.1446,5.1365,5.1365,5.1926,5.2277,5.2277,5.2839,5.3218,5.3218,5.3218,5.3345,5.3626,5.3626,5.3752,5.4068,5.4068,5.4068,5.4068,5.4641,5.4924,4.9889,4.986,4.983,4.9982,4.9952,4.9923,4.9982,0.0,0.0,5.0011,5.0011,5.0011,5.0011,5.0011,5.0011,5.0011,0.0,5.0011,5.0011,5.0011,5.0011,0.0,0.0,0.0,5.1946,5.2153,5.2808,5.4287,5.446,5.4494,5.4494,5.4494,5.4494,5.4494,5.4494,5.4494,5.4494,5.4494,5.4494,5.4494,5.4494,5.4494,5.4494,5.4494,5.4494,5.4494,5.4494,5.4623,0.0,5.4749,5.4803,5.4887,5.4887,5.4852,5.4713,5.4047,5.3803,5.3699,5.2968,5.2811,5.2927,5.2962,5.2488,5.1864,5.1864,5.1435,5.0873,5.0873,5.0873,5.0873,5.0873,5.0873,5.0873,5.0873,5.0873,5.0873,5.0873,5.0873,5.0873,5.0873,5.0873,5.0873,5.0873,5.0873,5.1119,5.1821,5.1926,5.2172,5.2902,5.3477,5.3787,5.3716,5.327,5.3008,5.3008,5.3078,5.3113,5.3113,5.3183,5.3218,5.3218,5.3218,5.3752,5.4911,5.4937,5.5534,5.6747,5.6747,5.6747,5.6747,5.6819,5.6855,5.0011,5.0011,5.0011,5.0011,5.0011,5.0011,5.0011,0.0,5.0011,5.0011,5.0011,5.0011,5.0011,5.0011,5.0011,0.0,0.0,0.0,5.0011,0.0,5.0011,5.0011,5.0011,0.0,0.0,0.0,5.2839,5.4391,5.4494,5.4494,5.4494,5.4494,5.4494,5.4494,5.4494,5.4494,5.4494,5.4494,5.4494,5.4494,5.4494,5.4494,5.4494,5.4623,5.4686,5.4686,5.4745,5.4838,0.0,5.49,5.4992,5.5109,5.5109,5.5204,5.5294,5.4979,5.4874,5.4839,5.4489,5.4414,5.4472,5.4507,5.401,5.3296,5.2839,5.2523,5.2305,5.2305,5.2305,5.2172,5.1681,5.1224,5.0873,5.0873,5.0873,5.0873,5.0873,5.0873,5.0981,5.1289,5.1721,5.2171,5.2466,5.2935,5.3329,5.3652,5.3688,5.3795,5.4118,5.4727,5.5141,5.5141,5.4568,5.4154,5.4154,5.4558,5.4844,5.4844,5.5284,5.5534,5.5534,5.5534,5.5783,5.6279,5.6279,5.6562,5.7116,5.7116,5.7116,5.7116,5.7116,5.7116,5.0011,5.0011,5.0011,5.0011,5.0011,5.0011,0.0,0.0,5.0011,5.0011,5.0011,5.0011,5.0011,5.0011,5.0011,0.0,0.0,5.0011,5.0011,5.0011,5.0011,0.0,0.0,5.0838,0.0,5.2601,5.3356,5.4425,5.4494,5.4494,5.4494,5.4494,5.4494,5.4494,5.4494,5.4494,5.4494,5.4494,5.456,5.4592,5.4592,5.4623,5.4652,5.4811,5.4873,5.4873,5.4961,5.5022,0.0,5.5083,5.5174,5.5259,5.5259,5.5383,5.5507,5.5507,5.5625,5.5735,5.5735,5.585,5.5957,5.5957,5.5596,5.5028,5.4524,5.3815,5.3268,5.3591,5.3673,5.3531,5.2999,5.2334,5.1865,5.2015,5.1909,5.1865,5.2015,5.2067,5.2135,5.248,5.2985,5.3529,5.3892,5.4399,5.487,5.5088,5.5124,5.5233,5.5426,5.6055,5.6491,5.6491,5.6184,5.5856,5.5487,5.5945,5.6271,5.6271,5.679,5.7116,5.7116,5.7116,5.7191,5.734,5.734,5.7413,5.7558,5.7558,5.7558,5.7558,5.7558,5.7558,5.0011,5.0011,5.0011,5.0011,5.0011,5.0011,0.0,0.0,5.0011,5.0011,5.0011,5.0011,5.0011,5.0011,5.0011,5.0011,0.0,0.0,5.0011,5.0011,5.0011,0.0,0.0,5.139,5.2119,5.3598,5.4494,5.4494,5.4494,0.0,5.4494,5.4494,5.4494,5.4494,5.4494,5.4494,5.4494,5.4494,5.4623,5.478,5.478,5.4873,5.4992,5.4992,5.4992,5.4992,5.4992,5.5083,0.0,5.5199,5.5324,5.5507,5.5507,5.5507,5.5507,5.5507,5.585,5.6284,5.6284,5.6625,5.7091,5.7091,5.7091,5.7054,5.7054,5.5259,5.3435,5.4481,5.4798,5.4798,5.4761,5.4345,5.4102,5.4617,5.4345,5.4128,5.4641,5.4761,5.4761,5.4761,5.4761,5.4761,5.4798,5.4798,5.5051,5.5789,5.5873,5.6199,5.6971,5.7558,5.7863,5.7863,5.8326,5.8238,5.7155,5.708,5.7116,5.7116,5.7116,5.7116,5.7116,5.7116,5.7364,5.79,5.79,5.815,5.8677,5.8677,5.8677,5.8677,5.8677,5.8677,5.0011,5.0011,5.0011,5.0011,5.0011,5.0011,5.0011,5.0011,5.0011,5.0011,5.0011,5.0011,5.0011,5.0011,5.0011,5.0011,5.0011,0.0,0.0,0.0,0.0,5.0011,5.1114,5.2183,0.0,0.0,5.456,5.4686,5.4717,5.4749,5.4838,5.4838,5.4776,5.4717,5.4717,5.4749,5.4838,5.4838,5.4869,5.493,5.493,5.4961,5.4992,5.5079,5.5139,5.5139,5.5264,5.5389,5.5419,5.5419,5.5677,5.6042,5.6042,5.6257,5.6572,5.6572,5.6704,5.6835,5.6835,5.6964,5.7116,5.7116,5.7116,5.7166,5.7534,5.6804,5.5923,5.628,5.5981,5.5535,5.5535,5.5051,5.4604,5.4774,5.4677,5.4604,5.4774,5.4798,5.4893,5.5218,5.5725,5.6204,5.6587,5.7109,5.7552,5.7788,5.7825,5.7899,5.8135,5.8341,5.8449,5.8449,5.8614,5.8572,5.8216,5.8172,5.8172,5.8172,5.8172,5.8172,5.8172,5.8172,5.8297,5.8428,5.8449,5.8513,5.8698,5.8698,5.8698,5.8698,5.8698,5.8698,0.0,5.004,5.0063,5.0011,5.0068,5.0063,5.0011,5.0011,5.0011,5.0011,5.0011,5.004,5.0063,5.0063,5.0063,5.0063,5.0063,5.0063,0.0,0.0,0.0,5.0945,0.0,0.0,0.0,5.4406,5.4714,5.4873,5.4873,5.49,5.4992,5.4992,5.4992,5.493,5.4904,5.4934,5.4992,5.4992,5.5022,5.5083,5.5083,5.5113,5.5174,5.5294,5.5324,5.5324,5.5448,5.5507,0.0,5.5706,5.6014,5.6311,5.6492,5.6809,5.7116,5.7116,5.7241,5.7413,5.7413,5.7534,5.77,5.77,5.77,5.7747,5.8105,5.7969,5.7653,5.7462,5.7193,5.6955,5.6955,5.6473,5.6015,5.6223,5.6108,5.6038,5.6223,5.6269,5.6337,5.666,5.7109,5.7565,5.7914,5.8364,5.8698,5.8698,5.8698,5.8698,5.8698,5.8698,5.8698,5.8698,5.8698,5.8698,5.8698,5.8698,5.8698,5.8698,5.8698,5.8698,5.8698,5.8698,5.8698,5.8698,5.8698,5.8698,5.8698,5.8698,5.8698,5.8698,5.8698,5.8698,0.0,5.012,0.0,5.0068,5.012,5.0206,5.0068,5.004,0.0,5.0011,5.0011,5.0068,5.0178,5.0171,5.02,5.02,5.02,5.02,0.0,5.02,0.0,0.0,5.27,0.0,5.4852,5.4992,5.4992,5.5022,5.5022,5.5022,5.5022,5.5022,5.5113,5.5229,5.5113,5.5022,5.5022,5.5022,5.5113,5.5229,5.5229,5.5354,5.5566,5.5566,5.5596,0.0,5.5625,5.5625,5.5648,5.6146,5.6393,5.6474,5.6964,5.7191,5.7216,5.7216,5.7534,5.7969,5.7969,5.8297,5.8698,5.8698,5.8698,5.8698,5.8698,5.8698,5.8593,5.8082,5.8319,5.8698,5.8698,5.8341,5.8082,5.8593,5.8319,5.8082,5.8593,5.8698,5.8698,5.8698,5.8698,5.8698,5.8698,5.8698,5.8698,5.8698,5.8698,5.8698,5.8698,5.8698,5.8698,5.8698,5.8698,5.8698,5.8698,5.8698,5.8698,5.8698,5.8698,5.8698,5.8698,5.8698,5.8698,5.8698,5.8698,5.8698,5.8698,5.8698,5.8698,5.8698,5.8698,5.8698,5.0341,0.0,5.0313,5.0206,5.0228,5.0341,0.0,5.0235,5.0149,5.0149,5.0063,5.0068,5.0178,5.0171,5.0228,5.0313,5.0341,5.0341,5.0341,5.0341,0.0,5.2491,5.27,5.3321,5.4852,5.4992,5.5053,5.5139,5.5139,5.5234,5.5389,5.5389,5.5419,5.5448,5.5419,5.5389,5.5389,5.5389,5.5419,5.5448,5.5448,5.5677,5.6126,5.6126,5.6339,5.6704,5.6704,5.6704,5.6731,5.6861,5.7166,5.7534,5.7653,5.7969,5.8341,5.8341,5.8406,5.8492,5.8492,5.8593,5.8698,5.8698,5.8698,5.8698,5.8698,5.8698,5.8656,5.8572,5.8614,5.8698,5.8698,5.8614,5.8513,5.8656,5.8614,5.8572,5.8656,5.8698,5.8698,5.8698,5.8698,5.8698,5.8698,5.8698,5.8698,5.8698,5.8698,5.8698,5.8698,5.8698,5.8698,5.8698,5.8698,5.8698,5.8698,5.8698,5.8698,5.8698,5.8698,5.8698,5.8698,5.8698,5.8698,5.8698,5.8698,5.8698,5.8698,5.8698,5.8698,5.8698,5.8698,5.8698,5.062,5.0509,5.0453,5.0313,5.0397,5.0481,5.0397,5.0341,5.0285,5.0285,0.0,5.0235,5.0369,5.0397,5.0425,5.0481,5.0509,5.0509,0.0,0.0,5.157,5.2793,5.3212,5.3911,0.0,5.5204,5.5264,5.5324,5.5584,5.5642,5.5507,5.5735,5.5764,5.5507,5.5507,5.5507,5.5507,5.5507,5.5619,5.5879,5.5879,5.6154,5.6652,5.6652,5.6835,5.7116,5.7116,5.7116,5.7116,5.7364,5.7629,5.7946,5.8172,5.8428,5.8698,5.8698,5.8698,5.8698,5.8698,5.8698,5.8698,5.8698,5.8698,5.8698,5.8698,5.8698,5.8698,5.8698,5.8698,5.8698,5.8698,5.8698,5.8698,5.8698,5.8698,5.8698,5.8698,5.8698,5.8698,5.8698,5.8698,5.8698,5.8698,5.8698,5.8698,5.8698,5.8698,5.8698,5.8698,5.8698,5.8698,5.8698,5.8698,5.8698,5.8698,5.8698,5.8698,5.8698,5.8698,5.8698,5.8698,5.8698,5.8698,5.8698,5.8698,5.8698,5.8698,5.8698,5.8698,5.8698,5.8698,5.8698,5.1008,5.0848,5.0768,5.0509,5.0537,5.062,5.0481,0.0,0.0,0.0,0.0,0.0,0.0,5.0585,0.0,0.0,0.0,0.0,5.0675,5.1423,5.2312,5.3113,5.3857,0.0,5.5519,5.5619,5.5648,5.5735,5.6182,5.6201,5.5764,5.6174,5.6201,5.5764,5.5735,5.5735,5.5735,5.5648,5.5872,5.642,5.642,5.6704,5.7241,5.7241,5.7266,5.734,0.0,0.0,5.7389,5.7817,5.8037,5.806,5.8513,5.8698,5.8698,5.8698,5.8698,5.8698,5.8698,5.8698,5.8698,5.8698,5.8698,5.8698,5.8698,5.8698,5.8698,5.8698,5.8698,5.8698,5.8698,5.8698,5.8698,5.8698,5.8698,5.8698,5.8698,5.8698,5.8698,5.8698,5.8698,5.8698,5.8698,5.8698,5.8698,5.8698,5.8698,5.8698,5.8698,5.8698,5.8698,5.8698,5.8698,5.8698,5.8698,5.8698,5.8698,5.8698,5.8698,5.8698,5.8698,5.8698,5.8698,5.8698,5.8698,5.8698,5.8698,5.8698,5.8698,5.8698,5.8698,5.8698,5.2065,5.2042,5.1801,5.0822,5.0702,5.0846,5.0819,5.0675,0.0,0.0,0.0,0.0,0.0,5.0585,5.0675,0.0,0.0,5.0846,0.0,0.0,5.2312,5.3113,0.0,5.4796,5.6047,5.6174,5.6366,5.6809,5.6938,5.6938,5.6861,5.6938,5.6938,5.6861,5.6861,5.6861,5.6861,5.642,5.6447,5.6989,5.6989,5.7266,5.7771,5.7771,5.8037,5.8449,0.0,5.8449,5.8449,5.8513,5.8593,5.8593,5.8656,5.8698,5.8698,5.8698,5.8698,5.8698,5.8698,5.8698,5.8698,5.8698,5.8698,5.8698,5.8698,5.8698,5.8698,5.8698,5.8698,5.8698,5.8698,5.8698,5.8698,5.8698,5.8698,5.8698,5.8698,5.8698,5.8698,5.8698,5.8698,5.8698,5.8698,5.8698,5.8698,5.8698,5.8698,5.8698,5.8698,5.8698,5.8698,5.8698,5.8698,5.8698,5.8698,5.8698,5.8698,5.8698,5.8698,5.8698,5.8698,5.8698,5.8698,5.8698,5.8698,5.8698,5.8698,5.8698,5.8698,5.8698,5.8698,5.8698,5.2391,5.2299,5.2183,5.1654,5.1398,5.1331,5.1601,5.1398,5.1218,0.0,0.0,0.0,0.0,0.0,5.153,5.164,0.0,5.1525,5.2283,5.2998,5.3749,0.0,0.0,5.6045,5.6668,5.6731,5.6835,5.7091,5.7364,5.7413,5.7116,5.7389,5.7413,5.7116,5.7116,5.7241,5.7534,5.729,5.729,5.7534,5.7534,5.7794,5.8341,5.8341,5.8449,5.8698,0.0,5.8698,5.8698,5.8698,5.8698,5.8698,5.8698,5.8698,5.8698,5.8698,5.8698,5.8698,5.8698,5.8698,5.8698,5.8698,5.8698,5.8698,5.8698,5.8698,5.8698,5.8698,5.8698,5.8698,5.8698,5.8698,5.8698,5.8698,5.8698,5.8698,5.8698,5.8698,5.8698,5.8698,5.8698,5.8698,5.8698,5.8698,5.8698,5.8698,5.8698,5.8698,5.8698,5.8698,5.8698,5.8698,5.8698,5.8698,5.8698,5.8698,5.8698,5.8698,5.8698,5.8698,5.8698,5.8698,5.8698,5.8698,5.8698,5.8698,5.8698,5.8698,5.8698,5.8698,5.8698,5.8698,5.2784,5.2638,5.2638,5.2638,5.2183,5.1861,5.2229,5.1994,5.1861,0.0,0.0,0.0,0.0,5.2299,0.0,5.2299,5.2006,5.2197,5.3422,5.4242,5.4979,5.58,5.6609,5.7166,5.729,5.729,5.734,5.7462,5.7877,5.7923,5.7486,5.784,5.7923,5.7486,5.7486,5.7653,5.8082,5.8082,5.8082,5.8082,5.8082,5.8319,5.8698,5.8698,5.8698,5.8698,5.8698,5.8698,5.8698,5.8698,5.8698,5.8698,5.8698,5.8698,5.8698,5.8698,5.8698,5.8698,5.8698,5.8698,5.8698,5.8698,5.8698,5.8698,5.8698,5.8698,5.8698,5.8698,5.8698,5.8698,5.8698,5.8698,5.8698,5.8698,5.8698,5.8698,5.8698,5.8698,5.8698,5.8698,5.8698,5.8698,5.8698,5.8698,5.8698,5.8698,5.8698,5.8698,5.8698,5.8698,5.8698,5.8698,5.8698,5.8698,5.8698,5.8698,5.8698,5.8698,5.8698,5.8698,5.8698,5.8698,5.8698,5.8698,5.8698,5.8698,5.8698,5.8698,5.8698,5.8698,5.8698,5.8809,5.3717,5.3698,5.3698,5.3698,5.2956,5.2276,5.2299,5.2276,5.2276,5.2299,0.0,0.0,0.0,5.2299,5.2299,5.2299,5.2276,5.2565,5.3469,0.0,5.4979,5.58,5.6609,5.729,5.7771,5.7817,5.806,5.8572,5.8614,5.8635,5.8593,5.8614,5.8635,5.8593,5.8593,5.8614,5.8635,5.8635,5.8635,5.8635,5.8635,5.8656,5.8698,5.8698,5.8698,5.8698,5.8698,5.8698,5.8698,5.8698,5.8698,5.8698,5.8698,5.8698,5.8698,5.8698,5.8698,5.8698,5.8698,5.8698,5.8698,5.8698,5.8698,5.8698,5.8698,5.8698,5.8698,5.8698,5.8698,5.8698,5.8698,5.8698,5.8698,5.8698,5.8698,5.8698,5.8698,5.8698,5.8698,5.8698,5.8698,5.8698,5.8698,5.8698,5.8698,5.8698,5.8698,5.8698,5.8698,5.8698,5.8698,5.8698,5.8698,5.8698,5.8698,5.8698,5.8698,5.8698,5.8698,5.8698,5.8698,5.8698,5.8698,5.8698,5.8698,5.8698,5.8698,5.8698,5.8698,5.8698,5.8698,5.9107,5.3794,5.3794,5.3794,5.3794,5.3524,5.3244,5.3244,5.2999,5.2871,5.3182,5.3244,0.0,0.0,0.0,5.2892,5.3203,5.3418,5.3976,5.5101,5.5932,5.6742,5.7553,5.7921,5.8172,5.8385,5.8385,5.8471,5.8677,5.8698,5.8698,5.8698,5.8698,5.8698,5.8698,5.8698,5.8698,5.8698,5.8698,5.8698,5.8698,5.8698,5.8698,5.8698,5.8698,5.8698,5.8698,5.8698,5.8698,5.8698,5.8698,5.8698,5.8698,5.8698,5.8698,5.8698,5.8698,5.8698,5.8698,5.8698,5.8698,5.8698,5.8698,5.8698,5.8698,5.8698,5.8698,5.8698,5.8698,5.8698,5.8698,5.8698,5.8698,5.8698,5.8698,5.8698,5.8698,5.8698,5.8698,5.8698,5.8698,5.8698,5.8698,5.8698,5.8698,5.8698,5.8698,5.8698,5.8698,5.8698,5.8698,5.8698,5.8698,5.8698,5.8698,5.8698,5.8698,5.8698,5.8698,5.8698,5.8698,5.8698,5.8698,5.8698,5.8698,5.8698,5.8698,5.8698,5.8698,5.8958,5.9478,5.9478,5.9924,5.3794,5.3794,5.3794,5.3794,5.3794,5.3794,5.3794,5.3543,5.3404,5.3737,5.3794,5.3794,5.3794,0.0,0.0,0.0,5.4226,5.4958,5.6132,5.6989,5.7806,5.8624,5.8698,5.8698,5.8698,5.8698,5.8698,5.8698,5.8698,5.8698,5.8698,5.8698,5.8698,5.8698,5.8698,5.8698,5.8698,5.8698,5.8698,5.8698,5.8698,5.8698,5.8698,5.8698,5.8698,5.8698,5.8698,5.8698,5.8698,5.8698,5.8698,5.8698,5.8698,5.8698,5.8698,5.8698,5.8698,5.8698,5.8698,5.8698,5.8698,5.8698,5.8698,5.8698,5.8698,5.8698,5.8698,5.8698,5.8698,5.8698,5.8698,5.8698,5.8698,5.8698,5.8698,5.8698,5.8698,5.8698,5.8698,5.8698,5.8698,5.8698,5.8698,5.8698,5.8698,5.8698,5.8698,5.8698,5.8698,5.8698,5.8698,5.8698,5.8698,5.8698,5.8698,5.8698,5.8698,5.8698,5.8698,5.8698,5.8698,5.8698,5.8698,5.8698,5.8698,5.8846,5.9107,5.9107,5.9515,6.0333,6.0333,6.0778,5.3794,5.3794,5.3794,5.3794,5.3794,5.3794,5.3794,5.3794,5.3794,5.3794,5.3794,5.3794,5.3794,5.3794,0.0,5.3831,5.45,5.5317,5.6209,5.6989,5.7806,5.8624,5.8698,5.8698,5.8698,5.8698,5.8698,5.8698,5.8698,5.8698,5.8698,5.8698,5.8698,5.8698,5.8698,5.8698,5.8698,5.8698,5.8698,5.8698,5.8698,5.8698,5.8698,5.8698,5.8698,5.8698,5.8698,5.8698,5.8698,5.8698,5.8698,5.8698,5.8698,5.8698,5.8698,5.8698,5.8698,5.8698,5.8698,5.8698,5.8698,5.8698,5.8698,5.8698,5.8698,5.8698,5.8698,5.8698,5.8698,5.8698,5.8698,5.8698,5.8698,5.8698,5.8698,5.8698,5.8698,5.8698,5.8698,5.8698,5.8698,5.8698,5.8698,5.8698,5.8698,5.8698,5.8698,5.8698,5.8698,5.8698,5.8698,5.8698,5.8698,5.8698,5.8698,5.8698,5.8698,5.8698,5.8735,5.8735,5.8698,5.8735,5.8735,5.8735,5.8735,5.9144,5.9924,5.9924,6.037,6.1224,6.1224,6.1633,5.3794,5.3794,5.3794,5.3794,5.3794,5.3794,0.0,5.3794,0.0,0.0,5.3794,5.3794,5.3794,5.3794,0.0,5.4574,5.5354,5.6209,5.7026,5.7843,5.8438,5.8661,5.8698,5.8698,5.8698,5.8698,5.8698,5.8698,5.8698,5.8698,5.8698,5.8698,5.8698,5.8698,5.8698,5.8698,5.8698,5.8698,5.8698,5.8698,5.8698,5.8698,5.8698,5.8698,5.8698,5.8698,5.8698,5.8698,5.8698,5.8698,5.8698,5.8698,5.8698,5.8698,5.8698,5.8698,5.8698,5.8698,5.8698,5.8698,5.8698,5.8698,5.8698,5.8698,5.8698,5.8698,5.8698,5.8698,5.8698,5.8698,5.8698,5.8698,5.8698,5.8698,5.8698,5.8698,5.8698,5.8698,5.8698,5.8698,5.8698,5.8698,5.8698,5.8698,5.8698,5.8698,5.8698,5.8698,5.8698,5.8698,5.8698,5.8698,5.8698,5.8698,5.8698,5.8698,5.8698,5.8698,5.9255,5.9292,5.8735,5.9255,5.9552,5.9552,6.0147,6.0593,6.0815,6.0815,6.1261,6.2041,6.2041,6.2487,5.3794,5.3794,5.3794,5.3794,5.3794,5.3794,5.3794,0.0,0.0,0.0,5.3794,5.3794,5.3794,5.3794,0.0,5.4871,5.5726,5.658,5.7398,5.8215,5.8698,5.8698,5.8698,5.8698,5.8698,5.8698,5.8698,5.8698,5.8698,5.8698,5.8698,5.8698,5.8698,5.8698,5.8698,5.8698,5.8698,5.8698,5.8698,5.8698,5.8698,5.8698,5.8698,5.8698,5.8698,5.8698,5.8698,5.8698,5.8698,5.8698,5.8698,5.8698,5.8698,5.8698,5.8698,5.8698,5.8698,5.8698,5.8698,5.8698,5.8698,5.8698,5.8698,5.8698,5.8698,5.8698,5.8698,5.8698,5.8698,5.8698,5.8698,5.8698,5.8698,5.8698,5.8698,5.8698,5.8698,5.8698,5.8698,5.8698,5.8698,5.8698,5.8698,5.8698,5.8698,5.8698,5.8698,5.8698,5.8698,5.8698,5.8846,5.9144,5.9181,5.9329,5.9664,5.9701,5.9701,5.9701,6.0147,6.0221,5.9701,6.0184,6.0444,6.0444,6.0927,6.1373,6.167,6.167,6.2116,6.2896,6.2896,6.3156,5.3794,5.3794,5.3794,5.3794,5.3794,5.3794,5.3794,5.3794,5.3794,5.3794,0.0,5.3794,5.3794,5.3868,5.4166,5.4983,5.5837,5.6692,5.7509,5.8252,5.8698,5.8698,5.8698,5.8698,5.8698,5.8698,5.8698,5.8698,5.8698,5.8698,5.8698,5.8698,5.8698,5.8698,5.8698,5.8698,5.8698,5.8698,5.8698,5.8698,5.8698,5.8698,5.8698,5.8698,5.8698,5.8698,5.8698,5.8698,5.8698,5.8698,5.8698,5.8698,5.8698,5.8698,5.8698,5.8698,5.8698,5.8698,5.8698,5.8698,5.8698,5.8698,5.8698,5.8698,5.8698,5.8698,5.8698,5.8698,5.8698,5.8698,5.8698,5.8698,5.8698,5.8698,5.8698,5.8698,5.8698,5.8698,5.8698,5.8698,5.8698,5.8698,5.8698,5.8772,5.8846,5.8921,5.8921,5.8921,5.8921,5.8921,5.9218,5.9961,6.0014,6.0333,6.115,6.1187,6.1187,6.1187,6.1261,6.1298,6.1298,6.1298,6.1298,6.1298,6.1373,6.1781,6.2524,6.2524,6.2896,6.3602,6.3602,6.3602,5.3794,5.3794,5.3794,5.3794,5.3794,5.3794,5.3794,5.3794,5.3794,5.3794,5.3794,5.3794,5.3794,5.4314,5.502,5.5874,5.6729,5.7509,5.8326,5.8586,5.8698,5.8698,5.8698,5.8698,5.8698,5.8698,5.8698,5.8698,5.8698,5.8698,5.8698,5.8698,5.8698,5.8698,5.8698,5.8698,5.8698,5.8698,5.8698,5.8698,5.8698,5.8698,5.8698,5.8698,5.8698,5.8698,5.8698,5.8698,5.8698,5.8698,5.8698,5.8698,5.8698,5.8698,5.8698,5.8698,5.8698,5.8698,5.8698,5.8698,5.8698,5.8698,5.8698,5.8698,5.8698,5.8698,5.8698,5.8698,5.8698,5.8698,5.8698,5.8698,5.8698,5.8698,5.8698,5.8698,5.8698,5.8698,5.8698,5.8698,5.8698,5.8698,5.8698,5.9218,5.9865,6.0555,6.0667,6.0667,6.0667,6.0667,6.0741,6.089,6.0927,6.1001,6.1187,6.1187,6.1187,6.1187,6.1781,6.2153,6.2153,6.2153,6.2153,6.2153,6.2784,6.3193,6.3342,6.3342,6.3453,6.3602,6.3602,6.3602,5.3794,5.3794,5.3794,5.3794,0.0,5.3794,5.3794,5.3794,5.3794,5.3794,5.3794,5.3794,5.3794,5.4463,5.528,5.6172,5.6989,5.7769,5.8586,5.8698,5.8698,5.8698,5.8698,5.8698,5.8698,5.8698,5.8698,5.8698,5.8698,5.8698,5.8698,5.8698,5.8698,5.8698,5.8698,5.8698,5.8698,5.8698,5.8698,5.8698,5.8698,5.8698,5.8698,5.8698,5.8698,5.8698,5.8698,5.8698,5.8698,5.8698,5.8698,5.8698,5.8698,5.8698,5.8698,5.8698,5.8698,5.8698,5.8698,5.8698,5.8698,5.8698,5.8698,5.8698,5.8698,5.8698,5.8698,5.8698,5.8698,5.8698,5.8698,5.8995,5.9292,5.9292,5.8995,5.8698,5.8698,5.8995,5.9292,5.9292,5.9627,5.9887,5.9887,6.0258,6.0704,6.115,6.1187,6.1187,6.1187,6.1187,6.1373,6.1744,6.1781,6.193,6.2339,6.2339,6.2339,6.2339,6.2747,6.297,6.297,6.297,6.297,6.297,6.3416,6.3602,6.3602,6.3602,6.3602,6.3602,6.3602,6.3602,5.3794,5.3794,5.3794,5.3794,5.3794,0.0,5.3794,5.3794,5.3794,5.3794,5.3794,5.3794,5.3794,5.4574,5.5466,5.6172,5.71,5.7955,5.8624,5.8698,5.8698,5.8698,5.8698,5.8698,5.8698,5.8698,5.8698,5.8698,5.8698,5.8698,5.8698,5.8698,5.8698,5.8698,5.8698,5.8698,5.8698,5.8698,5.8698,5.8698,5.8698,5.8698,5.8698,5.8698,5.8698,5.8698,5.8698,5.8698,5.8698,5.8698,5.8698,5.8698,5.8698,5.8698,5.8698,5.8698,5.8698,5.8698,5.8698,5.8698,5.8698,5.8698,5.8698,5.8698,5.8698,5.8698,5.8735,5.8884,5.8921,5.8958,5.9107,5.9627,6.0147,6.0147,5.9627,5.9144,5.9144,5.9664,6.0147,6.0147,6.0704,6.1261,6.1373,6.141,6.1447,6.1596,6.1633,6.1633,6.1633,6.1633,6.1893,6.2562,6.2636,6.2896,6.3565,6.3602,6.3602,6.3602,6.3602,6.3602,6.3602,6.3602,6.3602,6.3602,6.3602,6.3602,6.3602,6.3602,6.3602,6.3602,6.3602,6.3602,5.3794,0.0,5.3794,0.0,5.3794,5.3794,0.0,0.0,5.3794,0.0,5.3794,5.3794,5.3794,5.5057,5.6172,5.6283,5.7583,5.8586,5.8698,5.8698,5.8698,5.8698,5.8698,5.8698,5.8698,5.8698,5.8698,5.8698,5.8698,5.8698,5.8698,5.8698,5.8698,5.8698,5.8698,5.8698,5.8698,5.8698,5.8698,5.8698,5.8698,5.8698,5.8698,5.8698,5.8698,5.8698,5.8698,5.8698,5.8698,5.8698,5.8698,5.8698,5.8698,5.8698,5.8698,5.8698,5.8698,5.8698,5.8698,5.8698,5.8698,5.8698,5.8698,5.8698,5.8698,5.8698,5.8846,5.9552,5.9717,5.9924,6.0667,6.0964,6.1038,6.1038,6.0964,6.089,6.089,6.0964,6.1038,6.1038,6.1113,6.141,6.2116,6.2264,6.2487,6.3193,6.3305,6.3305,6.3305,6.3305,6.3342,6.3453,6.3453,6.349,6.3579,6.3602,6.3602,6.3602,6.3602,6.3602,6.3602,6.3602,6.3602,6.3602,6.3602,6.3602,6.3602,6.3602,6.3602,6.3602,6.3602,6.3602,5.3794,5.3794,5.3794,0.0,5.3794,5.3794,5.3794,5.3794,5.3794,5.3794,5.3794,5.3943,5.4388,5.5466,5.6469,5.6915,5.7955,5.8698,5.8698,5.8698,5.8698,5.8698,5.8698,5.8698,5.8698,5.8698,5.8698,5.8698,5.8698,5.8698,5.8698,5.8698,5.8698,5.8698,5.8698,5.8698,5.8698,5.8698,5.8698,5.8698,5.8698,5.8698,5.8698,5.8698,5.8698,5.8698,5.8698,5.8698,5.8698,5.8698,5.8698,5.8698,5.8698,5.8698,5.8698,5.8698,5.8698,5.8698,5.8698,5.8698,5.8772,5.9255,5.9367,5.9478,5.9961,6.011,6.0184,6.0518,6.063,6.0741,6.1113,6.1521,6.1893,6.1893,6.2227,6.2562,6.2562,6.219,6.2004,6.245,6.2562,6.2673,6.3007,6.3082,6.3193,6.3565,6.3602,6.3602,6.3602,6.3602,6.3602,6.3602,6.3602,6.3602,6.3602,6.3602,6.3602,6.3602,6.3602,6.3602,6.3602,6.3602,6.3602,6.3602,6.3602,6.3602,6.3602,6.3602,6.3602,6.3602,6.3602,6.3602,5.3794,0.0,5.3794,5.3794,5.3794,5.3794,0.0,0.0,5.3794,0.0,5.398,5.4351,5.5169,5.5874,5.658,5.736,5.8178,5.8698,5.8698,5.8698,5.8698,5.8698,5.8698,5.8698,5.8698,5.8698,5.8698,5.8698,5.8698,5.8698,5.8698,5.8698,5.8698,5.8698,5.8698,5.8698,5.8698,5.8698,5.8698,5.8698,5.8698,5.8698,5.8698,5.8698,5.8698,5.8698,5.8698,5.8698,5.8698,5.8698,5.8698,5.8698,5.8698,5.8698,5.8698,5.8698,5.8846,5.8995,5.8995,5.9144,5.9441,6.0035,6.0221,6.037,6.1001,6.1187,6.1261,6.1447,6.1521,6.1558,6.1781,6.2264,6.271,6.271,6.3156,6.3602,6.3602,6.3156,6.2896,6.349,6.3602,6.3602,6.3602,6.3602,6.3602,6.3602,6.3602,6.3602,6.3602,6.3602,6.3602,6.3602,6.3602,6.3602,6.3602,6.3602,6.3602,6.3602,6.3602,6.3602,6.3602,6.3602,6.3602,6.3602,6.3602,6.3602,6.3602,6.3602,6.3602,6.3602,6.3602,6.3602,0.0,5.3794,0.0,5.3794,5.3794,5.3794,0.0,0.0,5.3794,5.3794,5.4426,5.5206,5.606,5.6283,5.658,5.736,5.8178,5.8698,5.8698,5.8698,5.8698,5.8698,5.8698,5.8698,5.8698,5.8698,5.8698,5.8698,5.8698,5.8698,5.8698,5.8698,5.8698,5.8698,5.8698,5.8698,5.8698,5.8698,5.8698,5.8698,5.8698,5.8698,5.8698,5.8698,5.8698,5.8698,5.8698,5.8698,5.8698,5.8698,5.8698,5.8698,5.8698,5.8698,5.8698,5.8698,5.9181,5.9828,5.9828,6.0407,6.1076,6.1113,6.115,6.115,6.1187,6.1187,6.1373,6.2116,6.2339,6.2524,6.3305,6.3527,6.3565,6.3565,6.3565,6.3602,6.3602,6.3565,6.3565,6.3579,6.3602,6.3602,6.3602,6.3602,6.3602,6.3602,6.3602,6.3602,6.3602,6.3602,6.3602,6.3602,6.3602,6.3602,6.3602,6.3602,6.3602,6.3602,6.3602,6.3602,6.3602,6.3602,6.3602,6.3602,6.3602,6.3602,6.3602,6.3602,6.3602,6.3602,6.3602,6.3602,0.0,0.0,0.0,5.3794,5.3794,5.3794,5.3794,5.3794,5.3943,5.4463,5.4797,5.5429,5.6803,5.7063,5.7323,5.8141,5.8512,5.8698,5.8698,5.8698,5.8698,5.8698,5.8698,5.8698,5.8698,5.8698,5.8698,5.8698,5.8698,5.8698,5.8698,5.8698,5.8698,5.8698,5.8698,5.8698,5.8698,5.8698,5.8698,5.8698,5.8698,5.8698,5.8698,5.8698,5.8698,5.8698,5.8698,5.8698,5.8698,5.8698,5.8698,5.8698,5.8698,5.9032,5.9457,5.9457,6.0035,6.0741,6.0741,6.0964,6.1298,6.1819,6.1967,6.2079,6.2599,6.2747,6.2822,6.3082,6.3193,6.3267,6.3527,6.3602,6.3669,6.3937,6.3984,6.3984,6.3984,6.3764,6.3602,6.3602,6.3602,6.3602,6.3602,6.3602,6.3602,6.3602,6.3602,6.3602,6.3602,6.3602,6.3602,6.3602,6.3602,6.3602,6.3602,6.3602,6.3602,6.3602,6.3602,6.3602,6.3602,6.3851,6.3984,6.3984,6.4212,6.407,6.3602,6.3602,6.3602,6.3602,6.3602,6.3602,5.4035,0.0,0.0,0.0,5.3888,5.3869,5.3794,5.4017,5.4351,5.4909,5.5466,5.6172,5.7286,5.7732,5.8103,5.8624,5.8698,5.8698,5.8698,5.8698,5.8698,5.8698,5.8698,5.8698,5.8698,5.8698,5.8698,5.8698,5.8698,5.8698,5.8698,5.8698,5.8698,5.8698,5.8698,5.8698,5.8698,5.8698,5.8698,5.8698,5.8698,5.8698,5.8698,5.8698,5.8698,5.8698,5.8805,5.8784,5.8698,5.8805,5.9034,5.9316,5.9417,5.9962,6.073,6.073,6.1134,6.1757,6.1757,6.1874,6.2116,6.2636,6.2822,6.2896,6.3453,6.3602,6.3602,6.3602,6.3714,6.3786,6.3786,6.3878,6.4029,6.4273,6.4388,6.4388,6.4388,6.4172,6.3942,6.383,6.3878,6.3942,6.383,6.3786,6.3786,6.3786,6.3786,6.3786,6.3786,6.3786,6.3742,6.3602,6.3602,6.3602,6.3602,6.3602,6.3669,6.3786,6.4069,6.4246,6.4395,6.4928,6.5236,6.5236,6.5462,6.5332,6.4849,6.4566,6.4416,6.4416,6.4716,6.4849,0.0,0.0,0.0,0.0,0.0,0.0,5.3851,0.0,5.4983,5.502,5.632,5.7472,5.7546,5.8178,5.8698,5.8698,5.8698,5.8698,5.8698,5.8698,5.8698,5.8698,5.8698,5.8719,5.8719,5.8719,5.8719,5.8719,5.8719,5.8719,5.8719,5.8698,5.8698,5.8719,5.8719,5.8719,5.8719,5.8719,5.8719,5.8719,5.8719,5.8719,5.8719,5.8719,5.8719,5.876,5.9102,5.9045,5.8797,5.9102,5.974,6.0548,6.0921,6.1548,6.2324,6.2324,6.2611,6.2952,6.2952,6.3231,6.3624,6.3624,6.3624,6.3624,6.3624,6.3624,6.3624,6.3624,6.3915,6.4192,6.4192,6.4464,6.4716,6.4716,6.4716,6.4716,6.4716,6.4734,6.4628,6.4271,6.4483,6.4592,6.4271,6.4192,6.4192,6.4192,6.4192,6.4192,6.4192,6.4192,6.4067,6.3691,6.3661,6.3684,6.3684,6.3661,6.3882,6.4284,6.5001,6.5613,6.6025,6.6858,6.7293,6.7293,6.7349,6.7311,6.7311,6.6478,6.6043,6.6081,6.6895,6.7331,5.4781,0.0,0.0,0.0,0.0,0.0,0.0,0.0,5.4634,5.5958,5.6442,5.6989,5.8141,5.8549,5.8698,5.8698,5.8698,5.8698,5.8698,5.8698,5.8698,5.8698,5.8888,5.9046,5.9046,5.9046,5.9159,0.0,5.9253,5.9046,5.9046,5.8825,5.8945,5.9488,5.9197,5.9046,5.9046,5.9325,5.9325,5.9083,5.9381,5.9505,5.9505,5.9505,5.9505,5.9523,5.9588,5.9911,6.037,6.0475,6.0623,6.0921,6.1667,6.2421,6.3179,6.3179,6.3603,6.4215,6.4215,6.4293,6.4407,6.4407,6.4407,6.4369,6.4128,6.4212,6.435,6.4128,6.431,6.4537,6.4537,6.4628,6.4769,6.5057,6.5121,6.5121,6.5121,6.5359,6.5359,6.4681,6.4628,6.4664,6.4574,6.4537,6.4537,6.4537,6.4537,6.4537,6.4537,6.4537,6.4501,6.4426,6.4954,6.5332,6.5332,6.5917,6.6314,6.6427,6.6654,6.6824,6.6933,6.7423,6.767,6.767,6.7929,6.8086,6.8086,6.7309,6.6933,6.6971,6.7199,6.7417,0.0,0.0,0.0,0.0,0.0,0.0,5.5289,5.5282,5.5563,5.6964,5.7265,5.7644,5.8699,5.8925,5.8947,5.9121,5.914,5.9063,5.8739,5.8698,5.8698,5.8698,5.9006,5.9215,5.9215,5.9361,5.9554,5.9793,5.9571,5.945,5.945,5.9271,5.9363,5.9793,5.9571,5.945,5.945,5.9673,5.9673,5.945,5.9673,5.9809,5.9809,5.9809,5.9961,6.0319,6.0463,6.0981,6.1796,6.2277,6.2414,6.2344,6.3017,6.3764,6.4512,6.4512,6.4686,6.4976,6.4976,6.4837,6.4699,6.4699,6.4699,6.4664,6.4464,6.4557,6.4664,6.4464,6.4684,6.5009,6.5153,6.5184,6.5268,6.5485,6.5527,6.5527,6.5527,6.5742,6.569,6.5073,6.5089,6.5137,6.4992,6.4976,6.4976,6.4976,6.528,6.5508,6.5508,6.5775,6.5952,6.5796,6.6233,6.6536,6.6536,6.7009,6.7347,6.7504,6.7863,6.8121,6.8291,6.8824,6.9068,6.9068,6.9316,6.9436,6.9436,6.8671,6.8444,6.8804,6.8804,6.89,0.0,0.0,0.0,0.0,0.0,0.0,5.6082,5.6481,5.7003,5.7966,5.8428,5.8796,5.9214,5.9269,5.9377,5.9739,5.9788,5.9554,5.8905,5.8842,5.8842,5.8842,5.914,5.9305,5.9305,5.9639,5.989,5.9922,5.989,5.989,5.9922,5.9858,5.9842,5.9922,5.989,5.9874,5.9874,5.9906,5.9906,5.9874,5.9906,5.9922,5.9922,5.9998,6.0469,6.1147,6.1535,6.2185,6.3093,6.4142,6.441,6.4178,6.4577,6.5205,6.5897,6.5897,6.5663,6.5382,6.5382,6.5121,6.4837,6.4837,6.4837,6.482,6.4786,6.4803,6.4837,6.4837,6.5089,6.5456,6.5795,6.5897,6.5897,6.5897,6.5974,6.6013,6.6013,6.609,6.605,6.5709,6.5841,6.5935,6.5556,6.5573,6.565,6.565,6.6315,6.6812,6.6812,6.7439,6.7751,6.7435,6.7514,6.7552,6.7552,6.7628,6.7842,6.8151,6.8855,6.9451,6.9808,7.0514,7.0898,7.0898,7.0898,7.0898,7.0898,7.0167,7.0206,7.0898,7.0898,7.0898,0.0,0.0,0.0,0.0,0.0,0.0,5.6778,5.6689,5.6906,5.8623,5.8805,5.891,5.964,5.977,5.977,5.9792,5.9792,5.9766,5.9588,5.9609,5.9609,5.9609,5.9868,6.0082,6.0082,6.0179,6.0307,6.0585,6.0349,6.0307,6.0585,6.0106,6.0061,6.0585,6.0335,6.0208,6.0208,6.0481,6.0481,6.0208,6.0494,6.0597,6.0635,6.1326,6.1748,6.1953,6.2644,6.3438,6.4283,6.4487,6.4564,6.459,6.5346,6.5743,6.5897,6.5897,6.5872,6.5781,6.5781,6.5742,6.5663,6.5663,6.5663,6.5622,6.5284,6.5427,6.5663,6.5663,6.5742,6.5795,6.5885,6.5897,6.5897,6.5897,6.6397,6.6859,6.6859,6.7436,6.7871,6.7818,6.7281,6.6846,6.6755,6.7318,6.7818,6.7818,6.7933,6.8048,6.8048,6.8202,6.8252,6.8196,6.881,6.9232,6.9232,6.9808,7.022,7.0277,7.0431,7.0574,7.0667,7.0821,7.0898,7.0898,7.0898,7.0898,7.0898,7.0744,7.0744,7.0898,7.0898,7.0898,0.0,0.0,0.0,5.7288,0.0,0.0,0.0,5.8127,5.817,5.9498,5.9529,5.9473,6.005,6.0155,6.022,6.0353,6.0378,6.0351,6.0349,6.0007,5.9809,5.9809,6.0106,6.0293,6.0293,6.0468,6.061,6.0781,6.0622,6.061,6.0781,6.0494,6.0468,6.0781,6.0622,6.0546,6.0546,6.0722,6.0722,6.0546,6.0722,6.1012,6.1447,6.1908,6.2563,6.3358,6.3782,6.4436,6.5243,6.5243,6.5243,6.5282,6.5743,6.5897,6.5897,6.5897,6.5897,6.5897,6.5897,6.5897,6.5897,6.5897,6.5897,6.5872,6.5649,6.5755,6.5897,6.5897,6.6205,6.6513,6.6513,6.6821,6.7167,6.7167,6.7436,6.7744,6.7744,6.809,6.8385,6.8385,6.8398,6.8244,6.7821,6.8129,6.8385,6.8385,6.8783,6.9052,6.9052,6.9398,6.9667,6.9667,7.0052,7.0283,7.0283,7.0667,7.0898,7.0898,7.0898,7.0898,7.0898,7.0898,7.0898,7.0898,7.0898,7.0898,7.0898,7.0898,7.0898,7.0898,7.0898,7.0898,0.0,0.0,0.0,0.0,0.0,5.8788,0.0,0.0,0.0,6.0376,6.0341,6.0209,0.0,0.0,0.0,6.0755,0.0,0.0,0.0,6.0275,0.0,5.9977,6.0237,6.0376,6.0376,6.0622,6.0781,6.0781,6.0781,6.0781,6.0781,6.0781,6.0781,6.0781,6.0781,6.0781,6.0781,6.0781,6.0781,6.0781,6.0973,6.1396,6.2101,6.2447,6.332,6.4628,6.4782,6.5243,6.5897,6.5897,6.5897,6.5897,6.5897,6.5897,6.5897,6.5897,6.5897,6.5897,6.5897,6.5897,6.5897,6.5897,6.5897,6.5936,6.609,6.6128,6.6167,6.632,6.6859,6.7359,6.7359,6.7859,6.8385,6.8385,6.8552,6.8667,6.8667,6.8783,6.8898,6.8898,6.9436,6.9667,6.8821,6.8783,6.8898,6.8898,6.9475,6.9937,6.9937,7.0514,7.0898,7.0898,7.0898,7.0898,7.0898,7.0898,7.0898,7.0898,7.0898,7.0898,7.0898,7.0898,7.0898,7.0898,7.0898,7.0898,7.0898,7.0898,7.0898,7.0898,7.0898,7.0898,0.0,0.0,0.0,0.0,5.8613,0.0,0.0,0.0,6.0065,6.0877,0.0,0.0,0.0,0.0,0.0,0.0,0.0,0.0,5.9945,6.0388,6.0757,6.071,6.0722,6.0746,6.0746,6.0769,6.0781,6.0781,6.0781,6.0781,6.0781,6.0781,6.0781,6.0781,6.0781,6.0781,6.0781,6.0781,6.0781,6.0819,6.1601,6.1985,6.2139,6.3628,6.4436,6.4628,6.5436,6.582,6.5897,6.5897,6.5897,6.5897,6.5897,6.5897,6.5897,6.5897,6.5897,6.5897,6.5897,6.5897,6.5897,6.5897,6.5897,6.6013,6.6744,6.6974,6.7128,6.7898,6.8167,6.8244,6.8244,6.8321,6.8385,6.8385,6.9013,6.9552,6.9552,7.0129,7.0629,7.0629,7.0706,7.0514,6.9706,7.0129,7.0629,7.0629,7.0706,7.0744,7.0744,7.0821,7.0898,7.0898,7.0898,7.0898,7.0898,7.0898,7.0898,7.0898,7.0898,7.0898,7.0898,7.0898,7.0898,7.0898,7.0898,7.0898,7.0898,7.0898,7.0898,7.0898,7.0898,7.0898,0.0,0.0,0.0,0.0,0.0,0.0,6.049,0.0,6.0692,0.0,0.0,0.0,0.0,0.0,0.0,0.0,6.079,0.0,0.0,0.0,6.0933,0.0,0.0,0.0,6.0781,6.0781,6.0781,6.0781,6.0781,6.0781,6.0781,6.0781,6.0781,6.0781,6.0781,6.0781,6.0781,6.0781,6.105,6.1562,6.1947,6.2601,6.3551,6.4282,6.4897,6.5359,6.5743,6.5897,6.5897,6.5897,6.5897,6.5897,6.5897,6.5897,6.5897,6.5897,6.5897,6.5897,6.5897,6.5897,6.5974,6.6436,6.659,6.6744,6.759,6.7859,6.7936,6.8321,6.8783,6.9167,6.9167,6.9513,6.986,6.986,7.0129,7.0398,7.0398,7.0667,7.0898,7.0898,7.0898,7.0783,7.0437,7.0667,7.0898,7.0898,7.0898,7.0898,7.0898,7.0898,7.0898,7.0898,7.0898,7.0898,7.0898,7.0898,7.0898,7.0898,7.0898,7.0898,7.0898,7.0898,7.0898,7.0898,7.0898,7.0898,7.0898,7.0898,7.0898,7.0898,7.0898,7.0898,6.106,0.0,0.0,0.0,0.0,0.0,0.0,0.0,0.0,0.0,0.0,0.0,0.0,0.0,0.0,0.0,0.0,6.0945,0.0,6.0856,0.0,0.0,0.0,0.0,0.0,6.0781,6.0781,6.0781,6.0781,6.0781,6.0781,6.0781,6.0781,6.0781,6.0781,6.0781,6.0781,6.105,6.1485,6.2101,6.2563,6.3397,6.4628,6.4859,6.5282,6.5897,6.5897,6.5897,6.5897,6.5897,6.5897,6.5897,6.5897,6.5897,6.5897,6.5897,6.5897,6.5897,6.5897,6.6051,6.6359,6.7205,6.7475,6.7628,6.8475,6.8783,6.8821,6.9013,6.9552,7.0014,7.0014,7.0475,7.0898,7.0898,7.0898,7.0898,7.0898,7.0898,7.0898,7.0898,7.0898,7.0898,7.0898,7.0898,7.0898,7.0898,7.0898,7.0898,7.0898,7.0898,7.0898,7.0898,7.0898,7.0898,7.0898,7.0898,7.0898,7.0898,7.0898,7.0898,7.0898,7.0898,7.0898,7.0898,7.0898,7.1014,7.1245,7.1245,7.136,7.1591,7.1129,7.0898,0.0,0.0,0.0,6.107,0.0,0.0,0.0,0.0,6.1118,0.0,0.0,0.0,0.0,0.0,0.0,0.0,0.0,0.0,0.0,0.0,0.0,0.0,0.0,0.0,0.0,6.0781,6.0781,6.0781,6.0781,6.0781,6.0781,6.0781,6.0781,6.0781,6.0781,6.0781,6.0781,6.1639,6.2062,6.2139,6.3743,6.4551,6.4628,6.5474,6.5859,6.5897,6.5897,6.5897,6.5897,6.5897,6.5897,6.5897,6.5897,6.5897,6.5897,6.5897,6.5897,6.5897,6.5897,6.6397,6.7205,6.809,6.8359,6.8513,6.9398,6.9667,6.9821,7.0591,7.0821,7.086,7.086,7.0898,7.0898,7.0898,7.0898,7.0898,7.0898,7.0898,7.0898,7.0898,7.0898,7.0898,7.0898,7.0898,7.0898,7.0898,7.0898,7.0898,7.0898,7.0898,7.0898,7.0898,7.0898,7.0898,7.0898,7.0898,7.0898,7.0898,7.0898,7.0898,7.0898,7.0898,7.0898,7.0898,7.0898,7.1321,7.2168,7.2168,7.2591,7.3399,7.1706,7.0898,0.0,0.0,6.1012,6.107,0.0,0.0,0.0,0.0,0.0,0.0,0.0,0.0,0.0,0.0,0.0,0.0,0.0,0.0,0.0,0.0,0.0,0.0,0.0,0.0,0.0,0.0,6.0781,6.0781,6.0781,6.0781,6.0781,6.0781,6.0781,6.0781,6.0781,6.0781,6.0781,6.1678,6.2358,6.2897,6.4051,6.4897,6.5474,6.5782,6.5897,6.5897,6.5897,6.5897,6.5897,6.5897,6.5897,6.5897,6.5897,6.6244,6.6628,6.609,6.6244,6.6782,6.7359,6.7744,6.809,6.8975,6.9244,6.9398,7.0244,7.0475,7.0552,7.0821,7.0898,7.0898,7.0898,7.0898,7.0898,7.0898,7.0898,7.0898,7.0898,7.0898,7.0898,7.0898,7.0898,7.0898,7.0898,7.0898,7.0898,7.0898,7.0898,7.0898,7.0898,7.0898,7.0898,7.0898,7.0898,7.0898,7.0898,7.0898,7.0898,7.0898,7.1437,7.1745,7.1745,7.2322,7.2629,7.2629,7.2629,7.2783,7.3053,7.3053,7.3206,7.35,7.2899,7.2629,6.1051,6.1032,0.0,6.107,6.1051,0.0,6.1109,0.0,6.1118,0.0,0.0,0.0,0.0,0.0,0.0,0.0,0.0,0.0,0.0,6.1051,0.0,0.0,0.0,0.0,0.0,6.0888,6.0854,6.0854,6.0854,6.0843,0.0,6.0781,6.0781,6.0781,6.0781,6.0935,6.1243,6.2089,6.2935,6.3782,6.4666,6.5359,6.5897,6.5897,6.5897,6.5897,6.5897,6.5897,6.5897,6.5897,6.5897,6.5936,6.6205,6.6628,6.7051,6.6513,6.6859,6.7705,6.8552,6.8859,6.9013,6.986,7.0129,7.0206,7.0744,7.0898,7.0898,7.0898,7.0898,7.0898,7.0898,7.0898,7.0898,7.0898,7.0898,7.0898,7.0898,7.0898,7.0898,7.0898,7.0898,7.0898,7.0898,7.0898,7.0898,7.0898,7.0898,7.0898,7.0898,7.0898,7.0898,7.0898,7.0898,7.1014,7.1321,7.136,7.1475,7.1822,7.236,7.2668,7.2668,7.3206,7.3514,7.3514,7.3514,7.363,7.3937,7.3937,7.4091,7.4399,7.4399,7.4399]}]]